GFSCGP_700_spd_000.txt.gz
Wind_Speed
51 41 41 38 30 27 20 11 8 5 10 12 13 13 12 12 18 15 16 20 22 23 21 18 13 8 12 14 15 16 17 18 19 19 20 20 21 21 21 22 23 23 25 27
44 48 39 35 30 28 25 21 9 7 5 7 10 15 18 18 18 16 21 19 15 15 15 9 8 10 12 14 16 18 19 19 18 18 19 20 21 21 21 20 22 25 26 28
33 38 37 27 31 28 23 19 12 10 7 11 15 18 15 17 18 20 19 17 14 11 9 8 8 10 12 13 14 14 14 15 16 16 18 19 20 21 21 20 21 24 28 31
33 33 38 26 32 28 25 18 14 15 14 9 4 6 15 21 17 16 13 11 12 12 10 8 10 11 13 13 11 11 13 18 21 23 23 23 23 23 24 23 23 25 29 31
23 34 34 33 29 22 22 18 18 16 14 12 16 8 9 21 22 21 13 12 13 12 10 11 12 13 12 11 14 17 20 21 23 25 25 26 26 26 27 28 28 28 29 32
15 31 30 29 22 19 21 18 14 11 9 5 20 17 9 21 12 17 14 13 14 13 12 12 12 12 14 18 20 21 22 25 29 27 26 25 25 25 26 27 27 28 30 31
23 32 30 26 25 24 22 16 3 3 3 6 4 14 21 10 8 6 10 10 14 13 12 13 13 15 19 21 21 24 28 32 32 32 28 24 25 25 27 29 31 32 33 35
24 22 32 28 29 27 26 19 6 6 4 3 9 8 9 9 16 18 15 14 13 12 13 13 16 19 20 22 26 29 30 31 28 27 25 24 24 25 27 29 31 33 35 36
25 18 35 24 31 26 25 24 16 5 4 2 6 9 11 8 9 19 20 16 13 12 10 11 17 21 24 28 29 31 33 30 28 26 25 25 25 27 30 32 34 35 37 38
17 13 30 23 28 26 15 23 11 10 3 4 4 6 10 8 12 18 18 15 12 10 12 18 22 27 31 32 34 35 32 30 30 30 29 29 30 33 34 35 37 39 41 42
25 16 22 20 24 29 22 18 10 7 4 4 1 3 1 9 10 10 10 10 9 13 17 20 26 32 34 34 32 32 30 31 32 30 31 33 35 35 37 40 43 45 46 46
20 15 25 21 17 25 24 20 17 6 5 5 1 3 3 4 4 11 8 9 14 15 20 28 33 32 30 32 33 33 34 34 33 33 34 37 39 41 42 45 47 48 48 47
16 9 14 9 12 20 20 25 23 19 10 8 5 3 8 8 15 9 8 10 16 23 31 27 26 27 30 32 35 36 35 35 34 35 40 43 45 47 48 48 47 47 46 45
13 13 13 18 8 17 25 21 20 20 13 16 20 9 9 13 16 16 22 28 28 27 23 22 27 28 33 35 34 34 35 37 40 42 45 48 52 51 49 48 47 45 44 43
16 11 8 11 8 12 15 21 22 25 24 18 19 19 15 20 27 33 34 25 19 18 24 28 26 30 37 37 36 37 39 40 43 45 48 54 55 52 49 48 45 43 41 40
16 13 13 11 10 11 14 16 19 22 23 26 26 28 13 8 12 13 15 19 23 26 26 26 27 36 40 39 37 40 42 45 48 51 54 54 49 46 42 41 40 40 41 41
14 10 12 6 11 12 12 10 18 24 26 19 14 9 14 15 16 18 21 24 24 23 24 28 37 39 38 38 41 42 45 47 50 51 49 45 43 41 40 41 43 44 45 46
12 12 9 5 5 2 6 9 6 5 5 7 10 16 19 20 22 22 21 22 23 27 34 38 36 38 40 41 46 46 49 52 49 44 43 42 40 40 41 43 45 47 48 50
13 12 6 5 8 9 7 6 7 8 7 12 17 18 19 23 27 22 21 23 32 39 37 33 36 39 43 43 44 51 51 46 43 42 39 38 38 39 42 44 47 49 51 52
15 14 12 8 4 5 6 9 8 8 10 18 18 19 15 18 25 29 34 36 32 30 30 33 36 40 44 47 54 51 46 44 43 39 36 37 39 42 45 49 50 52 52 53
14 15 17 14 6 7 11 13 14 8 6 15 16 19 27 31 34 37 36 35 32 32 31 34 37 39 50 48 46 45 43 41 39 37 37 39 42 46 49 52 52 53 54 55
13 12 13 15 8 9 12 12 14 12 14 20 25 30 35 36 39 36 32 35 36 36 38 40 41 47 44 43 41 40 40 40 38 38 40 43 47 50 51 53 54 54 54 54
11 13 8 10 6 11 13 16 17 20 25 29 34 37 40 38 35 37 35 33 32 35 37 40 43 42 44 39 38 39 38 38 38 40 44 47 50 51 52 53 53 53 53 53
18 17 21 19 20 19 18 23 26 30 34 37 39 36 35 32 32 31 31 32 32 34 37 39 40 38 33 33 35 36 36 39 42 45 48 50 52 53 52 51 51 52 52 53
19 20 24 28 25 21 23 28 32 36 35 33 32 30 30 31 32 34 34 34 36 36 35 35 32 29 31 32 32 35 39 43 45 48 50 52 53 52 51 50 50 51 51 52
20 27 28 29 21 23 24 24 26 27 27 27 29 31 32 33 33 33 34 34 34 34 33 31 30 31 32 33 34 38 41 44 47 49 51 51 51 51 50 51 51 49 51 50

GFSCGP_700_spd_003.txt.gz
Wind_Speed
38 43 45 43 37 29 19 19 17 12 9 15 15 18 15 12 15 15 22 17 16 17 18 15 14 10 8 10 11 12 12 13 13 13 13 14 15 15 17 19 20 23 26 29
42 46 45 42 37 33 25 23 19 11 8 11 13 16 17 20 20 16 12 14 15 14 12 13 9 9 10 12 12 13 14 13 12 12 13 14 16 17 18 20 20 21 23 25
45 41 41 41 38 35 27 28 23 21 12 13 19 28 24 26 20 15 13 14 14 14 15 9 8 10 11 11 12 13 13 13 14 16 17 19 20 21 22 22 24 25 26 27
27 42 40 36 38 33 28 27 21 17 14 14 11 9 19 15 18 15 13 11 12 13 11 9 9 9 11 12 12 15 18 18 19 21 24 24 23 24 24 25 26 28 29 30
28 34 39 32 36 33 26 19 16 16 17 20 21 14 9 16 23 20 15 12 11 11 11 10 9 10 10 13 17 20 21 22 24 27 28 26 25 24 25 26 27 29 31 33
30 23 27 43 24 29 25 16 14 16 17 8 24 20 12 18 14 16 17 14 12 12 12 10 9 9 12 15 18 19 22 25 28 28 27 25 24 24 25 26 28 29 32 34
26 29 29 30 33 24 24 17 3 3 3 6 7 11 26 10 9 6 11 11 10 11 11 10 9 11 14 16 19 23 25 28 30 27 25 25 24 25 25 27 29 31 33 35
19 17 33 25 31 30 28 26 9 6 4 4 8 9 9 7 11 14 12 13 10 10 9 9 9 11 15 19 24 26 29 29 27 25 25 25 24 25 28 30 33 36 38 40
15 14 37 22 31 28 30 27 24 6 8 3 7 10 15 11 8 13 17 15 11 8 8 9 10 17 21 25 26 25 27 27 27 27 26 25 26 28 31 35 38 41 43 45
15 13 33 20 26 24 21 26 17 12 3 4 5 8 12 2 6 8 10 12 10 8 9 12 17 21 24 24 23 25 27 27 28 29 29 28 29 31 35 38 41 44 45 46
21 18 25 27 27 32 30 20 20 10 9 3 2 4 3 6 6 4 5 6 5 7 12 16 21 26 23 21 23 25 28 30 30 31 30 31 34 39 43 44 47 48 47 47
24 15 25 26 19 29 28 25 23 15 7 8 3 5 3 1 11 9 5 5 7 12 15 22 28 22 18 20 24 28 31 32 32 33 35 37 39 41 45 49 51 49 48 48
20 9 14 13 18 19 29 29 25 23 15 11 5 5 9 8 7 12 8 9 11 15 26 27 18 16 19 22 27 31 32 32 34 35 37 41 45 48 52 53 50 49 49 47
23 13 16 21 19 25 29 33 31 30 22 17 20 6 7 8 14 16 17 18 24 32 18 14 18 19 19 26 31 34 35 34 38 40 44 48 50 57 54 51 50 48 46 45
15 9 10 16 13 17 24 31 32 31 30 20 19 19 11 13 17 19 24 30 26 14 16 17 17 16 24 32 36 37 37 39 42 44 47 50 59 49 48 48 46 45 44 44
18 8 11 14 15 14 15 18 27 28 27 28 24 20 17 22 20 15 14 14 16 19 18 17 17 24 31 35 36 40 43 44 46 47 51 60 49 47 46 45 43 44 44 45
18 15 16 7 12 10 10 20 21 24 26 25 24 20 18 16 15 16 18 20 21 20 20 21 26 30 34 38 39 41 43 47 49 54 57 50 47 45 44 43 44 45 47 50
14 13 12 5 8 2 10 13 14 16 20 24 22 18 17 16 16 16 18 19 19 22 26 30 34 37 37 38 41 44 46 49 55 53 50 48 47 45 43 44 45 48 51 55
16 16 9 6 9 5 7 14 14 14 15 17 18 18 18 17 17 17 18 22 26 31 34 35 34 33 35 40 43 44 44 54 48 47 45 45 44 43 43 45 49 53 57 59
20 19 16 8 4 6 6 15 16 15 15 19 18 16 16 18 17 21 28 32 33 31 27 29 30 33 37 39 45 50 48 46 44 41 42 42 42 44 46 50 53 57 60 61
23 20 20 17 8 6 11 14 13 10 10 12 16 15 16 19 26 33 35 35 32 33 32 30 31 35 39 42 46 47 47 43 39 40 41 42 43 47 50 54 57 59 60 60
13 13 14 14 8 9 13 16 17 13 13 13 13 17 24 30 33 34 33 33 31 29 29 31 33 37 40 43 44 43 40 38 39 41 42 43 46 51 54 57 58 57 56 56
12 13 8 9 8 10 8 16 16 18 18 20 24 29 33 36 34 33 31 31 30 30 29 30 34 37 38 38 37 34 36 38 39 41 43 47 50 52 54 56 56 55 54 54
16 17 19 18 18 16 15 16 19 21 24 27 32 35 35 32 31 30 31 31 31 30 31 33 34 35 34 33 34 36 38 39 41 44 47 49 51 54 54 54 54 54 54 55
19 18 22 25 25 17 18 19 22 25 29 33 33 31 30 29 30 32 33 33 33 34 33 33 33 33 33 33 33 37 39 41 43 46 47 50 54 54 55 54 54 54 54 54
26 28 26 24 21 19 25 28 30 30 28 29 29 28 28 30 32 34 34 34 34 33 32 31 31 31 31 32 34 38 40 42 45 48 51 54 55 55 56 56 56 52 53 51

GFSCGP_700_spd_006.txt.gz
Wind_Speed
44 42 44 43 38 34 19 20 16 12 10 18 15 21 18 15 16 16 14 16 18 18 17 16 11 10 8 8 9 10 11 11 11 10 8 9 10 12 15 17 18 19 21 23
36 47 43 37 34 28 23 16 21 19 16 17 18 21 19 17 19 18 16 16 17 19 16 10 10 8 6 8 9 9 9 9 8 9 10 12 15 16 17 19 21 23 25 26
33 34 40 41 37 34 32 28 19 19 17 22 24 28 19 11 18 23 17 18 16 14 11 10 7 6 6 7 7 7 8 10 11 13 15 18 20 20 20 21 23 25 27 29
28 27 39 42 39 33 33 25 21 17 18 14 12 11 29 24 18 14 16 16 13 12 11 8 6 5 5 6 8 11 13 14 17 19 22 22 20 19 19 20 22 24 26 28
24 29 28 40 38 31 30 23 21 20 19 20 22 14 9 16 16 14 16 14 11 10 9 8 6 5 5 9 11 13 16 19 22 24 24 22 20 20 20 22 23 25 28 30
25 12 27 30 30 26 28 18 6 11 13 7 20 18 15 8 6 12 17 15 11 10 10 8 5 4 6 10 13 17 20 23 25 24 22 20 20 20 21 22 23 25 28 31
23 20 26 26 31 20 30 18 2 3 4 6 6 9 22 8 10 11 9 16 13 12 12 8 4 6 8 12 16 21 23 23 23 21 21 21 22 22 23 25 28 30 33 36
23 17 31 24 35 31 25 28 8 6 4 4 8 9 5 5 9 13 12 14 15 12 10 6 7 6 10 15 20 21 21 22 22 22 23 24 26 27 29 31 33 36 40 43
21 15 29 25 25 36 21 34 22 2 3 1 6 10 14 14 10 7 13 15 16 10 8 8 8 8 14 19 20 20 21 21 23 24 26 27 29 30 30 33 38 41 44 47
16 11 26 29 21 27 25 30 18 15 3 4 4 8 11 5 3 6 14 16 16 12 9 8 8 12 17 21 18 20 21 23 26 28 30 31 32 32 34 38 41 45 50 51
22 14 26 28 26 31 30 32 22 12 9 4 1 3 4 6 6 5 9 12 12 9 8 9 12 20 23 19 18 21 24 27 30 32 34 34 34 35 39 43 50 56 53 50
23 14 32 26 17 27 30 27 31 17 6 9 5 13 17 10 5 13 13 12 9 8 11 12 19 23 22 17 21 25 28 31 34 36 38 38 38 40 43 49 59 50 47 47
25 11 20 17 21 22 31 32 27 24 22 19 7 6 9 6 7 12 13 11 13 16 16 20 20 17 17 20 24 27 30 33 36 38 39 40 45 47 50 54 53 48 47 46
27 14 20 21 21 29 29 34 31 31 23 19 23 18 12 7 12 14 16 18 19 19 21 22 14 16 19 21 25 29 34 36 37 38 40 44 47 51 57 56 48 47 46 47
23 15 17 19 22 26 34 32 35 36 37 25 29 26 23 15 17 18 19 20 21 23 24 18 17 19 21 23 29 33 36 37 40 43 46 50 51 57 53 47 46 47 47 47
17 8 12 12 18 19 26 29 30 35 37 35 33 21 15 16 16 19 24 26 24 18 20 21 21 21 24 28 30 35 38 39 41 46 49 50 56 52 46 45 45 46 47 49
19 10 10 7 11 10 11 23 23 29 33 33 33 30 27 25 24 20 18 18 18 19 19 19 21 23 27 30 33 37 39 42 45 46 49 56 51 46 44 45 46 47 48 51
24 20 12 5 10 2 12 13 19 21 22 29 30 28 24 22 22 20 19 19 18 18 21 25 26 27 29 31 35 37 39 43 46 51 52 47 44 43 44 45 46 48 51 56
19 20 10 7 14 6 8 13 16 21 22 25 29 27 22 20 18 17 17 18 20 26 29 28 27 27 31 32 33 37 40 46 49 45 42 41 42 43 44 46 48 52 57 60
19 18 16 10 4 7 6 15 18 17 16 19 19 19 19 17 15 14 17 23 29 30 27 26 26 27 29 32 36 38 41 45 41 39 38 40 42 44 45 48 52 55 60 61
21 21 18 15 7 6 9 11 14 14 10 17 20 20 18 15 15 19 26 31 30 28 27 27 28 29 30 33 36 39 41 38 36 37 38 40 42 45 48 51 54 57 59 59
17 15 11 14 7 9 14 16 17 11 10 12 12 12 13 16 22 28 31 30 29 28 28 29 29 29 32 34 37 39 38 36 36 37 39 42 44 46 49 52 54 56 58 58
12 14 8 11 7 10 8 18 17 17 13 13 14 15 19 25 29 30 29 29 28 28 29 28 29 31 34 35 36 36 36 36 36 38 40 43 46 47 51 53 55 57 56 56
16 16 14 13 15 12 10 11 12 13 14 16 20 23 27 30 28 28 28 28 29 29 29 30 32 34 36 36 36 36 36 36 38 40 43 45 47 50 52 53 55 55 55 57
13 13 16 20 20 15 14 15 17 18 19 21 25 28 27 27 26 26 27 30 31 31 31 32 33 34 33 32 34 35 36 38 40 43 45 47 50 51 52 53 54 54 54 54
20 22 24 23 21 19 20 22 23 24 25 25 25 25 25 25 26 28 31 33 33 32 33 33 32 32 31 30 32 35 37 40 43 45 48 50 51 51 53 54 54 54 52 50

GFSCGP_700_spd_009.txt.gz
Wind_Speed
49 42 38 40 36 29 21 22 20 18 14 17 15 21 15 12 14 16 18 17 16 14 13 13 15 13 10 8 7 6 6 4 3 3 4 6 7 10 12 15 17 19 21 22
43 39 41 32 38 30 19 17 20 15 14 16 20 26 18 15 15 20 20 18 16 16 14 13 11 8 7 5 3 3 2 2 4 5 7 9 12 13 15 16 18 20 22 23
49 26 40 33 37 35 29 24 17 13 11 17 23 26 17 12 16 19 24 21 17 16 14 10 10 8 5 3 3 3 4 5 6 8 11 13 15 16 16 17 18 20 21 22
37 20 40 34 36 36 33 27 22 15 13 7 12 9 24 18 17 19 18 18 17 16 13 12 10 7 5 4 4 5 6 8 10 13 16 16 15 15 15 16 18 20 22 24
23 32 40 38 35 33 27 25 20 16 17 17 18 9 10 17 19 18 13 17 17 15 13 11 10 7 5 4 4 7 9 12 16 18 16 15 14 15 17 18 20 22 25 28
17 28 29 37 32 32 25 18 17 13 11 7 19 15 13 3 5 6 14 18 15 13 12 12 9 6 5 4 7 11 15 17 18 18 16 15 16 17 19 20 22 25 28 31
14 23 30 33 32 29 25 19 1 1 6 5 4 9 20 16 13 3 6 14 15 13 12 12 8 7 4 5 10 16 19 19 19 17 17 18 19 21 22 24 26 28 31 35
14 12 29 26 27 25 27 28 9 5 4 2 10 8 4 2 4 6 12 15 16 14 13 11 9 7 5 8 14 20 21 21 20 19 21 22 24 26 29 30 31 34 36 39
23 10 25 21 29 29 26 23 25 2 1 1 6 8 10 12 10 10 11 20 18 15 11 11 9 7 8 12 19 21 22 22 21 23 25 27 29 31 32 32 34 37 39 46
27 8 23 22 19 24 26 26 17 10 4 3 4 7 8 5 7 4 12 19 20 17 12 10 9 9 11 17 22 22 22 23 23 26 28 32 33 33 33 35 39 41 46 49
21 16 19 21 22 29 30 21 17 14 6 3 1 2 3 8 15 7 10 19 19 14 11 10 11 12 15 21 25 22 23 24 26 29 33 35 34 33 36 40 43 48 47 44
25 21 21 31 20 23 26 34 28 12 4 13 2 6 13 19 9 8 14 18 17 15 13 13 14 14 22 22 22 22 26 27 29 33 36 36 35 38 42 46 48 49 46 43
26 14 18 15 21 20 28 28 26 33 18 16 7 5 7 11 4 11 13 14 15 16 17 18 18 21 24 22 22 25 27 29 33 36 37 37 39 43 45 47 52 49 43 42
22 14 20 18 18 25 32 33 33 30 29 22 28 24 20 12 9 10 12 16 19 21 21 20 22 24 21 22 24 26 28 33 35 36 36 39 43 47 48 51 49 45 43 43
21 11 19 21 29 28 33 35 37 38 38 27 33 32 27 25 24 19 19 20 21 21 21 22 25 22 22 24 26 28 31 33 35 36 38 42 46 47 50 48 45 43 43 44
24 18 15 15 19 22 30 37 36 36 37 38 39 37 30 27 25 21 22 21 22 22 24 22 22 22 22 25 27 29 31 32 35 37 41 45 45 47 45 43 42 43 43 45
23 22 16 10 13 16 16 32 32 35 38 37 40 35 31 26 21 18 20 24 26 25 22 22 21 22 25 26 27 29 31 33 36 40 43 44 44 43 41 41 41 43 45 47
24 19 9 8 12 2 12 14 23 27 26 30 35 35 27 29 30 28 25 22 22 21 20 21 25 26 25 25 27 30 32 35 37 40 42 42 40 39 39 40 42 45 47 49
21 18 9 8 16 6 8 15 18 23 26 27 24 27 27 26 25 24 22 21 20 20 21 25 24 22 23 25 27 29 32 35 37 39 40 39 39 38 39 42 45 47 49 51
29 28 20 12 5 6 6 15 15 12 18 19 22 24 22 22 22 21 19 19 19 22 25 22 21 21 22 24 27 30 34 34 36 37 36 37 37 39 43 46 48 49 51 52
24 21 24 20 7 5 9 7 10 10 8 10 18 18 18 19 18 17 17 19 23 23 20 20 20 21 23 25 28 32 34 35 35 35 35 36 39 43 45 48 49 50 51 53
24 18 17 16 8 10 17 14 14 11 10 9 15 17 17 16 15 16 20 22 21 20 20 21 22 24 26 28 31 33 33 33 33 34 35 38 41 45 47 49 50 50 51 53
15 18 16 14 9 10 9 17 20 15 8 7 9 10 12 14 18 21 21 19 19 20 22 24 26 27 28 30 31 31 31 31 32 34 37 40 43 45 48 49 50 51 52 53
15 16 12 11 13 9 8 12 14 12 12 12 12 13 16 19 20 18 18 19 21 24 25 26 27 28 28 29 30 30 31 32 34 36 40 43 44 46 47 48 49 51 51 53
13 13 15 16 15 13 13 14 14 14 14 15 16 18 20 18 17 17 18 21 23 25 26 27 26 26 27 28 29 30 31 33 36 39 42 43 45 46 47 48 50 51 51 49
13 13 14 18 18 16 14 15 17 17 16 18 19 17 16 16 17 19 22 24 25 26 25 25 25 26 26 26 28 30 33 36 39 40 42 44 46 47 49 50 50 49 47 46

GFSCGP_700_spd_012.txt.gz
Wind_Speed
39 49 54 48 36 25 29 24 21 16 18 15 17 22 21 16 17 15 19 18 15 13 12 12 11 12 12 12 9 7 6 5 6 7 8 9 10 13 15 17 20 22 23 24
36 51 51 26 41 28 24 22 21 16 19 18 16 24 22 18 17 18 19 20 16 14 17 17 14 12 9 8 7 6 5 6 7 7 9 11 13 16 18 20 20 21 21 22
47 54 43 30 36 34 23 21 18 14 10 13 17 24 19 19 19 21 21 21 21 17 15 15 13 11 10 10 8 7 7 7 7 9 10 12 15 16 17 17 18 20 21 23
31 32 45 34 39 32 26 19 15 13 8 8 3 7 11 12 13 17 21 20 22 21 18 15 13 12 12 11 9 8 8 8 10 12 14 16 16 16 16 17 18 20 22 25
24 46 38 35 36 34 24 21 18 11 10 11 12 8 10 7 12 16 18 16 20 21 19 16 13 14 13 11 10 8 8 9 12 15 16 15 14 15 16 19 21 24 26 29
23 29 33 33 34 33 17 19 13 9 5 9 16 13 7 6 1 7 16 17 19 20 18 16 16 16 14 11 9 8 9 12 15 17 16 15 15 17 19 21 24 27 29 31
33 21 32 27 35 32 25 22 5 6 5 6 7 9 15 5 7 2 6 15 19 18 17 17 18 16 14 11 9 9 13 17 18 18 16 17 19 21 23 26 27 28 29 32
27 11 34 39 35 27 32 24 6 5 6 5 11 8 3 2 4 12 13 16 20 19 18 19 19 17 14 12 10 12 17 21 21 20 19 21 23 26 29 30 28 29 32 34
21 6 24 34 32 29 24 25 9 3 2 3 6 6 9 9 5 10 12 22 23 20 18 20 19 17 15 13 12 16 20 23 22 22 23 26 28 31 32 31 32 35 37 39
25 8 22 28 27 28 25 27 11 6 5 5 5 5 4 2 6 5 13 19 25 22 21 21 19 16 15 15 15 20 23 24 23 24 26 29 32 35 34 34 36 38 40 42
12 4 16 22 20 27 21 25 13 11 4 3 3 4 11 5 8 3 10 18 25 24 21 20 18 16 16 16 17 22 25 24 25 28 30 33 36 37 37 39 41 43 43 41
19 10 14 21 12 21 21 16 19 12 6 4 1 2 11 7 7 3 7 18 24 23 20 19 18 17 17 17 21 23 25 26 28 30 33 36 38 38 39 42 44 44 41 39
20 9 14 8 10 19 25 23 23 18 16 17 11 4 7 5 4 2 6 15 22 22 21 20 20 20 20 21 24 25 26 28 30 31 35 38 40 40 43 46 44 41 38 39
20 10 19 18 12 19 25 29 28 27 23 16 20 12 14 14 10 5 4 10 18 20 22 23 23 22 22 24 26 26 29 31 31 34 36 38 41 43 44 42 40 39 39 40
16 6 17 15 17 18 25 32 34 33 32 22 24 26 23 21 21 20 15 17 21 23 24 24 22 22 25 26 26 29 31 31 33 36 37 40 42 43 43 41 38 39 40 42
17 9 10 14 16 18 22 26 31 36 32 34 25 28 24 25 23 20 18 21 25 25 24 24 24 26 25 26 28 29 32 33 35 37 39 41 42 43 42 39 40 40 42 44
22 10 10 5 7 14 14 28 29 30 32 35 33 31 26 27 25 24 22 22 24 24 25 26 26 24 25 26 29 31 32 33 36 39 40 41 42 41 39 40 41 43 44 46
30 17 12 2 5 5 9 15 24 29 30 35 37 35 33 28 25 24 23 23 22 25 25 24 24 25 27 30 30 30 31 34 37 39 39 40 40 39 39 40 41 43 46 47
28 24 12 5 13 9 10 16 19 26 29 29 26 32 33 26 23 25 26 26 24 23 23 23 24 26 28 27 27 29 31 34 37 36 38 39 38 38 39 41 43 46 48 48
20 19 14 11 4 5 6 12 10 14 19 17 23 29 25 23 24 27 25 24 22 21 21 22 25 25 23 24 26 28 30 34 34 36 37 37 37 38 40 43 46 47 48 49
25 19 20 16 8 9 15 8 7 9 7 9 15 19 20 21 23 19 20 20 19 20 22 24 22 22 23 24 25 27 30 32 33 35 35 35 37 39 42 45 45 48 49 49
25 17 16 18 10 13 15 13 12 11 10 8 9 13 16 17 18 17 17 18 20 23 22 20 21 22 22 24 25 27 30 31 33 33 33 34 37 40 43 45 47 48 49 51
21 23 18 17 13 15 11 15 17 18 14 8 8 11 14 15 15 15 17 19 20 18 18 20 21 22 23 24 26 28 29 30 30 31 32 35 38 41 44 46 47 48 49 50
21 21 23 21 22 15 14 13 15 13 13 10 11 11 12 13 14 17 17 16 16 17 19 20 22 23 24 25 27 28 29 29 29 30 34 37 40 42 43 45 47 48 50 50
18 21 23 22 17 14 14 14 13 13 11 11 11 12 14 15 16 14 14 15 16 18 20 22 23 24 25 26 27 27 26 27 29 32 36 39 42 43 44 45 47 48 48 49
14 14 16 13 12 11 11 12 14 15 15 15 15 15 16 15 14 14 14 16 18 20 22 23 24 25 26 26 25 25 26 28 31 34 38 40 42 43 45 47 48 49 48 47

GFSCGP_700_spd_015.txt.gz
Wind_Speed
31 34 38 46 45 42 31 28 30 23 23 28 29 28 26 21 23 19 17 17 21 18 15 14 15 15 14 15 15 14 11 9 9 10 10 11 12 14 17 21 22 24 26 27
31 41 41 42 51 35 33 31 29 22 21 21 19 22 24 24 24 21 20 19 23 22 19 17 16 16 14 13 12 11 9 8 8 8 10 12 15 18 20 22 23 25 26 26
37 44 41 39 45 41 34 32 29 27 20 19 16 25 28 28 24 27 23 22 24 22 20 19 19 16 14 13 12 11 10 9 9 9 11 14 17 19 20 20 20 22 23 25
32 42 28 41 49 46 40 30 25 23 13 13 14 9 13 19 27 26 26 29 29 27 24 21 20 17 15 14 13 12 10 9 9 10 13 15 17 17 17 18 20 22 25 27
35 29 37 43 50 41 29 26 23 18 14 8 12 9 18 14 20 20 21 25 29 26 27 23 20 17 16 16 14 12 11 9 9 12 15 17 17 17 17 20 23 25 29 32
29 36 29 45 48 40 22 29 19 12 7 8 17 18 15 18 17 16 22 25 27 28 27 24 20 18 18 17 15 13 11 10 11 14 16 16 15 16 19 22 25 30 32 31
25 42 29 34 31 42 31 36 9 6 5 7 9 16 16 5 12 9 9 19 22 24 25 22 20 21 20 18 16 14 12 11 14 16 19 17 17 19 23 26 30 32 31 32
18 14 31 41 25 38 33 27 13 7 9 12 9 9 9 18 19 19 13 11 20 23 23 21 22 22 21 19 17 15 13 15 17 20 20 19 21 24 28 30 34 35 34 36
16 16 19 29 33 41 28 26 7 5 6 11 11 11 6 10 7 10 17 19 21 23 22 22 24 23 21 20 18 16 16 18 20 23 22 23 26 29 32 35 38 37 38 40
8 10 18 25 36 33 26 21 11 4 7 5 9 9 6 10 5 7 16 17 22 24 23 24 25 24 22 20 19 19 18 20 23 25 24 27 30 32 36 39 41 42 42 43
5 13 13 32 15 32 29 18 9 7 1 3 6 6 12 8 2 5 11 16 19 27 26 23 24 24 21 20 20 20 21 23 26 27 27 30 33 35 39 42 44 44 44 43
15 10 7 14 12 20 21 24 18 12 7 7 4 6 16 5 2 2 5 10 18 25 25 23 24 23 20 20 21 21 23 26 29 29 30 33 35 38 42 45 45 45 44 42
18 3 7 9 13 22 24 16 21 18 9 15 9 6 12 5 2 2 1 5 13 24 27 25 24 22 22 22 22 23 26 28 30 31 33 35 37 41 44 46 46 45 43 40
9 7 7 7 10 19 26 26 22 22 19 17 19 7 12 10 5 3 1 2 8 20 24 24 23 23 24 23 23 26 29 30 31 33 35 37 40 43 45 47 47 46 43 41
6 6 6 6 5 13 18 24 28 27 26 19 18 20 15 9 14 14 11 13 11 14 21 24 24 25 24 24 26 29 30 30 33 35 37 39 42 45 47 47 47 45 43 42
14 3 0 5 9 10 16 22 25 30 30 29 24 23 12 15 16 17 14 14 13 16 22 26 26 24 25 26 28 29 29 32 34 37 40 41 43 46 47 47 45 42 42 43
16 5 4 5 7 7 14 26 26 27 30 28 34 28 23 21 21 17 15 17 19 20 23 26 24 25 28 29 28 29 31 34 37 38 40 42 44 45 46 45 42 42 44 46
23 10 5 2 6 6 8 10 24 28 26 26 29 21 21 23 24 22 20 20 21 20 22 24 25 27 27 27 28 31 34 35 36 38 41 43 43 43 44 42 42 43 46 48
22 16 8 4 8 11 12 13 16 23 24 25 25 23 25 29 29 25 23 22 21 23 23 23 24 24 25 28 30 31 32 33 36 39 42 40 42 42 41 41 42 45 48 49
25 20 15 6 5 4 3 6 8 10 17 14 17 25 30 23 23 26 23 21 22 22 22 22 23 24 26 28 28 29 31 33 36 39 39 39 40 39 40 41 45 47 49 48
26 25 22 17 8 9 15 10 3 8 3 5 9 15 19 21 23 20 14 20 21 20 20 21 23 25 26 26 27 29 31 34 36 36 36 37 37 38 40 43 46 47 47 47
22 18 14 12 6 10 9 9 9 7 6 5 6 8 14 18 18 19 16 16 17 18 20 23 25 24 24 26 28 30 31 33 33 33 34 33 35 38 42 44 45 44 46 48
19 19 18 13 13 10 9 10 12 17 13 10 8 7 10 12 14 15 14 15 18 19 22 23 22 23 25 26 28 29 29 30 30 30 31 33 36 39 41 44 44 45 47 49
19 25 22 15 19 18 16 16 12 12 11 10 8 7 9 11 12 13 14 17 19 20 19 20 21 23 25 25 26 27 27 28 28 30 32 35 37 39 41 43 44 47 49 50
20 19 23 26 25 20 19 20 15 13 12 10 10 11 11 12 13 14 16 16 15 16 17 20 22 23 24 24 25 26 26 26 28 31 32 34 37 40 42 43 45 48 49 51
22 23 23 20 21 20 18 13 13 15 16 14 13 13 13 14 15 15 14 14 15 16 18 20 22 23 23 25 25 25 26 28 29 30 33 36 39 41 43 45 46 47 49 50

GFSCGP_700_spd_018.txt.gz
Wind_Speed
20 26 37 40 37 39 32 29 29 37 24 32 35 36 38 30 25 24 22 17 19 28 19 15 15 16 16 16 16 17 18 16 14 14 13 13 13 14 16 18 20 23 25 27
23 37 40 32 35 36 35 32 34 27 28 29 34 36 29 30 32 25 23 20 22 32 19 17 18 16 16 16 16 15 15 12 11 10 10 10 12 15 17 20 22 23 24 25
34 43 31 31 32 32 37 41 36 30 30 27 28 32 30 29 28 25 29 20 26 32 21 20 20 19 18 17 15 14 13 11 10 9 10 11 14 15 18 19 19 20 21 23
32 34 32 28 38 35 41 45 42 31 32 22 25 5 21 22 34 34 29 28 31 35 24 23 21 20 20 18 17 16 13 12 11 10 10 12 14 15 17 18 18 19 22 26
34 29 37 38 39 41 42 34 46 39 30 23 17 13 25 15 22 27 32 29 35 37 28 24 24 22 21 19 17 16 14 12 10 10 10 11 14 15 16 17 20 23 26 28
33 24 25 39 38 44 41 33 37 40 27 7 21 20 8 19 25 23 26 28 34 35 30 27 26 24 23 21 20 18 15 13 11 10 10 13 16 17 18 20 23 27 29 32
31 34 39 31 32 42 36 39 12 7 3 4 25 18 10 7 25 21 23 25 31 33 29 27 26 26 24 23 21 18 16 14 12 11 13 17 19 18 20 24 27 30 33 36
17 19 34 32 42 26 47 38 7 5 8 6 16 12 8 23 14 19 19 17 25 27 24 24 27 27 25 24 22 19 17 14 13 14 17 21 21 21 24 28 31 34 37 39
9 16 18 18 41 28 26 45 35 11 20 12 10 7 13 16 20 22 23 22 18 18 21 25 27 26 26 25 23 20 18 16 16 17 20 24 23 25 28 31 34 37 40 42
24 12 18 14 23 35 20 39 18 8 7 7 11 21 10 21 19 17 20 21 16 18 22 26 26 26 27 26 22 20 19 19 19 21 23 26 26 28 31 34 36 40 43 45
28 23 9 17 29 30 25 19 16 6 3 4 5 4 15 17 14 13 16 16 16 21 24 25 24 26 28 25 23 20 20 21 22 24 27 29 29 31 34 36 39 43 45 46
32 9 9 14 14 32 29 15 8 2 3 5 4 5 15 14 8 8 12 12 15 20 25 25 24 25 25 24 23 21 21 22 24 27 29 31 32 34 37 40 43 45 47 47
18 11 2 9 7 24 30 25 16 4 3 3 2 7 15 7 8 8 7 8 12 17 24 26 26 24 24 24 23 22 22 23 26 29 32 33 35 37 40 42 44 46 48 47
13 14 11 6 15 28 23 35 23 12 3 1 2 17 14 13 11 8 6 3 1 8 20 24 24 22 23 24 24 23 24 25 29 32 33 35 37 39 41 43 45 47 47 46
7 9 11 5 14 25 24 30 24 23 21 7 8 7 9 7 9 7 4 5 7 5 11 20 23 23 24 24 24 25 26 27 31 32 34 37 39 41 42 44 46 47 47 45
12 10 11 11 10 10 18 24 24 23 20 20 14 10 9 11 9 14 8 8 10 11 12 13 19 24 25 25 25 26 26 29 31 33 36 38 40 42 43 44 46 46 44 42
16 9 8 5 6 10 6 17 19 20 22 26 28 22 15 12 14 17 15 11 11 13 13 15 19 25 26 25 25 26 28 30 32 35 37 38 40 41 43 44 45 43 41 42
25 14 3 2 5 1 2 3 17 25 23 22 24 23 18 23 22 24 18 17 13 16 17 18 20 23 24 24 26 28 28 31 34 36 36 37 40 40 42 43 41 41 42 44
22 13 3 1 4 7 6 8 10 16 23 23 23 18 25 23 21 21 20 19 17 17 18 18 20 20 22 24 26 27 30 32 32 33 35 38 39 40 40 39 39 40 43 45
21 20 9 4 1 2 1 5 3 7 14 15 17 20 23 28 27 25 22 20 18 17 18 18 19 20 22 24 26 29 29 30 30 32 35 37 38 38 38 37 38 40 43 45
25 18 18 12 2 5 11 8 2 6 1 0 8 13 25 27 25 21 17 13 15 16 17 17 18 20 21 24 27 26 27 28 30 32 34 35 36 36 35 35 38 42 44 45
21 20 11 11 5 9 9 9 6 4 1 1 3 3 11 17 19 16 16 11 12 15 16 17 18 20 23 24 23 25 26 28 30 31 33 34 32 32 35 38 41 42 43 44
18 22 16 12 9 4 5 1 3 9 10 10 7 4 6 9 11 12 13 11 12 13 15 17 19 20 20 21 23 25 26 28 29 30 30 29 29 32 36 39 41 42 43 47
18 18 16 15 17 14 11 10 9 10 8 7 7 5 5 7 9 10 11 11 12 14 17 17 17 18 20 22 23 24 25 27 28 27 27 28 32 35 36 37 39 42 45 49
17 17 26 22 16 11 12 13 14 15 12 9 6 6 7 8 9 10 10 12 14 15 15 16 17 18 20 22 23 24 25 25 24 25 27 31 34 35 37 38 40 44 46 49
16 18 19 23 16 18 20 16 13 12 11 9 7 7 9 10 10 11 13 14 14 13 15 17 18 19 21 22 22 22 22 22 24 27 30 33 34 36 38 40 42 43 46 47

GFSCGP_700_spd_021.txt.gz
Wind_Speed
23 31 34 31 32 32 26 23 26 30 23 27 42 44 40 30 25 23 21 21 19 23 21 19 18 16 17 18 19 18 17 18 19 19 16 16 15 15 14 16 16 19 20 22
26 38 30 28 29 32 32 35 37 32 25 22 34 37 34 38 36 30 27 27 25 28 22 22 20 18 16 16 16 15 15 15 14 13 13 13 12 12 13 16 17 18 20 21
34 15 19 30 31 29 36 37 39 36 25 31 29 38 44 37 35 34 34 34 29 31 26 24 22 18 16 16 16 15 15 14 14 14 12 11 12 12 14 16 17 17 18 20
29 32 30 19 34 31 35 35 32 32 24 22 22 13 41 43 39 39 34 31 30 34 30 30 23 20 19 19 18 17 16 15 14 12 11 11 11 12 14 15 15 16 19 22
29 17 26 35 40 26 41 28 28 26 30 34 36 18 34 25 42 45 38 36 35 37 31 32 23 21 21 21 20 18 16 15 13 12 11 9 9 11 14 15 15 17 21 24
33 28 18 25 27 31 30 29 28 22 25 18 41 28 17 31 36 26 28 40 37 38 35 35 29 25 24 23 21 20 19 16 14 12 10 7 9 13 15 16 18 21 24 27
27 31 30 29 23 26 29 25 5 8 8 13 18 27 29 19 24 28 25 38 43 38 36 35 31 28 27 25 23 22 20 18 15 12 9 9 13 16 16 19 23 25 28 30
11 13 34 33 39 31 33 37 15 7 8 9 28 12 21 22 11 27 21 23 34 37 35 32 27 29 29 27 25 23 21 18 15 12 11 12 16 19 20 23 26 29 31 34
8 15 22 21 26 38 36 36 49 8 15 10 10 18 22 26 18 22 26 26 22 20 25 28 29 29 29 27 25 23 22 19 16 14 14 16 19 22 24 26 29 32 34 37
23 21 28 29 27 22 29 34 27 13 5 5 16 12 14 27 27 24 25 26 23 19 20 24 26 29 30 28 26 25 23 20 18 17 18 20 22 25 27 29 31 34 36 39
30 28 20 19 18 32 34 23 27 23 23 4 5 6 15 31 26 25 24 23 21 18 19 23 26 29 28 26 26 25 22 20 19 19 20 23 25 28 29 31 34 36 39 41
31 12 15 25 14 23 30 38 36 19 16 9 8 2 19 23 20 16 15 16 19 18 20 22 25 26 25 25 26 24 22 21 20 21 22 25 28 31 32 34 37 39 41 42
29 14 8 5 10 20 31 40 23 42 21 2 6 8 18 18 18 15 15 17 18 19 21 24 25 24 23 24 25 24 22 21 21 22 25 28 31 33 34 37 39 41 42 43
11 17 18 11 1 19 21 35 27 32 5 7 12 24 20 19 17 16 14 12 10 11 15 22 25 24 22 23 24 24 23 22 22 24 27 31 33 34 37 39 40 41 42 43
16 18 16 17 11 21 15 24 25 25 2 12 22 22 18 19 15 11 9 11 9 8 9 14 20 21 22 23 24 23 22 22 23 26 30 32 33 36 38 39 40 41 42 43
21 18 15 13 11 24 14 13 23 22 18 12 9 8 14 11 10 4 1 4 4 7 8 9 15 20 21 21 21 22 21 22 25 29 31 32 34 37 38 38 39 41 41 40
15 9 10 7 9 16 8 22 22 13 17 13 12 14 15 7 8 7 6 3 4 8 8 9 9 12 16 20 21 21 22 25 27 29 30 32 35 36 36 37 40 40 38 39
10 5 9 6 7 1 2 2 11 18 17 18 20 21 13 9 12 12 12 12 10 7 9 12 14 16 18 20 21 21 22 24 26 29 31 33 34 35 36 37 38 38 37 39
12 13 3 2 5 5 1 3 5 17 18 18 14 13 20 15 11 13 14 14 12 12 11 13 15 15 15 16 17 19 22 25 28 30 31 31 32 34 35 35 35 36 38 39
11 13 11 4 2 2 3 7 1 6 9 9 17 17 17 21 23 20 16 16 15 14 13 12 13 14 15 15 17 20 24 26 27 28 29 30 32 32 32 33 34 37 39 40
21 16 16 13 3 6 8 4 4 4 2 1 9 13 18 22 20 21 19 16 15 16 15 14 14 13 14 16 19 21 24 25 25 27 28 29 30 30 31 32 35 37 39 40
22 16 12 14 4 8 2 5 3 3 4 4 4 5 9 17 19 18 18 18 15 13 13 12 13 14 16 18 20 21 22 23 24 25 26 27 28 29 31 33 35 37 40 42
16 24 15 14 10 3 2 2 2 2 4 4 4 2 6 12 15 15 13 13 11 10 11 11 13 15 17 18 18 20 21 22 24 24 25 25 26 29 32 34 37 38 41 43
14 14 13 15 14 13 10 5 5 3 2 3 3 1 4 6 8 9 9 9 8 8 9 11 14 15 15 16 18 20 21 22 22 23 23 24 27 29 32 34 37 40 42 45
12 12 23 18 13 13 14 11 6 6 7 6 5 3 4 5 6 7 6 6 6 9 11 11 12 14 15 17 19 20 21 21 21 22 23 25 28 31 33 35 38 40 43 46
17 16 16 14 17 16 11 11 11 10 8 7 6 5 6 7 6 5 6 8 10 11 11 11 13 15 17 19 20 20 20 20 20 22 24 27 30 32 34 37 37 39 42 44

GFSCGP_700_spd_024.txt.gz
Wind_Speed
26 27 36 38 36 36 33 25 33 31 22 27 31 38 42 43 43 39 32 30 30 25 23 26 26 23 21 21 24 28 28 27 23 19 19 21 19 17 16 15 15 16 17 19
28 32 31 28 29 33 35 38 37 28 20 25 27 37 36 42 44 37 30 29 24 30 30 25 25 23 20 19 21 21 21 20 19 19 19 18 17 14 13 13 15 17 18 20
35 25 20 31 30 30 33 37 32 27 26 30 31 46 38 37 40 39 39 38 31 32 33 29 25 22 20 19 19 17 17 17 17 17 17 15 13 12 13 13 15 17 18 19
27 28 19 18 31 32 35 32 28 27 18 13 7 17 34 34 36 41 37 43 37 37 38 33 29 24 20 21 20 17 17 17 16 16 15 13 12 12 12 12 15 16 17 19
26 23 32 36 32 24 29 20 21 22 21 22 32 20 35 34 36 38 39 43 39 39 43 39 32 27 24 22 22 19 17 16 15 16 15 13 11 9 9 11 14 16 19 22
38 25 25 27 25 35 25 20 22 23 17 13 45 21 32 39 40 33 34 42 39 39 42 40 35 32 30 24 24 20 18 19 19 16 14 12 9 8 9 11 14 17 21 24
32 36 29 22 18 20 29 23 5 6 9 13 14 23 46 15 32 20 27 31 40 42 43 39 37 34 31 26 25 22 21 20 19 17 14 12 10 9 11 13 16 20 23 26
14 11 36 32 36 27 32 33 9 7 4 7 16 16 29 32 40 24 23 36 37 44 48 40 38 34 32 27 27 24 23 22 19 17 15 13 11 13 15 17 20 23 27 30
11 12 11 28 25 31 24 32 44 10 18 6 11 27 40 38 29 32 29 33 34 43 45 40 37 36 32 27 28 26 25 23 20 18 16 14 14 16 18 21 24 26 29 32
17 12 15 18 22 27 36 25 15 20 6 10 9 15 24 24 38 33 30 34 30 31 42 39 37 35 30 27 29 28 26 23 20 18 17 17 17 18 21 24 27 29 32 35
26 21 10 21 34 37 31 42 23 23 21 5 4 12 29 32 32 32 26 30 25 25 30 34 34 31 28 29 31 28 26 24 21 19 19 19 19 21 24 27 30 31 34 37
28 15 26 39 32 29 30 45 43 19 20 15 5 16 28 31 27 33 25 24 25 25 22 24 26 26 27 30 30 28 27 24 22 21 20 20 22 24 27 30 32 33 36 39
20 15 11 14 15 28 27 34 33 26 18 33 5 12 25 25 28 24 23 25 26 24 23 22 23 24 27 28 29 28 26 25 23 22 21 22 24 27 30 32 33 35 38 40
14 21 21 13 8 13 25 36 30 34 22 32 38 35 24 26 26 24 22 20 21 21 21 20 23 24 25 26 26 26 26 25 23 23 23 25 27 29 32 33 35 38 40 40
22 19 22 28 32 27 29 36 41 42 36 26 11 26 25 23 21 18 19 19 19 19 19 19 22 24 25 26 26 25 25 25 24 24 25 27 29 31 32 34 37 39 39 41
28 26 29 38 14 18 22 32 36 35 44 36 10 11 20 24 21 17 16 16 15 12 11 13 19 23 24 23 22 23 24 25 24 24 26 27 29 30 33 36 37 37 39 39
28 27 13 11 11 16 10 18 26 25 23 27 11 19 20 19 15 10 13 12 8 7 8 9 11 16 19 20 20 22 23 24 24 25 26 27 29 32 34 36 36 37 38 38
12 13 12 7 4 2 6 3 5 7 11 11 12 16 15 12 12 13 13 7 5 3 4 9 12 13 16 19 20 21 22 23 23 24 25 28 31 32 33 34 36 37 36 37
12 10 8 6 6 7 7 7 5 12 14 13 16 17 14 9 12 13 9 6 7 7 8 9 12 13 14 15 17 18 19 20 22 24 26 28 29 31 32 34 35 35 35 37
15 10 8 6 4 2 4 10 2 4 7 10 15 16 14 17 18 15 13 11 10 10 8 9 10 12 13 13 15 16 18 20 22 24 26 27 29 31 32 32 33 34 37 39
13 10 13 12 4 5 4 3 5 4 3 4 10 17 17 16 15 15 13 11 10 11 10 10 11 11 12 13 13 14 17 20 23 24 26 27 28 29 30 30 32 35 38 40
15 11 9 9 4 7 0 2 2 6 8 6 5 11 15 14 15 13 12 12 11 10 11 12 12 11 11 12 14 17 19 21 22 24 25 26 27 28 28 30 33 37 40 41
12 14 8 8 5 5 3 4 6 3 1 4 6 9 12 11 14 13 12 12 12 11 11 11 10 11 12 14 16 18 19 20 21 23 24 25 25 27 29 32 35 37 40 42
15 12 16 13 13 8 9 6 3 3 5 5 4 4 7 11 13 13 13 13 13 11 10 10 10 12 14 16 16 16 18 19 21 22 22 23 25 27 31 34 38 39 41 42
13 10 15 21 11 12 13 8 2 1 0 1 2 6 7 9 11 11 11 11 10 9 9 10 12 13 13 13 14 16 18 19 19 20 21 23 26 29 32 35 38 39 40 44
16 13 14 9 10 11 7 5 4 5 4 3 4 5 8 11 9 11 10 8 7 8 9 9 9 9 10 12 15 16 17 18 19 21 23 26 29 32 35 36 35 37 40 42

GFSCGP_700_spd_027.txt.gz
Wind_Speed
26 32 37 35 32 32 32 22 17 21 19 27 34 42 38 39 45 43 43 43 42 36 29 28 26 27 25 22 22 24 25 28 31 30 27 25 24 22 21 19 17 16 16 17
27 35 32 30 31 36 39 38 37 36 28 26 35 48 43 41 43 46 45 44 41 34 34 31 26 26 24 23 22 23 24 25 25 25 23 23 23 22 20 17 15 15 16 18
30 25 20 28 30 31 32 33 27 29 27 32 33 53 46 42 39 39 46 43 39 34 34 31 31 26 23 21 20 21 19 20 20 21 22 23 23 20 16 14 14 15 17 18
26 31 31 30 24 25 34 30 27 28 22 15 11 14 36 29 38 40 40 44 41 36 36 33 33 30 25 19 17 19 18 18 19 19 21 20 17 15 14 13 14 14 17 18
23 20 22 34 34 24 23 22 15 19 21 25 36 19 23 21 37 41 41 38 42 41 41 37 35 31 29 24 21 19 19 20 20 19 19 18 16 14 13 12 12 14 16 19
31 32 29 29 23 30 23 18 17 15 18 15 26 22 35 33 41 34 33 31 36 40 42 41 39 35 32 27 24 20 20 21 20 19 18 16 15 13 12 11 11 14 17 20
29 33 37 34 29 27 29 23 4 7 8 8 1 20 46 15 23 34 26 23 31 37 41 45 43 40 36 31 25 22 22 22 21 20 18 17 15 14 11 11 13 16 19 23
15 13 33 34 37 33 34 35 8 6 5 4 21 18 46 45 45 43 26 23 28 38 42 45 43 36 33 31 27 24 22 24 24 21 20 17 16 14 13 13 16 18 22 25
10 16 21 21 28 36 20 33 40 11 12 4 10 28 34 37 44 37 32 27 24 35 36 40 38 33 33 30 27 24 23 26 25 22 20 19 17 16 15 17 19 22 25 28
14 17 21 16 17 31 29 18 10 18 5 6 13 21 24 19 18 32 35 29 28 29 31 34 37 35 34 32 29 25 26 27 25 23 22 21 19 18 18 19 22 25 28 32
21 17 9 15 28 33 34 33 18 15 18 4 5 13 34 37 39 32 20 31 29 31 30 33 35 36 34 34 29 26 29 29 27 24 23 22 21 20 21 23 25 28 31 34
21 15 24 36 29 27 35 38 39 19 13 23 25 34 25 28 25 29 28 26 25 26 19 20 28 32 34 32 28 28 30 29 27 26 24 23 22 22 24 26 28 31 34 36
15 13 10 10 19 33 37 40 40 44 22 23 10 30 41 14 16 23 26 18 22 24 21 20 28 32 31 29 27 29 31 30 28 26 25 24 23 25 26 28 31 33 36 38
26 25 23 14 16 7 22 32 36 41 34 32 40 50 43 24 15 19 24 22 21 20 20 21 26 28 27 26 26 29 30 29 28 27 26 26 27 27 28 30 33 36 38 39
28 29 30 35 38 33 33 22 27 42 37 32 33 32 38 27 25 17 23 19 19 20 20 21 24 24 23 24 26 28 29 28 27 27 28 28 28 29 30 32 35 37 38 40
26 33 32 40 42 46 38 28 27 34 36 44 37 34 27 3 15 17 14 19 20 21 22 22 21 20 20 22 24 25 26 27 28 29 29 28 29 30 31 34 36 37 38 40
24 28 15 19 11 1 9 26 33 37 37 39 33 21 5 6 14 15 19 18 16 16 16 16 15 17 19 20 21 22 24 26 27 27 28 28 28 30 32 34 35 37 38 40
25 18 12 13 6 2 11 8 22 36 42 40 30 14 10 16 15 20 20 17 16 15 14 13 13 16 19 20 21 22 23 24 24 25 26 26 29 30 33 33 35 37 38 38
16 16 9 8 9 3 7 9 1 11 7 14 16 15 8 13 16 21 20 17 16 15 14 12 12 13 15 17 18 18 19 20 21 22 24 26 28 30 31 33 35 36 36 37
12 20 11 11 5 3 9 10 4 5 3 6 7 8 14 14 18 19 12 12 15 17 15 13 13 14 14 14 15 16 17 18 20 22 23 26 28 29 31 33 35 35 35 37
10 7 13 10 5 5 8 7 6 4 4 7 17 21 18 14 14 13 13 11 11 13 13 12 12 11 11 12 13 14 15 17 19 22 24 25 27 29 31 33 33 33 35 38
8 5 5 6 4 3 4 2 5 8 7 4 8 16 20 14 10 13 12 11 12 12 11 11 11 12 12 12 12 13 15 18 19 21 23 25 27 29 30 30 32 35 37 40
8 10 3 6 2 3 3 4 5 2 4 5 6 10 13 12 12 9 9 10 12 12 11 12 12 12 11 12 13 14 16 17 19 21 24 26 28 28 28 30 32 35 39 42
8 11 10 7 6 6 3 5 5 5 6 7 7 8 11 12 12 10 10 10 12 11 11 10 10 10 11 11 13 14 15 17 20 23 24 25 25 26 28 31 35 38 40 42
12 6 5 9 7 7 7 4 3 3 3 3 3 6 7 8 9 8 8 8 9 9 9 9 9 9 10 11 12 14 16 19 21 22 22 23 24 26 30 33 36 39 41 44
12 12 9 7 5 11 4 8 4 2 2 2 4 4 8 10 7 9 10 10 9 8 8 8 9 9 9 10 13 15 17 18 19 19 20 22 25 29 32 34 36 39 41 42

GFSCGP_700_spd_030.txt.gz
Wind_Speed
24 27 31 28 25 27 25 22 22 20 16 24 32 41 43 43 43 47 46 42 46 50 49 47 41 36 32 29 27 26 24 21 25 29 31 30 29 27 24 21 21 18 19 17
25 32 27 26 28 28 29 30 33 36 34 35 43 55 48 45 46 46 47 45 45 44 44 45 40 35 29 25 27 26 23 20 21 24 24 25 25 26 24 21 20 19 18 17
25 21 8 20 28 30 32 34 34 35 31 33 35 58 50 45 45 42 44 45 42 45 43 38 36 32 28 26 26 24 21 19 20 21 23 25 26 25 24 21 19 17 15 15
21 26 29 29 28 22 31 28 26 27 23 14 9 15 39 37 33 30 38 40 40 40 41 40 38 35 31 27 23 20 19 18 18 20 20 21 21 22 20 20 16 14 14 14
20 16 11 25 33 27 25 23 20 16 20 25 28 17 22 22 35 35 32 33 35 34 36 39 39 36 32 29 24 19 17 17 18 18 19 20 21 21 19 17 16 13 13 14
28 27 28 24 19 19 27 19 18 18 19 15 26 21 41 34 42 43 27 21 29 30 31 37 40 38 33 33 29 23 19 17 18 19 20 20 20 19 17 15 13 13 13 15
24 29 33 31 27 26 20 15 4 7 8 8 6 21 46 13 10 18 16 28 24 28 30 39 43 41 37 34 30 23 20 17 19 20 19 19 19 19 18 17 15 13 14 16
9 10 15 25 29 25 26 32 10 5 4 4 17 13 31 40 39 39 40 30 20 21 31 33 40 43 40 36 30 24 21 20 20 20 20 20 21 21 19 17 15 15 16 19
8 11 15 20 17 21 20 30 35 20 17 5 10 30 40 37 35 32 32 34 25 27 20 28 36 38 40 36 31 26 23 22 21 22 22 21 21 21 19 17 17 18 20 23
12 16 16 21 17 22 31 19 11 21 5 5 10 22 30 23 16 10 17 22 28 24 25 25 33 34 37 34 29 27 25 24 24 25 24 23 23 22 20 19 19 21 23 26
17 16 9 8 17 27 27 34 20 12 10 4 4 10 24 9 8 16 29 29 18 23 26 21 21 28 35 30 30 27 25 25 26 26 25 24 24 23 22 22 22 25 26 29
14 13 19 30 29 27 29 35 39 21 9 15 18 36 40 31 21 22 25 23 20 16 25 22 25 27 35 32 30 27 26 26 27 27 26 25 25 25 24 24 26 27 29 31
8 11 10 8 10 28 32 41 42 44 28 26 8 31 28 25 15 24 29 15 15 13 18 21 25 33 35 34 32 27 26 27 28 29 27 27 27 26 25 26 27 29 31 34
20 23 24 21 27 18 18 32 40 45 30 32 36 46 45 40 30 29 31 21 11 10 20 20 25 30 30 30 29 25 25 27 29 28 28 28 27 26 27 28 29 31 34 36
19 28 33 43 45 44 45 33 29 36 52 29 33 32 40 33 25 19 27 15 11 9 20 21 19 23 26 26 24 24 25 27 28 28 27 27 27 28 28 29 31 33 35 38
24 32 32 44 45 39 42 44 43 41 34 39 40 42 29 20 24 21 7 6 9 10 18 19 19 19 20 20 20 22 25 26 26 26 26 27 27 28 29 30 32 34 36 40
28 27 20 23 29 31 10 16 24 32 28 29 36 20 23 18 4 3 6 12 13 13 13 16 16 15 15 15 18 21 23 24 24 25 26 27 27 28 30 31 33 34 37 39
29 29 18 19 22 4 19 25 7 19 23 22 24 20 20 7 6 13 13 17 16 16 17 16 15 14 15 17 19 21 21 22 22 24 25 26 27 28 28 30 32 35 37 38
20 24 10 7 15 15 20 23 19 12 4 11 8 2 11 3 11 17 20 20 18 17 17 15 13 14 16 18 19 19 19 20 21 22 23 24 24 25 27 30 32 35 36 37
8 12 18 11 5 4 18 17 14 14 16 12 14 14 12 17 22 16 18 20 19 19 19 16 16 16 17 18 17 17 17 17 18 19 19 20 22 24 27 30 32 34 35 36
5 10 17 11 5 7 14 11 11 8 5 3 8 8 9 12 15 16 14 14 16 17 17 17 15 13 12 13 13 14 14 15 14 15 17 20 22 25 28 30 32 33 33 36
5 3 4 4 5 4 11 5 5 6 6 2 6 11 10 9 5 10 12 12 13 12 10 10 10 11 12 12 12 11 11 11 13 15 18 21 24 26 28 30 30 32 35 37
5 8 4 5 2 4 7 5 5 6 8 7 4 8 14 11 10 13 13 11 10 10 9 10 10 10 10 10 9 9 10 12 14 17 20 22 24 26 27 28 30 33 36 39
8 9 10 6 3 3 1 4 6 6 8 9 8 10 14 12 13 13 12 11 12 12 11 9 9 9 9 8 8 9 11 14 16 19 21 22 24 25 26 28 31 34 37 39
11 9 4 7 4 3 4 3 4 5 6 7 6 9 12 12 11 10 10 11 12 10 10 10 9 8 7 7 8 10 12 15 17 19 21 22 23 24 27 30 32 35 38 41
11 10 8 5 7 4 3 6 2 1 3 3 6 5 11 13 8 10 11 12 11 10 9 7 6 6 6 7 9 11 14 16 18 19 20 21 23 25 28 30 32 36 38 40

GFSCGP_700_spd_033.txt.gz
Wind_Speed
21 24 26 21 20 21 23 20 20 20 18 28 35 44 40 35 39 42 41 41 41 43 42 49 49 48 45 41 36 34 29 28 29 31 34 33 31 29 28 25 24 21 20 16
21 26 22 22 22 23 24 27 30 28 27 29 39 54 48 44 44 43 42 43 42 42 39 44 48 50 47 43 37 35 27 27 28 28 27 27 27 28 27 26 22 18 25 18
23 15 6 12 19 25 28 31 32 34 31 33 38 60 49 43 42 42 41 41 41 41 42 42 43 47 46 43 35 31 28 27 28 26 26 25 26 28 27 25 22 17 24 19
18 22 25 24 24 19 27 26 24 23 19 12 11 17 34 40 40 34 29 26 36 35 37 38 42 44 43 41 34 32 30 27 27 24 24 23 22 23 25 22 21 19 19 18
10 7 7 12 10 14 24 23 20 22 20 23 22 13 32 19 28 28 24 20 28 26 29 31 35 42 38 37 33 33 29 26 24 22 22 21 21 23 23 23 22 24 18 15
21 22 23 19 14 17 15 18 19 20 21 14 25 20 45 26 30 23 21 19 25 21 24 26 28 37 40 39 36 35 29 23 21 20 21 20 20 23 22 25 20 21 17 14
18 21 23 24 24 22 22 10 3 6 8 8 11 18 43 22 16 29 26 28 12 18 22 24 28 35 40 42 38 36 31 23 20 19 21 22 22 22 21 24 18 18 15 14
7 7 11 14 17 16 21 28 11 6 5 5 16 13 31 35 31 35 31 30 28 20 17 20 28 31 38 41 38 37 32 24 21 19 21 23 24 22 24 23 22 18 16 16
7 8 9 9 10 12 13 27 26 25 28 16 21 36 42 46 42 31 26 18 23 23 20 21 27 29 38 41 37 33 32 27 23 20 22 23 23 26 27 24 21 19 18 18
10 10 9 10 17 22 28 14 10 20 5 9 8 15 26 32 13 20 23 24 17 16 22 22 23 24 33 43 39 35 32 28 25 22 22 23 24 28 24 23 22 20 19 21
17 13 9 16 15 21 24 32 25 22 19 6 9 16 25 28 16 10 9 16 15 14 21 25 28 24 30 37 40 37 34 31 27 24 22 25 25 25 24 23 22 21 22 23
12 8 15 30 31 28 28 31 36 21 16 15 16 40 23 23 17 24 36 31 26 13 20 29 26 24 29 34 36 37 32 30 27 24 24 26 26 25 24 24 23 23 24 26
8 10 8 12 10 17 29 36 44 44 35 30 8 24 9 5 9 14 16 25 22 18 17 26 28 27 28 35 37 34 32 28 27 25 25 27 27 26 25 24 24 25 26 28
17 21 24 20 31 26 24 34 40 43 31 34 42 54 47 35 36 30 33 26 23 14 16 27 30 29 29 37 36 32 31 26 26 24 26 27 26 25 24 24 26 27 28 30
17 26 31 39 42 45 49 51 47 43 48 33 40 31 38 27 22 23 18 20 22 9 16 23 25 31 34 37 34 31 26 24 25 25 27 26 25 25 25 26 26 27 30 32
19 26 28 45 37 31 38 32 34 38 45 41 40 42 21 24 20 21 17 15 6 10 18 21 24 29 32 31 28 26 23 24 25 24 25 24 24 25 26 26 27 29 31 33
15 19 21 26 32 41 12 28 26 17 26 31 34 8 11 12 13 8 3 10 12 17 22 26 27 28 27 24 21 21 21 22 22 23 22 22 24 24 25 27 28 30 31 33
23 27 24 24 28 4 25 27 24 12 6 10 15 9 10 2 6 7 10 19 19 22 26 27 26 25 22 20 20 20 21 21 20 20 20 21 23 24 25 27 28 29 31 35
26 26 15 7 15 22 12 30 25 18 19 11 3 10 14 14 12 10 16 20 24 21 24 23 22 20 18 18 19 19 19 19 18 18 20 22 23 23 24 24 27 29 32 34
3 10 20 13 6 4 15 23 15 8 19 16 17 15 15 16 17 19 22 24 26 25 22 20 19 18 17 17 17 17 16 15 16 18 19 19 19 20 22 24 27 29 31 32
3 8 17 17 7 11 14 18 10 12 8 7 10 12 14 18 20 20 20 20 21 20 20 19 16 14 15 16 15 15 15 15 14 14 15 16 17 20 22 25 27 28 30 32
6 6 4 4 5 7 15 9 12 11 9 4 6 11 19 17 17 16 11 13 16 12 15 16 15 15 15 14 13 12 11 11 12 12 13 15 18 20 22 24 27 28 30 32
5 8 3 5 6 8 10 9 11 12 13 8 8 16 13 11 10 13 10 12 13 12 11 12 13 11 12 12 11 9 9 9 10 12 14 17 18 20 23 24 26 28 31 34
5 6 8 7 5 3 2 4 7 9 12 10 8 14 14 12 11 18 14 11 11 11 10 9 9 9 8 8 9 8 8 9 11 13 15 17 19 21 21 23 26 30 33 36
13 11 6 6 5 5 4 1 5 7 10 12 8 10 10 11 11 11 11 11 10 9 9 9 9 9 8 7 7 7 9 10 11 13 15 17 18 20 22 25 28 31 35 37
14 10 9 5 6 2 4 3 1 3 3 4 7 5 8 12 8 10 10 11 10 9 9 9 9 8 7 7 8 8 8 10 12 13 15 16 18 21 24 26 30 33 35 38

GFSCGP_700_spd_036.txt.gz
Wind_Speed
20 20 21 17 19 17 15 12 15 15 16 26 32 36 34 36 39 40 39 41 40 40 41 44 54 55 55 52 48 44 40 36 32 32 33 35 34 33 33 33 31 27 25 21
18 20 15 18 19 20 19 20 22 21 18 21 28 49 41 43 43 41 41 41 41 40 41 41 43 53 55 55 53 49 43 40 34 32 33 34 36 35 34 34 32 29 22 21
17 11 6 11 18 19 20 22 21 22 22 25 30 50 26 15 23 27 32 35 37 39 41 40 40 47 53 56 54 50 45 40 35 33 33 32 32 32 33 34 32 28 22 21
14 20 22 21 19 19 18 17 18 16 12 11 6 18 31 27 25 26 28 27 27 25 29 33 37 43 49 53 52 49 46 42 35 33 33 31 30 30 32 33 29 26 24 16
9 8 8 17 12 11 13 13 10 11 16 21 22 12 33 17 23 25 28 30 30 19 23 27 31 37 44 46 47 47 45 40 34 34 33 31 30 31 29 29 29 28 26 23
18 18 17 15 11 12 13 12 11 13 12 11 25 24 38 27 22 16 3 3 11 19 23 22 27 35 40 46 45 43 41 37 35 35 33 32 29 26 27 30 27 23 24 25
13 21 21 20 17 17 15 10 3 4 7 8 4 15 39 27 19 21 30 28 22 20 21 19 26 31 37 44 46 42 39 37 36 34 32 29 27 25 26 29 24 29 21 24
6 5 14 12 15 7 15 19 8 6 6 9 4 15 21 20 17 23 32 32 29 27 24 20 23 27 34 39 44 43 39 37 35 32 30 27 27 27 29 24 26 27 24 20
7 6 10 9 7 13 11 21 19 25 31 22 19 35 41 34 29 29 25 23 23 11 21 26 24 25 32 36 42 43 39 37 36 32 27 26 25 25 25 22 26 27 24 22
7 7 11 17 17 20 20 9 7 13 6 10 16 29 25 24 18 15 15 20 15 17 15 22 27 26 31 33 39 43 40 37 36 32 28 24 24 26 23 28 27 24 23 22
16 14 5 13 15 16 20 28 22 16 17 6 14 13 10 16 13 16 17 18 17 19 17 18 26 28 30 31 39 42 40 38 35 32 27 24 24 24 28 28 30 26 24 24
16 9 13 19 18 19 19 23 24 20 17 24 33 44 20 20 20 19 17 21 28 24 18 19 28 29 30 32 39 44 40 37 34 31 27 25 23 25 25 31 27 25 25 25
14 10 6 6 3 6 18 25 34 41 39 37 15 27 11 8 14 13 16 18 21 22 18 17 30 31 33 32 39 45 42 37 34 30 27 25 22 27 28 27 25 25 25 26
9 12 14 15 22 21 28 41 41 37 36 43 50 56 42 29 27 29 30 28 28 19 19 17 29 34 33 33 38 43 41 38 33 29 26 23 23 27 26 26 25 25 26 27
16 18 21 29 34 39 39 42 45 43 50 39 60 35 41 29 26 24 23 21 20 16 19 19 28 33 32 34 38 39 39 35 29 26 23 22 24 24 25 25 25 25 26 28
16 18 21 35 25 20 36 32 22 26 23 31 41 46 24 19 13 16 18 16 15 15 14 21 31 35 31 31 36 37 34 29 25 22 24 22 22 23 24 24 24 25 27 30
19 20 14 15 23 36 9 23 26 21 16 16 15 8 9 14 15 16 11 15 19 14 18 26 32 35 33 30 33 31 28 24 22 26 22 22 23 25 23 23 24 26 28 31
15 14 16 18 20 4 12 25 25 18 15 5 4 6 8 6 5 6 6 10 12 17 22 24 27 30 30 30 28 25 24 22 22 22 23 23 22 21 22 23 24 26 29 30
21 22 11 6 9 21 11 28 25 15 18 11 11 12 12 11 9 12 14 17 20 24 28 31 33 32 30 27 25 22 21 23 21 21 19 19 20 21 22 23 24 26 27 30
9 20 28 10 4 4 11 20 18 12 14 15 12 14 17 14 11 19 18 23 25 31 30 30 31 29 26 25 22 20 19 19 18 18 18 19 20 20 20 21 23 25 27 29
6 6 20 22 9 13 10 21 13 6 13 13 12 14 21 16 16 20 20 20 23 23 25 25 23 21 20 18 19 18 17 17 17 17 17 17 17 17 18 20 22 25 27 28
6 5 8 7 7 6 13 13 13 14 12 2 11 12 17 19 17 19 22 20 19 19 19 19 17 17 17 16 16 17 16 15 14 14 14 14 13 15 18 20 23 24 26 28
6 10 4 7 6 12 11 8 11 14 12 5 12 11 12 14 15 13 14 15 16 16 17 18 16 15 16 16 15 12 11 11 11 10 11 12 13 16 18 21 23 24 26 29
7 7 10 12 6 9 6 6 8 12 11 8 6 7 7 4 6 9 11 11 14 15 14 15 16 14 13 14 14 14 11 10 9 8 10 12 15 17 19 21 23 25 28 31
12 12 9 10 8 7 4 2 4 9 11 11 9 10 8 7 14 12 11 12 12 13 14 14 13 12 10 9 9 8 7 6 7 9 11 14 16 17 19 21 24 27 30 33
16 16 16 8 7 5 4 4 4 7 6 5 8 5 9 11 12 13 13 13 13 12 12 12 12 10 8 7 5 4 5 6 9 11 13 14 15 17 20 23 26 29 32 35

GFSCGP_700_spd_039.txt.gz
Wind_Speed
19 16 20 18 19 19 12 10 13 14 14 22 27 32 29 28 33 36 35 35 37 37 34 37 41 52 59 58 54 51 49 45 40 37 35 34 34 36 36 36 33 33 32 30
17 23 17 14 15 17 16 17 18 19 18 20 24 41 35 37 39 38 38 39 38 37 38 37 39 44 49 58 60 58 54 51 47 43 38 35 39 37 36 36 32 35 32 30
13 7 14 20 16 16 17 18 17 18 19 24 29 45 20 14 19 22 26 31 32 34 38 38 39 42 44 49 58 61 59 56 52 48 43 42 39 36 35 34 35 35 33 30
16 18 17 13 15 13 13 12 14 15 12 9 3 17 25 25 25 24 24 23 24 27 30 32 42 41 42 43 48 58 61 62 56 52 48 45 38 34 33 32 32 33 30 32
8 11 16 15 13 11 9 7 7 9 13 20 22 14 32 13 20 20 19 21 21 22 23 25 32 34 40 43 47 54 58 60 57 54 51 43 39 37 34 32 31 32 33 31
14 13 11 8 8 12 10 6 10 10 10 10 22 25 36 14 12 11 12 17 11 8 16 19 29 32 37 44 47 52 53 52 55 55 48 41 41 37 33 32 31 31 33 31
14 21 14 16 11 11 12 6 2 5 6 8 4 14 32 16 17 19 14 16 19 23 24 21 22 30 34 38 46 53 49 49 51 48 44 39 41 34 32 32 28 30 32 29
9 6 17 16 18 6 15 14 7 5 7 12 9 13 16 12 13 14 19 24 23 25 27 37 28 29 33 36 40 47 47 47 45 44 41 43 38 33 32 31 31 30 28 28
6 4 9 10 7 15 7 17 13 19 25 17 16 29 33 29 27 20 21 23 25 21 19 24 31 30 30 32 37 40 43 46 42 40 42 40 33 32 30 31 32 30 27 27
6 3 6 10 11 14 14 4 5 10 5 10 12 27 25 24 22 18 21 17 16 16 15 21 21 26 31 28 31 35 40 45 42 41 40 35 31 29 29 30 30 24 25 25
13 7 4 9 14 14 18 23 14 12 12 6 12 12 9 12 16 17 15 18 18 15 19 21 23 28 29 29 30 35 40 45 45 41 36 32 29 27 26 27 25 23 28 27
14 6 9 15 12 10 17 18 21 14 11 16 23 41 37 32 27 25 21 16 13 16 20 28 21 24 27 29 31 35 41 45 44 38 34 31 28 26 25 29 24 30 25 28
15 7 4 1 2 14 19 20 27 33 36 35 21 32 20 28 21 20 21 21 19 22 23 24 22 20 25 29 32 35 40 44 40 34 33 30 26 24 26 23 26 27 31 25
11 10 12 12 11 14 18 24 29 30 24 39 46 57 51 46 42 39 33 29 34 23 28 27 22 18 26 30 33 33 39 40 36 33 31 28 24 24 23 26 27 24 26 27
16 16 17 24 24 24 29 29 32 37 44 38 57 47 42 35 27 29 26 17 16 19 26 24 21 16 27 32 31 31 36 38 34 32 29 26 24 22 18 28 26 26 25 25
16 12 13 27 15 16 26 25 22 21 22 27 28 33 12 15 11 14 13 15 18 24 25 20 17 18 29 31 28 29 34 35 33 31 27 24 22 21 26 24 24 22 23 28
14 12 8 9 14 29 10 14 23 22 13 19 20 12 13 14 17 20 17 17 19 19 19 15 17 20 26 29 28 30 33 34 30 25 22 23 25 23 22 20 21 24 27 27
11 11 9 15 19 3 5 17 25 23 11 13 12 11 11 13 14 14 15 12 16 16 16 17 19 23 26 27 28 28 27 27 25 25 21 27 24 22 17 20 20 22 25 27
18 13 7 5 10 21 4 14 29 18 20 6 9 4 4 4 7 5 3 2 6 11 14 16 19 23 26 27 28 29 26 26 26 26 26 25 14 14 15 19 21 23 26 28
16 18 21 8 6 4 6 20 24 16 8 12 17 2 8 3 4 9 10 9 10 13 18 23 27 29 30 29 27 25 26 25 23 22 11 11 13 15 17 19 21 24 25 26
10 15 21 23 10 12 13 22 16 11 14 18 9 10 10 10 10 16 24 22 27 26 28 29 29 29 25 23 21 19 17 14 11 11 11 12 14 16 18 19 20 22 23 25
8 6 7 9 7 8 10 16 14 19 15 9 1 9 12 13 12 11 17 18 20 21 20 19 19 18 17 15 13 12 12 12 12 12 13 13 14 15 16 17 19 21 24 25
7 10 4 8 7 11 14 12 12 17 12 4 2 3 4 11 11 10 12 12 16 18 19 19 17 17 16 16 14 11 11 11 10 10 10 11 11 14 16 18 20 21 23 25
9 12 12 9 3 11 11 8 7 9 11 6 6 4 1 4 6 5 8 7 11 11 11 12 12 10 12 13 12 11 8 7 8 9 9 10 13 14 17 18 19 21 24 27
9 12 9 15 13 9 5 5 5 6 7 7 2 3 3 4 4 5 8 7 8 9 9 10 11 10 8 9 10 9 10 8 6 7 9 11 13 15 16 18 21 24 26 29
19 15 14 8 13 9 7 5 1 4 8 3 1 2 3 3 10 7 8 10 10 10 9 9 11 9 8 7 7 5 5 5 6 8 10 12 13 15 17 20 22 25 28 32

GFSCGP_700_spd_042.txt.gz
Wind_Speed
21 18 22 20 17 18 16 12 12 11 10 18 24 34 34 31 33 34 35 36 34 32 31 33 35 38 46 51 47 44 51 53 48 42 40 39 35 35 35 33 32 31 26 29
18 22 17 11 14 17 18 17 18 19 17 21 28 38 35 32 33 33 32 33 33 33 32 31 34 36 38 45 55 52 48 52 55 50 45 40 39 38 35 34 33 31 28 29
13 4 7 19 14 18 17 16 15 18 20 26 27 39 11 6 13 13 18 20 24 27 30 33 37 38 40 40 45 59 59 57 54 54 50 46 45 42 38 36 32 31 28 29
12 12 10 8 18 14 10 11 13 14 11 6 4 12 30 25 25 27 29 25 26 27 28 31 33 37 42 41 42 43 57 63 56 56 56 52 50 47 41 37 33 30 28 29
9 12 15 13 13 12 11 10 13 10 11 17 17 10 29 24 28 27 21 20 20 17 25 26 23 28 34 42 40 41 42 49 54 56 61 57 53 50 44 40 36 33 29 29
12 8 11 13 10 14 11 10 11 9 8 7 14 20 23 12 2 5 4 6 14 21 25 25 33 35 32 36 44 46 44 42 48 52 59 60 55 51 47 42 37 33 30 30
18 18 14 14 13 11 12 5 2 4 4 7 0 17 24 12 13 21 23 25 17 23 20 22 28 29 25 30 36 40 48 45 46 53 55 55 56 54 48 42 37 33 32 31
12 5 21 14 22 8 14 11 5 5 2 4 14 11 12 13 15 16 16 24 23 30 34 35 34 35 32 33 33 36 47 48 48 52 48 44 51 50 48 42 37 34 32 30
9 5 7 11 8 16 8 17 3 6 12 8 10 17 27 19 19 18 21 24 22 23 25 25 28 34 32 30 34 32 36 49 52 49 40 45 47 41 39 37 36 32 29 29
6 3 7 11 10 15 9 5 4 5 2 5 7 20 20 16 13 10 13 14 15 21 23 27 33 35 22 22 24 31 31 32 43 42 43 46 41 37 37 35 33 30 29 31
8 8 6 13 12 15 20 16 8 5 7 3 5 5 6 17 24 27 33 40 32 18 22 27 32 29 26 25 20 27 27 29 36 39 45 40 36 35 33 32 30 28 29 27
13 6 8 15 8 4 13 12 15 8 6 12 14 22 29 21 23 31 37 27 25 25 21 19 29 26 25 22 20 24 26 27 35 40 41 34 32 31 31 29 29 28 27 27
16 7 3 5 4 14 14 15 23 26 29 26 13 17 19 40 49 47 46 27 26 27 27 23 28 24 21 21 19 22 24 31 34 34 33 33 31 31 30 29 25 29 25 26
10 8 8 5 5 5 12 17 20 25 21 29 43 57 58 50 46 38 36 32 31 29 41 33 27 22 22 21 19 25 27 34 26 29 31 31 29 29 28 25 22 25 24 33
14 10 11 18 19 17 20 24 23 28 33 33 47 46 46 35 25 27 16 19 21 16 12 22 26 24 20 20 26 25 24 24 22 28 30 28 28 27 24 22 25 26 27 28
16 7 9 18 8 6 17 20 18 18 22 29 31 39 29 22 23 25 18 20 17 16 18 24 25 18 19 24 24 17 20 21 26 28 27 28 28 24 24 24 26 26 34 24
9 4 7 6 8 16 11 4 13 22 23 24 25 30 25 24 26 29 25 18 19 18 21 22 21 19 21 19 18 19 18 22 26 27 26 24 25 25 23 23 30 24 13 18
7 7 7 10 10 2 1 14 14 23 18 13 21 23 19 20 23 23 22 17 10 16 21 15 15 16 16 19 20 21 21 24 25 26 24 25 23 24 32 34 23 13 16 20
12 10 4 3 8 15 5 6 22 23 14 21 22 17 17 17 20 16 9 11 6 4 10 12 12 13 18 20 22 23 22 28 24 23 22 28 33 32 30 16 8 12 15 18
18 16 12 2 3 3 1 15 25 18 6 24 22 13 13 13 19 11 4 7 4 2 6 7 12 17 19 21 25 30 27 24 31 23 26 27 24 11 5 6 8 13 19 22
18 18 22 20 7 11 11 14 19 9 14 27 14 11 13 12 19 22 14 10 12 13 11 12 18 20 20 25 28 29 24 27 25 16 10 8 4 2 3 9 12 14 17 21
14 11 8 11 7 8 10 17 17 21 21 18 6 10 10 12 14 15 17 19 20 17 15 19 16 18 17 15 18 14 14 12 8 6 5 3 1 4 6 9 13 17 19 21
8 8 5 8 3 9 11 17 17 17 15 9 3 7 13 11 9 16 10 11 13 16 18 18 16 15 19 18 16 10 9 8 7 6 3 3 6 7 10 13 16 18 20 22
9 11 12 6 3 7 13 10 9 11 12 8 3 2 6 11 8 4 8 11 13 13 14 14 12 11 10 10 10 10 9 8 6 4 4 5 8 10 13 16 17 18 21 23
13 10 8 12 11 7 8 9 5 6 11 8 5 5 8 9 4 6 6 6 6 9 9 9 10 9 7 8 6 4 2 1 1 3 6 8 11 13 14 15 17 19 22 25
19 19 16 11 8 11 12 9 5 4 7 9 7 4 6 6 5 3 2 4 5 5 5 6 7 7 6 5 4 2 2 1 4 6 8 10 11 12 14 16 19 22 25 28

GFSCGP_700_spd_045.txt.gz
Wind_Speed
21 25 27 22 23 22 17 9 13 16 7 16 21 28 30 29 30 33 32 34 32 29 25 27 30 34 39 43 46 45 42 42 42 46 45 40 38 37 34 34 31 26 25 21
22 20 17 13 12 9 13 18 19 19 17 19 29 39 37 34 32 30 25 29 29 27 28 30 32 34 35 37 41 48 46 43 45 45 48 46 41 40 36 35 33 28 25 23
24 15 17 16 16 16 20 21 20 19 22 24 31 42 29 17 17 14 12 14 17 20 24 27 30 34 36 39 40 43 49 46 44 47 47 51 48 42 40 39 36 30 27 24
11 12 9 21 20 18 16 16 13 13 13 9 6 12 29 20 24 23 20 19 21 22 22 24 27 30 36 43 42 42 50 54 49 44 47 52 54 49 46 43 39 34 29 27
11 11 14 11 11 16 10 9 11 14 15 19 23 12 19 17 16 11 13 14 13 10 11 16 17 21 25 31 40 45 44 53 58 55 50 48 54 51 47 44 41 39 34 32
10 11 13 14 9 14 10 13 12 9 9 5 16 18 5 2 1 5 7 6 8 13 18 23 24 26 28 28 26 35 43 45 50 63 61 56 53 57 52 48 44 42 37 36
21 16 11 8 11 15 11 6 2 1 2 7 4 12 24 8 14 15 19 23 19 21 24 27 28 28 29 31 31 31 34 46 44 43 58 61 56 60 56 47 44 42 37 37
15 5 15 12 16 8 17 8 4 4 3 4 6 12 8 16 20 15 13 13 15 20 22 26 30 35 38 40 35 32 30 34 46 48 47 50 56 54 51 45 44 43 39 38
7 3 2 4 14 14 10 13 5 3 7 3 9 13 21 11 13 16 21 22 21 22 26 23 32 36 42 44 42 37 36 32 33 47 49 46 47 48 46 41 41 39 39 40
9 5 4 9 7 18 5 6 6 5 2 5 8 11 20 15 18 16 13 16 17 19 24 30 36 41 36 41 40 30 24 31 31 39 46 48 47 44 41 37 33 36 37 37
8 6 7 12 12 13 20 13 6 5 6 4 4 7 7 10 18 25 30 33 35 33 29 26 33 38 39 39 30 27 23 23 27 34 40 44 44 39 34 33 32 34 33 34
11 6 8 16 4 3 13 20 17 7 4 11 8 13 11 15 14 29 43 51 51 37 24 32 35 36 37 38 33 26 21 24 27 30 34 41 42 38 31 31 31 31 32 32
18 7 5 4 7 13 15 17 18 20 22 23 7 14 13 19 42 47 34 30 31 27 26 33 32 33 28 32 25 23 22 25 24 25 32 33 31 30 28 27 28 29 31 29
11 7 6 8 6 6 13 15 17 20 15 28 36 45 47 46 44 28 33 32 31 21 18 31 36 34 30 28 19 21 21 23 21 22 18 25 24 26 25 25 26 28 30 27
14 8 12 15 16 18 18 20 21 25 33 27 42 41 39 37 36 30 36 40 33 19 14 19 31 35 37 27 19 20 17 17 21 22 22 22 24 25 25 25 25 28 27 31
18 8 9 11 5 7 13 13 18 20 22 30 32 39 30 32 28 29 35 30 31 18 17 14 16 13 17 19 17 16 19 22 18 21 20 23 25 25 25 28 27 28 34 28
11 7 3 4 3 12 11 3 4 12 19 17 21 32 30 26 28 31 34 23 20 13 16 14 15 16 19 19 14 19 19 23 22 20 24 26 28 27 28 28 29 31 25 32
10 8 3 6 8 1 5 8 7 19 19 12 19 30 21 25 28 28 25 18 16 9 8 14 15 16 14 14 15 19 21 21 20 22 25 26 24 26 25 26 27 28 26 23
8 6 3 3 7 11 5 5 14 20 18 7 27 21 19 18 20 17 9 12 11 8 4 6 10 11 11 11 13 15 17 15 17 21 25 30 26 25 29 29 23 14 10 10
12 11 9 1 3 3 7 10 17 15 6 25 27 15 15 14 21 15 11 11 7 6 6 6 7 10 12 14 17 17 16 18 16 18 25 28 26 21 14 8 6 8 6 10
20 19 19 17 7 11 2 8 14 7 14 26 18 13 14 17 17 23 22 11 12 11 11 8 7 4 3 8 14 17 19 18 16 12 13 15 11 8 7 4 5 7 7 12
12 11 10 13 7 9 4 12 12 17 19 19 8 10 10 14 18 13 14 19 22 11 12 10 7 6 3 7 12 11 17 9 14 16 11 9 7 3 2 4 4 7 11 14
9 11 4 9 3 5 8 11 10 12 14 14 8 6 11 17 10 15 17 14 16 19 21 20 18 21 23 24 23 19 20 17 14 14 11 7 5 2 1 3 6 9 11 14
11 10 11 8 0 5 8 8 10 9 9 13 11 8 9 11 12 7 10 15 16 16 17 18 16 16 19 21 21 20 17 14 11 10 8 4 1 4 6 7 9 12 16 18
8 14 12 17 10 11 7 7 8 7 8 12 10 8 7 6 5 5 7 8 10 11 12 16 17 17 16 18 17 15 11 11 10 7 6 6 6 7 9 12 14 17 19 21
18 18 17 17 15 14 12 10 10 9 10 9 9 8 7 7 2 0 4 5 6 7 9 10 12 12 10 12 10 9 9 9 8 7 7 8 10 11 13 15 17 19 22 25

GFSCGP_700_spd_048.txt.gz
Wind_Speed
31 21 26 31 22 21 12 13 14 17 15 22 26 30 31 30 32 31 30 28 28 26 21 31 39 48 53 53 54 52 45 44 46 44 40 41 38 37 36 34 31 29 25 23
24 26 15 15 15 12 13 19 20 19 20 23 29 35 32 29 31 31 28 30 32 32 28 29 32 35 41 45 50 51 50 51 46 46 45 40 42 41 39 36 35 32 29 26
20 14 19 15 13 14 13 14 18 21 22 25 32 40 34 26 23 21 13 16 20 22 27 29 32 34 35 37 38 40 45 52 51 48 44 44 45 44 43 40 37 37 33 27
15 16 16 16 17 16 14 17 20 22 18 10 11 10 29 20 18 18 17 17 18 18 18 20 24 29 36 39 40 42 42 43 56 54 51 48 48 49 46 42 39 38 37 32
9 20 16 17 22 16 15 15 13 13 15 19 19 10 12 16 11 8 11 9 5 8 13 12 12 16 21 28 33 40 45 45 47 53 56 53 49 48 45 45 43 40 41 36
8 13 16 13 12 17 16 13 11 13 12 5 6 11 9 1 7 8 6 8 7 10 17 20 20 20 21 23 26 30 34 47 48 53 54 54 52 49 43 43 44 42 39 38
13 10 12 11 13 14 16 10 1 2 1 6 3 6 15 7 6 11 11 14 18 11 13 19 23 23 27 29 29 27 25 27 39 51 55 61 58 51 48 43 41 43 42 41
15 7 16 11 17 9 18 10 3 4 3 4 4 7 3 2 11 15 17 15 16 16 18 20 25 25 27 31 32 34 34 30 28 33 44 53 60 56 49 50 45 42 42 44
15 5 6 6 17 14 14 10 8 3 5 2 7 7 12 12 5 8 14 20 20 22 23 24 25 27 30 31 32 34 35 36 33 37 39 45 51 49 48 49 48 46 43 40
10 7 7 9 14 15 8 10 6 5 1 4 6 7 13 7 13 13 9 13 17 20 23 25 30 30 34 38 41 41 38 36 34 36 35 40 44 45 41 41 43 45 42 41
13 5 12 12 11 21 19 10 6 4 4 3 4 8 6 6 13 19 27 30 33 42 42 41 46 45 47 46 40 35 34 37 32 27 29 33 36 40 40 40 38 38 40 40
14 8 8 17 4 7 12 19 14 5 3 6 2 15 6 7 15 19 39 38 34 29 32 31 29 25 34 37 37 37 35 34 29 25 26 28 30 34 36 37 36 36 34 32
16 6 5 3 12 16 15 19 21 19 15 15 2 12 12 23 35 33 33 35 33 26 31 31 26 32 30 29 36 38 33 26 22 23 24 25 25 30 33 35 35 33 31 31
10 9 5 7 4 7 12 14 16 20 11 12 25 40 35 37 33 31 29 30 33 36 27 19 21 25 35 33 29 29 27 22 19 22 19 22 24 29 34 37 35 31 31 31
13 7 12 13 10 10 12 13 15 24 28 26 35 35 29 32 29 28 31 32 34 28 20 13 16 18 21 29 34 34 35 21 18 19 17 20 18 23 23 28 28 29 29 29
16 7 8 9 11 16 22 24 24 26 28 35 30 33 22 35 26 31 30 28 22 20 18 9 12 11 11 13 13 16 22 17 14 13 15 16 24 23 22 24 22 27 27 29
15 9 5 3 4 8 13 10 15 12 17 21 26 26 27 27 29 29 24 15 15 15 13 7 7 10 12 13 10 7 7 6 10 12 14 20 19 20 20 19 25 30 30 31
10 10 5 4 5 1 5 2 3 10 15 14 14 20 22 21 22 20 18 16 11 9 8 6 7 7 7 6 5 5 9 9 14 18 16 18 18 19 24 27 28 35 31 29
6 8 2 2 5 11 3 4 6 14 13 5 22 21 15 14 17 19 15 12 7 4 6 5 6 9 11 8 5 4 7 10 16 12 12 15 20 19 24 30 26 17 17 12
10 9 6 1 2 3 4 4 8 10 3 20 20 14 13 15 13 20 14 15 9 5 2 1 4 5 7 7 6 6 7 10 10 8 11 15 16 16 15 10 9 7 5 6
17 14 15 12 6 9 6 6 8 3 10 17 11 10 12 13 13 15 18 18 12 14 11 10 8 7 5 2 5 7 4 3 6 2 3 9 6 9 10 9 8 7 7 7
16 11 9 11 6 9 5 7 7 10 12 16 9 10 15 9 14 16 16 19 17 15 10 6 5 3 2 5 6 9 5 9 12 13 15 15 15 12 7 5 2 3 6 9
7 10 3 9 3 5 9 6 8 10 9 12 12 8 10 11 11 13 16 16 15 17 19 19 19 22 23 21 19 20 20 20 18 18 15 12 9 6 3 1 3 7 9 11
10 10 12 8 1 2 8 12 8 10 9 10 12 7 6 7 7 7 10 12 14 15 17 18 18 18 20 23 22 20 19 16 15 12 11 8 5 3 4 5 5 7 10 13
10 9 10 18 14 12 10 8 9 11 10 9 12 10 6 5 5 2 4 5 9 12 15 16 14 13 14 15 15 14 12 12 11 9 7 5 4 4 4 5 7 10 13 16
16 19 17 18 16 17 18 15 14 14 12 11 12 10 10 7 6 4 4 0 6 7 8 12 11 12 10 12 10 11 11 10 8 7 6 5 4 5 7 11 13 16 18 21

GFSCGP_700_spd_051.txt.gz
Wind_Speed
25 25 32 34 26 22 17 14 17 18 19 25 29 33 31 27 32 34 31 28 30 33 30 36 39 43 53 57 58 53 47 45 45 45 43 41 39 35 33 32 31 28 28 28
29 17 17 26 27 26 17 13 14 16 20 23 30 35 33 31 34 30 26 25 27 29 28 30 32 36 42 45 50 56 55 49 48 49 46 46 44 42 38 35 34 32 33 32
20 20 12 16 26 19 20 13 15 18 19 21 27 35 28 23 25 24 17 15 20 27 28 27 32 35 37 40 41 46 53 56 57 54 49 49 48 51 46 43 38 36 35 34
11 13 17 10 8 11 12 11 13 16 15 9 12 10 28 20 15 19 16 13 15 14 16 17 20 25 35 39 40 40 41 44 47 51 59 59 56 52 49 44 40 35 34 34
12 14 13 14 13 14 12 11 11 12 12 15 16 7 11 9 10 2 6 8 10 9 10 12 15 19 23 28 36 42 44 44 44 44 47 51 57 56 51 44 42 40 38 37
10 17 12 13 16 17 13 11 10 12 10 3 4 10 9 5 9 4 2 7 9 9 12 15 18 18 18 19 20 23 32 38 43 48 48 49 49 53 54 52 47 43 41 39
10 13 16 12 10 11 14 11 3 3 1 4 2 5 11 6 6 7 10 11 13 17 19 18 19 19 18 17 19 22 24 24 25 31 39 53 52 52 49 49 51 47 43 42
12 5 12 12 16 9 14 11 4 4 1 3 4 7 0 9 10 10 15 15 14 16 19 20 22 23 25 25 24 27 29 29 27 27 26 29 44 54 52 51 46 50 45 42
13 4 13 8 10 13 10 10 9 1 2 2 4 8 12 14 12 10 13 14 16 20 21 23 27 30 30 31 29 30 31 29 27 28 29 31 35 38 41 47 51 47 47 44
11 8 7 10 12 13 9 7 5 6 2 3 4 9 9 4 7 12 16 18 21 24 28 30 30 33 35 36 35 36 38 38 35 34 35 37 38 35 39 39 43 44 42 45
15 5 11 10 12 18 15 12 7 4 2 3 3 6 3 4 11 16 20 26 32 35 39 39 40 37 36 36 42 43 41 40 35 36 33 29 30 31 36 38 34 39 37 39
11 5 8 13 8 10 18 15 13 4 4 3 1 8 4 3 17 28 35 26 31 28 25 23 26 29 29 28 31 31 30 33 31 32 30 27 27 29 32 33 32 35 38 37
11 4 6 3 12 13 15 20 20 17 7 8 4 5 2 23 21 24 26 24 25 30 31 31 29 27 22 22 29 33 31 32 28 31 27 26 27 27 27 27 30 34 35 34
10 7 5 6 1 5 14 20 20 22 10 9 22 29 24 23 29 30 27 29 32 30 31 26 24 16 16 20 19 27 30 32 31 25 23 24 23 23 22 25 27 28 31 33
13 5 12 14 8 8 9 10 15 25 27 16 24 31 22 29 28 30 31 33 29 24 22 24 13 10 11 12 12 13 20 25 25 26 21 18 18 18 21 23 27 27 31 32
15 7 7 9 12 17 21 19 19 21 22 30 27 28 23 26 28 25 27 20 16 16 19 14 8 8 11 13 12 13 13 12 13 18 18 17 16 14 14 19 24 26 36 32
14 9 4 3 5 6 12 10 20 19 20 18 23 19 22 21 20 22 19 17 17 14 15 7 3 5 7 9 12 12 10 7 8 10 14 14 14 19 19 19 16 17 23 29
11 8 6 4 3 1 1 1 3 5 9 13 11 15 17 18 17 21 16 18 12 10 11 5 3 6 6 10 10 7 4 8 4 5 7 9 17 10 11 16 17 22 26 26
11 11 4 3 4 11 5 6 3 8 8 4 12 13 11 13 15 12 15 13 12 10 11 8 5 5 4 2 4 3 4 5 6 8 10 7 1 5 13 10 17 12 11 16
10 9 6 2 3 3 7 6 4 8 1 15 14 9 8 11 14 14 14 9 11 14 7 7 7 6 4 3 2 3 8 9 7 6 6 4 3 2 9 8 4 5 6 6
13 11 14 10 6 8 8 5 5 1 5 12 12 7 8 8 13 11 12 13 12 8 9 8 7 6 6 3 3 3 3 4 4 11 8 8 8 2 13 10 9 8 5 4
13 11 8 12 6 8 7 3 2 5 8 8 10 6 8 8 10 15 15 11 12 15 16 14 4 1 4 8 9 7 5 8 15 18 18 18 16 13 11 9 6 2 2 4
7 11 3 10 2 3 4 6 6 6 7 7 9 9 8 6 7 9 14 14 13 14 15 17 20 17 13 13 16 15 16 18 17 16 15 13 11 9 7 5 4 4 5 7
11 12 13 7 1 6 5 9 13 9 7 8 7 8 7 7 5 4 7 11 9 10 14 15 15 15 17 19 18 16 14 14 13 12 11 9 8 7 5 4 4 6 9 12
12 13 12 17 12 14 8 5 8 9 10 10 9 9 7 7 8 7 1 4 8 7 8 10 8 9 10 13 14 12 11 10 10 9 7 7 7 7 7 7 9 10 11 13
19 19 19 21 17 16 14 15 16 16 15 14 11 10 8 8 8 9 8 3 6 3 6 6 7 7 8 9 9 9 9 7 6 6 6 6 7 7 8 9 10 13 16 20

GFSCGP_700_spd_054.txt.gz
Wind_Speed
29 34 34 32 26 12 13 14 17 14 19 20 24 30 32 28 29 30 29 26 25 25 26 32 38 46 51 53 54 49 47 48 44 42 41 41 37 35 34 31 31 30 29 27
27 35 30 28 25 20 11 14 12 11 14 19 25 33 31 27 29 28 28 26 24 27 30 32 36 39 43 44 44 52 56 50 48 47 44 47 44 43 39 36 33 33 32 31
16 11 20 27 28 25 18 16 13 13 14 19 25 31 21 19 18 16 20 21 22 25 28 32 35 34 36 40 41 43 45 49 57 57 53 52 50 50 49 46 40 37 37 34
11 11 13 17 18 22 19 15 15 13 10 5 8 8 19 15 12 16 18 13 14 14 15 16 19 20 27 35 40 40 40 41 41 43 54 58 56 55 51 49 44 42 41 40
8 10 10 10 5 8 7 9 9 8 8 10 11 5 7 6 8 8 8 8 10 13 14 15 16 17 19 21 22 30 36 40 40 39 42 49 57 62 63 59 55 51 45 42
9 11 9 10 11 11 5 7 5 9 8 2 4 9 4 6 13 11 8 6 7 8 10 11 14 16 18 18 19 20 19 18 29 38 42 44 46 45 46 48 50 51 49 45
11 15 9 10 14 14 14 9 2 2 1 3 2 6 8 7 9 8 6 7 11 15 17 19 19 18 19 19 20 20 20 19 18 20 22 28 32 37 46 46 43 45 43 44
10 6 14 10 11 9 14 11 5 4 1 3 5 8 3 8 12 7 9 15 16 16 18 19 22 23 24 24 25 26 26 25 25 26 27 28 27 24 26 35 44 43 43 43
8 4 13 9 11 11 10 9 9 3 1 1 4 6 8 7 6 5 10 12 15 18 22 25 27 29 31 32 33 34 33 34 33 33 31 29 28 27 27 29 32 35 42 44
8 6 10 10 10 11 7 8 5 5 2 2 5 7 4 5 2 7 13 18 21 25 29 33 36 38 39 40 39 37 39 40 40 39 38 36 35 32 31 30 31 33 35 38
10 5 9 10 11 14 13 10 4 5 2 3 2 2 4 6 5 17 24 26 28 26 28 34 29 30 32 34 40 41 41 41 42 45 47 43 37 36 34 35 33 33 35 35
11 5 7 9 7 8 13 12 10 3 4 4 2 4 4 2 18 20 25 23 21 25 29 31 32 30 27 29 29 28 27 28 32 31 27 30 34 36 34 33 33 32 33 34
10 3 6 5 7 10 13 17 17 13 4 7 3 2 6 11 22 24 26 23 26 31 30 27 28 22 19 18 19 22 24 25 28 28 29 28 27 30 30 33 31 29 29 31
7 5 3 5 0 3 9 14 17 18 8 8 20 16 16 17 23 23 23 25 29 28 25 24 24 15 11 13 14 14 16 19 23 32 34 32 27 22 23 27 26 22 24 27
12 3 7 10 8 7 5 7 12 22 24 14 14 21 15 21 24 23 26 27 26 23 22 20 13 7 10 12 13 16 16 16 17 19 21 20 23 20 21 22 20 21 23 24
13 6 5 6 9 13 17 16 15 15 19 25 21 21 15 19 19 22 23 23 20 21 19 17 10 8 11 10 8 11 14 15 14 12 11 13 16 17 17 15 13 13 20 16
9 7 4 2 4 7 12 9 15 21 20 17 22 13 16 16 16 20 21 19 19 15 14 13 10 9 9 8 10 9 9 9 13 10 11 10 10 11 12 9 13 11 16 14
7 7 4 4 3 1 2 3 2 3 4 9 11 10 14 14 16 19 20 22 15 15 13 11 9 7 9 10 11 8 10 9 6 9 11 4 9 13 11 17 11 13 14 14
12 11 3 2 4 11 6 6 3 2 2 2 7 9 9 13 16 14 18 17 12 13 11 11 11 9 10 9 8 6 5 9 7 9 9 11 4 6 8 5 2 5 5 12
10 9 7 3 2 4 4 8 4 6 5 7 10 8 9 12 12 11 14 14 13 10 11 9 6 6 9 9 6 6 6 6 5 1 3 5 4 5 7 6 9 8 4 5
13 11 14 10 6 9 9 6 3 2 2 9 9 9 10 6 10 13 16 13 14 13 13 8 6 4 8 3 2 4 8 7 4 6 8 12 13 15 16 16 14 13 10 8
9 10 8 12 6 9 9 10 4 1 4 6 8 9 6 8 9 11 15 14 12 12 13 14 2 3 4 8 8 12 12 11 16 18 18 18 18 16 14 13 11 9 7 7
8 10 4 10 4 4 11 2 4 5 5 5 7 8 7 7 8 8 12 14 12 11 11 14 16 11 8 10 14 14 13 16 17 16 16 15 13 11 10 10 9 8 7 5
10 11 12 8 8 13 11 6 8 10 9 7 6 9 9 7 9 10 8 10 13 8 8 10 13 13 12 12 15 13 12 13 13 12 11 10 10 9 8 7 5 5 6 7
13 14 14 17 15 13 8 4 4 7 10 11 11 10 10 10 8 9 9 7 9 10 5 5 6 7 7 8 9 8 8 9 9 8 7 7 6 6 5 6 6 7 9 12
18 22 20 21 16 16 12 13 13 13 13 14 13 11 11 11 10 10 8 11 7 9 3 3 3 7 6 5 6 6 6 5 5 5 5 5 4 4 5 6 8 10 12 16

GFSCGP_700_spd_057.txt.gz
Wind_Speed
35 35 39 33 26 14 19 17 21 17 23 16 21 24 28 25 26 26 25 23 23 26 26 31 39 45 48 50 50 48 46 44 42 42 41 40 36 32 31 30 31 31 30 30
36 38 29 27 23 16 14 14 13 13 12 15 20 24 23 21 23 25 25 23 23 24 26 29 33 38 42 45 48 51 52 51 51 49 45 44 42 41 36 35 33 34 32 32
32 27 25 24 28 21 15 14 13 9 9 11 18 19 11 13 16 19 19 19 21 23 24 28 32 35 38 39 42 44 45 46 46 49 53 53 50 49 45 42 40 36 34 33
18 21 30 20 32 26 19 16 13 9 5 4 6 5 6 11 12 14 15 14 13 15 18 19 17 19 20 26 34 37 37 38 40 40 43 46 50 53 54 52 45 43 41 40
8 15 34 23 28 30 15 12 11 8 5 6 6 4 2 7 7 8 8 10 13 13 15 16 14 15 15 17 20 24 29 35 39 41 38 37 39 41 42 48 53 51 49 47
15 22 12 11 10 12 13 12 7 4 3 2 5 9 2 7 13 12 10 9 9 8 8 10 11 12 14 16 18 19 21 23 24 32 39 40 38 37 38 38 41 42 45 48
17 14 13 13 17 14 12 9 2 1 1 3 4 7 4 9 11 11 9 7 7 10 13 16 18 19 19 19 19 19 19 21 23 24 27 32 34 35 37 41 44 46 45 40
7 7 13 12 13 10 15 10 3 4 3 2 7 7 5 11 10 9 7 9 10 11 14 17 19 20 22 23 25 25 24 25 25 26 28 29 30 31 32 31 30 35 40 43
6 6 12 15 11 8 12 8 8 3 1 1 4 4 6 8 9 6 4 6 11 16 19 21 23 26 28 30 32 33 34 33 32 32 33 34 35 36 36 34 31 30 30 33
9 8 8 9 9 11 7 9 6 6 2 3 4 5 6 14 7 1 7 12 20 23 26 28 30 31 32 35 35 37 40 40 38 37 37 37 38 39 39 36 33 32 29 30
5 4 9 11 9 12 12 11 5 6 3 3 1 2 7 10 3 11 15 21 24 26 26 26 28 30 30 31 29 26 28 28 28 32 37 41 44 45 44 43 40 37 34 32
8 5 7 8 6 10 12 11 12 4 5 3 2 2 11 10 10 18 19 23 26 28 27 28 28 26 23 21 19 19 18 19 22 26 30 33 34 33 32 33 34 35 37 35
8 4 7 4 7 12 13 18 16 13 5 6 3 2 11 8 18 20 23 24 25 24 21 17 19 19 18 14 13 16 18 18 19 24 27 27 29 30 29 30 30 33 36 36
9 6 3 5 1 4 10 14 17 18 8 6 14 6 4 12 16 17 19 23 21 23 21 20 21 19 13 10 13 15 15 14 16 18 19 20 24 29 30 29 29 26 27 31
10 5 5 8 8 5 3 5 15 23 23 12 6 10 4 11 15 18 20 23 24 21 19 17 17 14 12 11 13 14 15 15 16 15 14 14 15 15 15 20 20 21 22 21
17 5 5 6 9 10 14 15 16 14 18 22 20 10 7 11 14 17 19 21 20 19 16 13 12 12 9 10 13 15 14 14 11 12 14 10 10 12 13 22 15 14 13 11
13 10 6 3 4 7 12 12 20 19 18 12 15 6 8 11 12 15 19 20 22 16 14 10 12 10 10 10 9 10 11 13 11 12 11 11 11 11 13 15 9 11 12 12
12 6 4 3 3 2 5 3 2 2 5 8 6 5 8 11 13 16 17 18 16 12 12 12 11 9 9 10 7 9 7 10 12 13 14 12 12 12 13 6 10 14 11 10
13 9 4 2 4 7 5 6 6 4 2 4 4 5 4 8 11 12 13 13 15 13 12 11 11 10 11 10 9 9 7 6 8 11 10 5 4 2 4 6 7 8 8 7
11 11 9 5 2 3 4 9 6 2 7 2 5 5 4 8 9 11 13 15 14 14 13 13 10 5 6 9 7 4 5 3 6 5 5 4 4 1 0 2 5 11 13 14
11 11 13 11 5 8 9 9 8 3 4 3 4 5 4 8 9 13 12 15 14 14 15 15 5 3 8 4 2 4 5 4 5 4 5 6 10 14 16 15 15 15 13 10
7 9 8 9 7 8 8 13 7 5 3 1 4 6 4 5 7 10 12 14 13 12 13 15 5 2 3 7 11 9 11 12 14 15 15 15 15 14 13 13 12 10 9 7
7 9 3 9 2 4 11 9 9 5 3 5 5 6 7 6 8 10 11 13 13 11 10 11 12 8 10 13 12 13 11 13 13 12 11 12 12 11 10 10 9 8 7 6
10 10 11 7 5 12 13 13 5 5 6 8 10 7 9 8 8 10 12 11 11 14 7 6 8 9 10 10 10 10 8 9 9 9 9 9 9 8 8 8 7 7 7 8
11 13 13 19 17 16 9 13 8 4 5 7 9 11 11 11 9 11 12 11 9 10 12 3 3 3 4 5 7 7 6 5 6 7 6 6 5 5 5 5 5 6 8 11
16 20 22 21 13 15 12 11 13 10 10 10 9 11 12 12 10 12 14 10 10 11 11 7 1 2 1 1 3 4 3 3 4 4 4 3 3 2 3 4 6 9 11 13

GFSCGP_700_spd_060.txt.gz
Wind_Speed
36 26 37 29 25 12 15 21 13 15 24 24 23 22 24 22 22 23 25 26 25 29 31 33 36 39 42 44 46 46 46 45 43 44 42 41 40 35 35 32 33 35 35 36
34 36 27 21 21 13 13 16 14 16 17 19 15 20 19 18 22 25 24 24 25 27 29 31 33 37 41 44 47 47 48 48 49 48 47 44 43 41 39 36 35 34 34 35
29 26 22 24 20 16 13 15 16 10 15 13 12 12 15 20 21 22 22 22 23 24 26 29 30 32 35 37 39 40 42 44 45 45 48 50 52 51 48 45 41 37 37 36
25 21 27 24 24 18 15 17 14 11 8 6 7 4 10 11 13 14 14 16 17 20 22 25 26 26 24 25 28 32 36 38 38 37 39 41 43 44 42 44 44 44 45 44
11 27 31 28 26 22 13 17 13 10 8 5 7 6 6 9 10 12 14 16 16 15 15 16 17 18 18 18 18 19 21 26 32 36 39 39 39 39 39 40 40 41 46 50
12 23 29 26 31 29 19 15 10 8 5 4 9 8 9 13 15 15 14 14 13 12 12 13 14 16 17 17 17 18 20 21 24 25 26 30 38 40 41 39 38 36 37 38
17 16 19 17 20 23 24 16 5 3 3 2 8 7 2 15 19 17 15 13 10 9 11 13 15 17 19 20 22 22 23 24 24 26 27 26 27 34 41 43 44 44 45 44
6 7 16 28 21 12 18 9 2 3 4 3 6 7 5 16 15 18 14 10 9 10 12 14 17 19 21 24 25 26 27 28 28 28 28 28 28 30 33 34 36 38 40 40
6 6 9 12 10 19 16 8 8 4 2 1 5 6 7 19 14 14 10 8 9 12 15 18 21 23 26 28 30 32 32 34 35 35 34 34 33 33 34 36 37 38 38 37
9 9 11 13 11 12 12 12 5 5 4 4 5 4 6 16 18 11 8 10 13 16 20 23 25 27 29 30 32 32 33 33 34 36 39 38 36 36 38 39 41 43 42 40
10 5 9 11 10 11 11 11 6 6 2 2 2 3 11 19 10 3 7 13 17 21 24 25 26 25 26 27 28 27 26 24 24 25 26 28 32 37 42 45 47 46 44 42
7 7 9 9 11 12 14 12 10 3 3 3 1 2 19 15 1 8 12 16 20 22 24 24 22 19 18 18 17 15 13 13 15 17 19 23 27 32 36 39 41 42 42 42
7 4 7 4 7 13 16 19 17 15 5 5 2 3 15 14 7 17 18 19 22 24 21 20 18 15 16 11 9 10 11 12 14 16 18 21 25 25 26 29 31 33 34 34
8 6 4 2 2 5 11 16 21 18 8 7 9 2 12 10 13 16 18 20 22 21 17 15 14 12 11 9 10 11 13 14 16 19 20 20 21 24 24 22 26 30 33 34
10 6 6 6 5 3 4 8 17 24 25 9 5 10 11 10 13 14 17 16 18 20 16 12 10 10 10 11 13 13 14 14 17 19 19 20 19 17 16 16 17 22 26 25
15 4 5 7 9 10 14 14 13 14 20 25 20 15 9 7 12 13 14 16 19 19 15 8 9 8 9 12 14 12 11 12 13 12 11 12 13 12 14 15 17 26 19 23
16 10 7 3 5 7 13 17 22 20 19 13 15 4 7 10 9 13 16 18 16 15 11 7 9 10 10 12 13 8 8 9 8 12 13 14 12 12 8 12 16 14 11 12
8 7 8 3 2 4 4 3 2 8 13 15 12 7 9 7 8 11 11 13 11 13 10 10 9 12 12 11 11 9 10 9 9 12 14 12 5 10 9 12 16 12 14 9
10 8 3 2 5 8 6 6 6 6 5 7 5 4 5 4 9 9 9 11 10 11 10 12 12 11 9 13 14 12 10 8 7 7 8 10 5 6 7 8 11 6 4 4
13 13 8 3 3 3 3 10 9 6 6 6 2 2 4 5 4 7 6 10 11 12 13 14 13 7 5 7 6 5 6 7 3 3 7 9 7 5 7 8 8 10 12 12
12 13 12 10 6 7 9 11 10 6 6 6 4 1 3 5 6 8 9 10 11 11 13 14 9 2 4 3 3 1 2 3 4 6 9 10 12 13 13 12 11 10 9 8
10 9 7 9 7 8 11 14 11 9 8 7 4 3 2 6 6 7 8 12 11 11 11 12 8 2 4 3 7 8 8 9 10 12 11 10 9 9 8 8 8 7 7 6
8 11 5 9 4 5 11 14 16 13 10 8 6 5 4 4 7 10 10 10 12 11 9 7 6 7 8 8 8 10 9 8 9 8 7 7 7 7 6 6 5 4 3 3
14 11 11 8 6 11 11 14 14 14 9 8 10 10 8 7 8 8 8 10 14 10 11 5 2 3 6 6 6 7 6 4 5 6 6 5 5 4 4 3 3 3 4 6
14 13 14 19 16 15 14 16 21 12 9 7 8 10 10 10 10 10 10 10 12 12 10 9 2 2 3 4 4 4 4 3 3 4 4 3 2 1 1 1 2 4 6 9
19 19 18 15 17 15 17 16 13 17 12 9 9 11 11 11 12 12 13 15 10 10 12 9 5 4 5 5 5 4 4 4 3 3 3 2 2 2 3 4 5 7 10 12

GFSCGP_700_spd_063.txt.gz
Wind_Speed
36 31 37 37 29 23 21 23 17 20 18 16 25 21 23 18 23 23 23 23 24 28 28 35 39 39 39 39 40 41 43 43 42 43 43 45 41 41 41 39 36 34 33 35
34 31 34 24 24 20 12 21 20 17 21 20 16 21 19 20 21 21 23 26 26 30 32 32 34 36 37 38 39 40 42 43 44 44 45 49 43 42 42 41 40 39 37 35
32 21 31 26 26 19 17 18 21 9 20 14 11 17 19 20 24 24 25 26 28 28 29 32 32 34 36 37 38 38 39 41 42 43 45 47 49 44 45 43 43 42 42 41
19 8 31 22 26 20 17 15 16 12 12 11 14 4 14 19 21 22 23 24 26 26 27 28 30 30 31 32 32 33 34 35 36 37 38 38 40 41 39 40 40 40 41 42
13 19 21 19 19 18 11 17 13 11 10 4 9 7 10 14 15 17 19 21 21 20 20 21 22 22 22 23 24 24 25 26 27 29 33 35 38 39 39 38 37 38 40 43
10 22 21 22 25 20 15 16 10 6 4 5 13 13 13 15 17 17 17 18 19 19 17 16 16 17 18 19 19 19 20 21 22 22 24 25 27 28 32 34 37 38 39 39
10 19 26 23 26 24 20 18 5 4 5 4 9 8 3 14 16 15 14 16 16 15 14 14 15 16 17 18 19 21 22 24 24 24 25 26 27 27 28 31 34 38 40 42
4 7 19 25 33 20 19 15 4 5 7 7 7 9 4 19 19 21 18 15 14 13 13 14 15 17 19 21 23 25 26 28 28 29 29 30 30 30 29 28 29 32 35 37
4 5 11 17 14 19 23 8 7 1 2 3 9 7 10 16 18 20 17 15 14 14 14 15 16 19 21 24 26 29 31 32 33 35 35 36 36 35 34 33 33 34 36 38
5 8 6 11 14 11 9 9 4 3 3 5 7 6 5 20 21 19 16 15 15 15 16 18 21 23 25 26 28 29 31 33 33 33 34 34 36 38 39 39 39 39 40 42
8 4 9 9 7 8 10 5 6 4 3 3 4 5 5 16 21 15 13 12 14 16 19 21 23 25 26 25 24 24 25 25 25 25 25 26 28 29 31 34 38 42 45 46
4 6 7 6 11 14 12 10 10 5 5 3 4 5 10 18 18 9 7 9 14 17 20 22 24 24 23 20 19 18 16 15 14 16 18 20 20 22 24 28 32 36 37 40
5 3 6 2 6 13 17 17 11 11 5 4 4 5 17 16 12 8 11 15 17 20 23 24 23 21 18 16 14 12 11 12 13 15 16 17 19 21 22 24 25 27 30 33
7 5 3 2 1 4 11 15 18 17 7 6 9 2 16 18 13 9 16 17 19 22 24 20 19 17 14 12 11 12 13 13 15 16 17 19 21 22 23 23 24 26 26 26
7 5 8 7 6 5 6 10 17 26 24 10 3 7 8 11 9 11 16 18 20 21 20 19 15 13 10 8 9 11 12 15 17 16 15 17 18 21 22 20 21 20 22 24
10 5 6 7 9 11 14 13 13 17 22 25 19 13 13 13 15 14 16 16 20 21 18 17 11 12 11 10 9 9 10 12 15 16 16 15 19 22 17 18 16 15 17 16
7 8 5 3 7 7 12 18 22 20 17 19 18 14 7 10 13 12 15 16 15 13 14 12 10 12 13 12 12 11 10 11 14 13 15 15 16 13 10 10 10 17 13 15
6 7 8 3 3 3 5 4 4 18 17 18 15 11 11 13 11 11 12 11 9 9 10 9 8 11 13 15 14 12 11 13 15 14 12 10 8 8 10 8 10 14 10 12
9 6 2 3 6 12 8 8 6 6 4 11 10 11 13 10 7 12 10 8 8 8 9 10 11 12 13 15 16 16 13 14 11 8 6 6 7 5 10 6 8 9 9 9
11 11 6 2 3 3 2 6 7 6 4 8 8 8 9 8 5 8 7 6 9 8 10 12 12 11 9 7 7 8 8 10 5 5 4 5 7 9 11 12 10 10 12 12
9 10 12 10 6 8 9 9 10 4 6 11 8 7 6 7 6 6 9 9 10 10 9 11 12 4 3 4 4 3 4 3 3 4 7 7 8 8 7 7 7 7 8 8
11 9 8 11 6 8 7 14 10 10 9 11 10 8 6 6 8 8 8 9 11 11 8 9 9 4 2 2 2 5 5 5 7 8 5 5 4 4 4 4 5 5 5 6
9 11 7 11 5 11 7 17 21 17 14 13 12 9 7 8 7 9 9 11 10 10 8 5 6 3 2 4 6 7 6 4 3 3 2 2 1 1 2 1 2 3 4 6
13 12 11 8 6 13 9 14 16 16 18 14 12 12 11 10 9 9 9 9 9 9 7 6 3 2 2 3 3 3 5 3 3 2 3 3 2 1 1 1 2 4 6 8
14 14 14 16 14 13 11 13 16 18 15 18 14 14 14 14 13 12 11 12 10 9 8 5 5 5 6 6 5 5 5 5 4 5 5 4 4 3 4 4 5 7 8 11
21 20 15 9 9 12 15 17 18 19 19 18 14 12 12 13 13 14 13 13 15 14 8 9 8 6 8 9 8 8 8 7 6 6 6 6 6 6 6 7 8 9 11 13

GFSCGP_700_spd_066.txt.gz
Wind_Speed
34 36 42 46 32 21 17 21 21 22 20 23 31 30 25 14 21 20 23 20 20 23 25 30 36 36 36 36 36 36 37 37 37 37 38 40 37 35 35 36 37 39 39 37
36 37 34 29 26 21 16 15 25 12 22 17 15 25 27 22 29 27 25 27 25 25 25 33 35 34 35 37 38 38 38 39 41 41 41 43 45 44 40 40 41 41 42 40
29 26 25 28 26 24 22 18 26 20 14 15 14 18 21 26 29 33 29 27 29 31 32 34 32 32 34 35 34 35 35 36 37 38 39 39 45 44 42 36 37 38 41 44
20 8 26 27 29 23 22 14 18 19 16 11 21 4 20 25 31 31 28 27 31 32 31 31 32 30 31 32 33 33 33 32 32 33 33 34 35 39 39 35 33 34 35 37
11 20 22 34 31 23 15 19 12 18 13 4 15 7 11 19 29 27 28 30 31 28 28 27 27 28 27 27 27 27 27 26 26 27 28 29 31 33 35 36 36 34 34 36
11 17 14 30 20 25 22 18 14 9 8 4 14 15 16 27 24 22 24 25 23 22 22 20 19 20 20 20 21 22 23 23 23 23 24 24 24 23 25 28 31 31 31 32
10 10 14 14 14 18 23 24 7 4 4 4 12 16 12 12 15 20 22 21 20 18 19 17 16 17 17 18 19 20 21 22 23 23 24 25 26 26 27 28 29 29 29 30
7 4 16 24 20 16 24 23 4 5 5 5 12 7 3 18 17 18 20 21 17 16 15 15 16 17 18 18 18 20 23 25 26 26 27 29 29 29 29 31 32 31 31 31
7 3 15 18 26 25 26 20 13 3 2 6 10 8 12 20 23 23 21 16 15 15 15 15 17 17 17 18 20 23 25 28 30 30 31 32 32 33 34 35 35 35 34 34
4 6 10 13 22 26 23 22 7 4 2 3 8 9 13 27 29 26 23 19 17 17 18 18 18 18 20 22 24 26 28 29 31 32 34 34 34 33 33 33 33 34 35 36
6 3 6 8 4 8 13 16 9 4 3 1 2 2 5 15 22 22 18 18 16 16 17 18 20 23 24 25 26 26 26 26 26 27 27 26 26 27 27 27 29 29 32 34
5 7 7 8 10 12 13 8 13 5 4 3 1 1 4 9 15 19 17 12 12 14 17 19 21 24 24 24 23 22 21 20 20 19 17 17 20 20 21 21 23 25 27 28
4 3 6 2 6 13 17 16 16 13 6 5 1 3 6 13 20 14 9 9 11 13 17 20 23 23 22 20 18 17 17 16 16 16 16 17 17 19 21 21 22 22 22 23
6 6 2 2 3 4 9 17 19 18 9 5 5 10 15 12 16 9 12 12 15 16 19 23 22 20 17 16 15 13 13 14 15 16 16 16 17 18 19 18 20 20 21 23
7 2 7 6 5 5 5 10 18 24 22 11 6 11 9 22 16 9 19 15 16 18 22 20 20 18 14 13 11 10 10 11 12 13 13 14 16 18 18 19 19 17 20 21
9 5 6 9 11 10 13 13 14 20 22 27 16 16 17 17 17 18 18 14 17 20 19 17 19 15 13 13 12 11 10 10 9 11 12 12 15 18 18 14 13 17 16 17
7 8 6 3 5 9 14 16 22 20 18 20 28 26 16 21 22 19 15 15 16 15 13 14 13 11 12 14 14 14 12 11 10 12 13 14 13 12 8 10 10 10 11 10
11 9 8 3 3 2 4 6 6 17 19 18 14 18 10 18 16 13 13 14 12 11 10 10 9 10 11 14 16 16 15 13 12 13 10 10 7 6 6 7 7 9 7 9
12 10 4 4 7 10 14 8 7 5 6 17 16 16 17 17 13 10 12 11 10 9 9 10 11 12 14 15 16 17 15 13 11 10 8 6 7 5 4 4 4 7 10 13
12 13 8 6 2 3 4 5 4 6 3 4 14 15 14 11 9 5 6 7 8 9 10 11 12 12 12 10 5 6 7 7 7 6 5 1 3 7 6 6 7 7 9 11
12 14 15 9 6 7 10 8 7 5 7 9 10 11 9 9 8 7 6 8 9 9 10 9 9 6 5 5 5 5 5 4 3 5 6 6 5 4 4 4 5 5 5 5
13 9 8 12 7 9 8 6 11 9 8 11 12 10 9 7 9 9 8 8 9 10 8 8 7 5 2 2 2 3 5 6 8 8 6 4 2 1 2 2 3 3 3 4
11 12 8 10 6 7 6 10 14 15 10 10 11 11 11 10 8 8 9 10 10 9 7 7 6 4 2 2 3 5 6 7 6 5 3 2 1 1 1 2 3 3 4 6
10 14 17 8 8 14 14 11 12 15 15 15 16 16 15 12 9 9 9 10 9 8 10 7 6 5 2 2 3 3 4 4 4 3 2 3 3 4 3 4 4 5 6 8
17 13 15 18 14 11 11 9 10 13 15 16 17 17 16 15 13 13 12 12 13 10 9 9 7 6 5 6 6 6 6 6 5 5 5 6 6 5 5 5 5 7 7 9
21 21 19 10 9 11 13 11 12 14 16 15 16 19 17 15 15 14 13 13 13 15 15 12 8 8 6 8 8 9 9 9 8 8 8 8 7 6 6 7 8 9 9 10

GFSCGP_700_spd_069.txt.gz
Wind_Speed
33 34 44 41 34 16 22 22 23 25 27 22 28 27 29 26 22 22 24 22 25 26 27 31 31 30 30 32 33 33 33 33 34 33 33 32 32 30 31 31 32 33 34 36
34 39 36 34 35 20 17 19 25 17 21 23 20 26 31 32 37 30 25 22 24 26 29 31 33 35 34 33 34 35 34 35 36 38 39 40 39 38 36 37 38 39 41 41
29 28 31 25 34 27 18 17 18 20 15 24 19 22 24 32 35 33 33 30 30 31 33 34 34 32 30 30 32 34 34 34 35 37 38 38 38 39 39 40 38 36 38 39
15 19 27 27 32 25 19 15 8 16 21 15 16 6 21 30 33 37 36 32 30 33 35 36 34 31 29 31 32 31 32 32 33 34 34 34 35 35 34 36 37 35 34 35
14 26 28 31 30 25 19 15 11 17 18 13 15 12 29 14 34 36 34 33 33 34 35 35 34 31 30 30 29 30 29 28 28 28 29 29 29 31 32 32 34 34 32 33
15 18 22 24 28 28 16 11 13 19 12 5 18 23 12 29 24 26 33 35 36 36 35 31 31 28 26 26 25 25 25 24 24 24 25 26 27 27 27 27 27 27 28 29
15 13 15 26 25 25 27 24 5 2 3 5 13 18 28 12 20 23 25 27 29 30 30 23 22 22 20 19 19 21 22 23 22 23 25 26 26 26 27 27 27 28 29 30
9 7 13 12 16 31 29 22 9 6 4 4 11 15 21 26 19 20 23 24 24 25 22 21 20 19 18 18 19 21 22 23 23 24 27 28 28 29 30 30 30 31 32 32
10 5 12 13 18 17 22 16 13 2 4 3 10 11 11 16 23 22 20 19 21 20 18 18 17 17 18 18 19 20 22 23 24 26 29 30 30 31 31 32 33 34 34 35
8 6 6 13 15 20 21 20 10 7 2 4 7 8 11 24 25 26 25 21 18 17 17 16 17 19 19 20 21 22 23 26 28 29 30 31 32 32 33 34 34 34 33 33
4 3 6 13 17 26 21 26 13 8 6 4 2 6 10 21 21 28 24 22 20 18 17 18 19 20 21 23 25 26 26 28 29 28 28 28 27 27 26 25 26 27 27 26
10 5 7 4 5 12 27 24 27 8 6 5 2 4 6 11 20 26 24 22 17 14 15 16 19 21 23 25 26 27 27 26 25 23 23 22 21 20 20 20 20 20 21 21
7 6 8 4 7 11 15 13 19 26 10 7 3 4 3 5 19 23 20 14 12 11 13 16 19 21 24 26 25 24 23 21 20 18 17 17 18 19 18 18 19 19 21 22
7 7 4 8 2 8 20 23 20 19 13 12 11 8 10 7 13 18 14 15 12 11 15 16 19 20 19 20 19 19 18 17 15 15 15 16 17 17 16 16 17 17 20 19
11 9 11 9 7 6 8 12 27 31 29 17 14 13 12 12 11 15 16 15 12 15 16 19 20 19 18 18 16 15 14 13 13 12 12 13 13 14 15 16 17 17 16 16
15 8 10 11 13 12 14 14 17 24 28 31 20 18 15 19 17 19 20 14 15 17 19 20 19 19 18 14 14 14 15 13 12 10 10 11 12 14 15 14 12 11 11 11
12 11 9 5 7 8 14 21 24 24 24 25 32 26 21 25 25 22 19 17 17 17 17 16 15 15 13 13 14 16 17 15 13 12 11 13 12 12 9 7 9 6 6 9
12 10 9 4 5 2 4 6 7 12 23 22 20 23 28 24 23 23 23 17 15 15 14 13 12 12 13 13 14 17 18 17 14 14 12 9 9 8 6 5 4 3 1 3
15 13 6 5 8 12 13 11 11 8 9 17 19 16 20 20 24 22 17 14 13 11 11 12 13 14 15 15 16 17 19 17 16 13 10 9 9 7 4 3 6 7 7 8
19 14 13 9 4 5 3 3 5 8 8 8 16 20 24 20 19 11 11 9 8 8 9 11 12 13 13 12 11 9 10 11 11 11 9 7 5 8 7 7 5 6 6 6
18 19 19 14 8 9 12 7 6 6 4 6 9 20 22 18 11 10 10 9 9 9 9 10 10 10 8 7 6 9 8 9 9 8 9 10 9 7 6 5 4 3 3 3
16 13 14 16 7 9 10 9 11 8 5 6 7 10 10 9 10 10 9 8 8 9 10 9 9 8 6 5 4 5 6 7 8 11 12 10 7 5 5 4 2 1 1 1
12 15 9 11 7 5 5 4 7 10 6 7 8 12 13 14 12 11 10 10 10 10 11 8 8 6 5 4 2 3 6 8 10 10 8 7 6 5 4 4 3 3 4 3
15 12 14 10 10 14 10 8 7 10 12 14 11 12 12 14 16 13 11 11 12 11 10 9 7 6 5 5 3 4 5 6 7 7 6 5 5 5 5 5 5 5 5 6
19 16 16 23 19 10 9 8 8 9 10 12 13 17 17 16 17 15 12 14 13 14 13 10 7 7 7 7 7 7 6 6 6 6 6 6 6 6 7 8 8 8 7 7
21 22 22 21 12 16 13 11 6 9 11 14 14 14 16 17 16 15 16 15 15 17 16 16 15 11 9 8 10 9 8 9 9 9 8 8 8 9 10 10 10 10 9 9

GFSCGP_700_spd_072.txt.gz
Wind_Speed
35 30 45 36 33 22 22 26 30 29 22 27 31 29 29 30 26 26 40 37 32 31 29 31 33 32 30 29 30 31 31 31 30 29 30 30 30 29 29 29 29 30 31 31
30 31 37 32 28 21 20 21 23 24 24 22 24 28 23 30 34 26 21 24 30 33 33 33 33 32 30 31 32 32 33 34 35 34 33 34 33 33 33 33 34 35 36 37
34 27 34 33 29 21 17 18 21 20 18 21 25 30 28 32 36 39 40 31 26 27 29 30 32 33 33 32 33 34 35 36 37 38 37 36 37 37 37 36 35 36 39 41
20 20 32 30 29 29 18 16 14 13 15 14 19 8 22 31 33 40 38 38 36 34 32 33 33 34 34 32 31 31 32 34 35 36 37 37 37 36 35 36 36 36 37 37
16 21 28 27 26 29 20 17 14 11 15 18 16 12 28 23 25 35 40 40 38 38 38 37 38 38 37 35 34 32 32 32 33 33 33 34 35 34 33 33 33 34 35 36
23 22 25 28 22 28 20 16 10 8 16 8 26 22 20 25 32 25 34 38 40 38 37 37 36 36 36 34 33 32 31 29 29 29 29 29 30 30 30 30 30 29 29 29
22 23 20 26 24 24 22 17 4 4 6 5 14 18 41 16 19 26 23 36 39 39 39 38 37 35 33 30 29 28 27 25 24 24 25 26 27 28 29 29 29 29 30 29
9 8 22 22 27 27 27 25 7 5 4 4 10 16 30 25 29 18 23 27 33 36 35 34 31 28 26 25 25 24 24 23 23 24 25 27 28 29 30 31 32 31 31 31
12 8 20 16 29 25 28 28 21 5 3 1 10 22 34 20 28 23 23 23 28 30 27 24 23 22 23 23 22 22 23 23 24 26 26 27 29 30 31 33 33 34 35 35
10 7 16 17 19 25 23 30 14 11 3 3 7 14 19 14 22 25 27 23 23 22 22 21 19 19 19 20 20 21 22 24 24 25 27 29 30 31 33 34 35 35 35 35
10 9 9 15 23 23 25 24 13 10 5 4 3 7 12 22 24 17 26 25 22 19 16 16 18 19 19 21 22 23 25 26 27 28 29 30 30 31 30 30 29 28 26 26
10 5 8 13 14 21 26 26 22 11 7 9 3 6 7 10 15 19 21 21 19 17 17 19 19 19 20 22 24 26 28 28 28 29 29 28 27 25 24 23 22 22 21 20
10 7 8 3 7 10 23 29 31 25 17 17 6 5 4 6 13 20 24 21 18 18 17 16 16 18 20 23 26 28 29 29 28 27 26 24 22 21 20 20 20 21 21 21
10 9 9 12 3 9 20 24 31 34 23 19 23 20 16 13 9 17 25 21 17 14 13 14 16 19 22 24 25 26 26 26 25 23 21 20 19 19 19 19 19 19 19 19
12 10 15 11 8 8 9 21 26 30 34 24 34 34 25 19 15 9 15 16 16 15 15 16 18 20 22 22 22 23 22 22 20 18 17 16 15 15 16 17 18 18 18 18
17 11 13 15 14 14 16 16 21 32 33 32 30 22 20 19 14 15 18 17 18 17 17 17 19 19 18 20 22 20 19 19 17 15 14 13 14 14 14 15 16 15 13 14
16 13 10 6 10 14 16 27 29 29 31 33 41 33 26 23 24 23 20 18 14 16 18 19 19 17 17 17 16 17 18 18 17 16 15 14 14 13 12 11 9 10 10 9
14 13 10 4 4 2 12 11 12 20 26 31 30 26 29 26 22 24 22 19 18 20 19 19 18 17 16 16 16 16 17 20 19 18 16 15 13 11 10 9 8 8 7 6
18 16 7 5 8 18 18 15 15 14 19 18 24 21 19 30 23 25 24 21 18 19 18 17 16 16 16 17 17 18 18 19 20 19 17 14 12 11 11 9 7 8 7 7
20 16 17 8 4 5 3 5 6 9 19 13 13 23 24 30 36 33 26 23 19 16 14 14 13 14 14 14 14 15 15 15 17 17 16 14 13 10 10 11 10 9 8 7
20 22 21 21 10 13 12 9 5 6 4 5 8 15 25 25 17 12 16 15 14 13 13 13 11 10 10 10 10 10 11 10 11 13 13 12 11 13 13 11 10 8 7 6
16 14 17 18 11 12 8 12 13 6 6 4 2 13 20 18 16 15 14 13 11 11 10 12 11 9 8 7 8 7 7 9 11 11 11 13 14 13 12 10 9 8 8 7
14 18 16 14 8 7 4 10 6 9 4 4 3 7 11 13 13 12 13 14 13 12 11 12 9 9 8 6 5 4 4 6 8 10 13 14 13 11 10 9 9 9 8 8
18 14 17 11 13 15 13 9 6 5 9 10 8 8 9 14 18 18 16 14 14 13 12 12 8 8 7 7 6 5 4 6 8 11 11 11 11 11 11 10 10 9 9 9
19 18 18 23 21 16 12 10 7 8 10 11 13 13 13 14 15 13 17 18 15 14 13 12 11 8 8 7 7 7 7 8 9 11 12 12 13 13 12 11 11 11 11 11
20 20 23 24 17 15 14 17 15 10 10 10 12 14 14 16 16 17 16 15 13 16 17 18 15 15 15 10 9 10 9 11 12 14 14 14 15 14 13 13 12 12 13 13

GFSCGP_700_spd_075.txt.gz
Wind_Speed
26 30 40 34 28 18 27 22 21 23 17 32 31 26 25 19 29 33 32 25 27 29 31 31 29 28 28 28 28 28 28 28 28 29 28 28 27 27 28 28 28 28 28 28
30 27 34 30 26 20 21 26 18 26 14 23 26 28 29 31 32 32 33 34 38 36 33 33 33 32 32 30 30 30 31 30 29 29 30 31 30 30 30 30 31 31 32 33
23 22 35 30 31 23 15 17 26 16 24 17 17 25 31 35 37 43 37 33 32 35 39 37 34 33 32 31 32 32 32 31 32 33 33 34 33 33 33 33 33 35 37 38
14 12 32 31 27 25 17 15 15 15 11 11 14 8 25 33 40 41 44 41 31 28 28 28 29 31 32 33 32 31 31 32 33 34 36 36 36 36 35 36 36 35 36 37
9 22 25 30 29 24 15 12 11 13 11 14 14 9 25 25 28 43 43 46 45 43 39 34 31 31 31 32 33 33 33 34 34 35 36 36 36 35 34 35 34 35 36 36
17 20 21 26 26 25 20 11 9 9 9 6 21 17 22 28 30 28 34 40 43 44 43 41 38 36 35 36 36 36 36 35 35 35 34 34 34 34 34 34 34 35 35 34
15 21 20 26 20 19 24 15 4 3 4 5 7 18 36 8 16 18 22 29 35 43 44 41 36 35 35 36 35 35 34 34 33 32 31 31 31 31 31 32 32 32 32 32
10 10 22 23 26 18 26 21 5 5 4 4 14 16 19 21 22 29 23 27 33 35 38 39 37 35 35 36 35 33 31 28 27 27 28 28 28 29 30 31 31 32 33 33
11 8 25 17 26 26 27 27 17 1 2 2 9 22 35 32 34 28 22 26 27 26 25 28 30 31 31 30 28 27 26 26 26 25 26 28 29 30 30 31 32 33 34 35
9 7 16 21 25 27 19 29 16 10 1 4 8 16 21 21 21 21 28 26 23 22 22 24 25 26 25 25 25 25 25 26 26 26 27 27 28 29 30 31 33 34 35 35
8 9 11 22 17 26 28 22 19 14 17 5 2 8 7 11 15 18 16 21 23 18 17 18 21 22 22 22 22 23 24 25 25 26 27 28 29 30 31 32 33 32 31 29
15 9 9 19 20 20 21 29 25 15 8 14 5 14 12 18 16 14 17 15 18 16 16 17 18 18 19 20 22 23 25 26 27 28 29 30 30 30 30 30 29 27 25 24
18 6 5 5 12 17 29 34 32 33 15 23 10 7 7 6 8 9 13 14 15 16 17 16 17 17 19 20 22 24 26 28 29 29 29 29 28 27 26 25 24 23 23 22
7 10 11 10 3 8 22 31 36 38 26 20 32 24 19 21 13 12 11 17 17 16 16 16 15 15 18 21 23 26 27 28 28 28 28 27 24 23 22 21 21 22 21 21
16 14 15 20 17 14 15 19 28 42 42 30 30 37 35 30 29 18 16 14 19 19 17 14 13 16 18 21 25 26 25 25 26 26 25 22 21 20 19 18 18 19 19 19
21 14 13 18 18 19 21 19 20 28 32 42 43 46 33 24 23 22 25 20 18 16 14 15 17 18 19 21 23 24 24 24 23 21 20 19 18 17 17 17 18 18 18 17
20 18 15 11 14 15 18 30 32 31 32 34 39 30 31 25 20 22 23 17 17 14 15 16 17 19 19 19 20 20 19 18 19 19 19 18 17 16 16 17 16 13 13 13
16 15 14 6 4 3 14 17 14 22 30 36 35 32 27 22 25 26 23 20 18 15 16 17 18 20 19 19 19 19 18 18 18 20 20 19 18 18 17 15 13 12 11 11
18 17 9 6 10 17 22 17 16 18 22 17 21 24 25 26 24 30 26 25 21 19 18 18 19 18 18 19 19 19 20 20 19 19 22 20 19 19 17 15 13 13 11 9
21 19 18 10 4 5 2 2 6 11 18 11 16 18 19 26 28 26 20 20 21 20 19 18 17 17 18 18 18 18 17 17 18 20 21 20 20 17 15 15 12 11 11 9
21 23 25 20 11 12 11 11 9 5 6 9 8 10 15 26 20 16 22 21 21 19 18 17 17 17 16 15 14 13 13 13 13 12 14 17 17 15 13 13 13 12 12 12
18 16 17 21 12 13 6 8 11 5 7 6 7 9 12 17 16 13 15 17 16 15 13 13 15 15 14 12 11 11 11 11 11 11 11 12 13 13 14 13 13 14 13 13
16 19 21 15 11 9 7 6 5 8 10 5 5 2 3 8 12 13 16 20 13 11 15 13 16 11 11 10 9 8 8 8 9 11 12 12 14 15 14 15 16 15 14 13
22 15 19 16 16 16 12 9 7 5 5 7 6 6 5 11 16 16 15 14 15 17 16 15 15 12 9 9 8 7 6 5 5 7 10 12 14 14 15 16 16 15 15 14
24 19 23 23 20 14 9 7 9 12 8 9 11 11 9 9 10 10 15 21 19 18 18 15 15 13 10 10 9 9 8 7 7 8 10 12 14 15 16 17 16 16 15 15
25 24 21 19 12 12 10 11 13 12 10 11 9 10 11 12 12 13 14 14 14 21 21 17 18 17 15 15 13 10 11 11 12 13 13 14 15 16 17 18 17 17 17 17

GFSCGP_700_spd_078.txt.gz
Wind_Speed
24 27 37 29 22 16 21 17 14 22 6 31 24 18 16 16 21 31 26 25 22 20 22 24 23 23 24 23 22 23 24 25 27 26 26 25 25 26 26 25 25 26 26 27
13 28 33 27 18 15 23 19 10 12 15 14 24 20 28 26 21 23 28 26 21 22 26 26 26 27 28 27 27 27 27 27 27 28 27 27 27 28 27 27 27 27 29 30
7 20 28 28 23 17 17 22 17 4 14 13 15 26 32 30 30 25 27 28 28 29 32 34 32 29 28 29 29 28 28 29 29 29 29 30 31 31 30 30 31 32 33 34
11 14 24 26 22 18 12 12 13 18 7 11 17 7 24 31 34 34 32 35 34 30 36 38 40 36 35 33 31 31 30 29 30 30 31 32 32 33 33 33 34 35 36 36
7 17 26 26 25 19 12 10 8 8 9 12 12 9 24 24 32 41 39 40 40 39 36 34 32 30 30 30 29 29 30 29 30 31 32 33 34 35 35 34 35 36 36 36
12 16 18 27 22 17 10 10 8 5 6 6 22 20 13 24 27 27 31 39 40 44 39 34 33 32 30 29 29 30 31 32 33 34 35 35 35 36 35 34 33 34 35 35
15 17 17 22 23 20 19 12 3 1 4 5 6 18 27 11 8 7 19 26 31 41 46 48 45 41 38 35 33 34 35 35 34 34 35 35 35 33 32 32 31 32 32 33
10 8 16 18 22 24 25 22 5 5 4 4 15 11 7 8 9 11 16 17 23 30 38 42 41 40 37 37 36 36 35 35 36 34 33 32 31 31 30 30 31 32 32 32
8 7 20 16 26 22 22 26 20 1 3 2 9 14 22 24 24 15 15 20 21 27 31 30 35 37 38 39 37 36 37 34 32 30 29 29 29 30 30 31 31 32 32 33
5 3 17 19 22 26 16 22 14 13 2 4 7 12 17 17 16 14 17 19 25 22 23 25 27 31 32 32 31 31 31 29 27 27 27 28 30 31 31 31 30 31 32 33
10 10 7 19 21 23 23 19 17 13 12 4 3 7 7 2 8 20 17 12 17 18 19 20 23 24 26 26 26 25 25 26 27 27 28 29 29 30 30 30 31 32 33 33
19 8 8 17 18 17 25 26 26 11 7 11 12 22 14 12 24 20 15 13 9 13 14 15 18 21 22 22 21 22 23 24 26 27 28 29 30 31 31 31 32 31 30 29
20 11 5 3 13 23 23 30 31 27 24 21 6 9 1 11 5 6 10 8 9 10 14 15 16 16 16 18 19 21 23 25 27 28 29 30 30 30 31 31 30 29 27 26
12 17 10 13 4 6 17 32 33 32 27 28 43 36 30 24 19 19 20 12 9 12 13 14 15 16 17 18 19 20 23 25 27 28 28 28 28 27 27 27 26 25 24 24
16 10 13 16 17 19 18 17 20 36 43 35 34 36 36 34 32 34 32 21 13 15 18 17 15 14 15 16 18 21 24 26 27 27 26 26 25 24 23 22 21 19 19 20
21 13 14 19 17 19 23 23 22 25 29 40 46 51 37 38 37 35 27 28 28 18 16 15 15 15 16 18 20 21 24 23 24 25 25 23 21 20 19 18 17 18 19 19
24 23 18 18 21 21 19 31 31 33 33 32 39 30 29 24 24 19 21 18 19 13 15 15 16 17 19 20 21 21 21 21 21 21 21 20 19 18 17 17 17 17 17 16
14 18 17 7 7 4 14 17 16 21 24 27 35 35 32 28 22 21 23 19 15 15 17 16 17 18 19 20 21 20 20 21 21 20 20 20 20 18 17 18 17 16 15 14
20 18 11 7 10 18 21 19 19 19 21 17 21 19 18 19 26 30 24 27 19 17 19 18 18 18 19 20 20 20 21 22 22 22 21 21 21 20 18 17 17 15 14 13
24 21 23 14 6 5 4 5 4 9 17 7 10 13 16 19 25 23 21 20 23 23 23 19 19 19 19 18 19 19 21 21 21 21 21 22 21 21 20 18 17 15 14 12
28 26 28 23 13 14 17 14 11 7 4 8 9 10 11 15 16 11 12 15 17 20 20 20 21 18 18 18 18 17 18 18 18 17 17 17 19 20 18 17 16 13 12 12
20 18 19 26 15 13 16 13 15 9 7 7 9 10 11 10 10 10 11 17 17 18 17 14 15 16 16 17 16 15 15 15 15 15 16 14 14 15 16 15 14 14 13 14
19 23 15 16 13 16 9 7 7 5 7 8 6 8 6 3 8 10 11 12 15 16 19 12 16 13 12 12 13 13 12 12 11 12 13 12 12 13 14 15 14 14 15 15
25 17 22 16 16 17 9 9 5 7 6 5 5 5 4 3 6 11 14 15 15 17 14 15 14 15 14 11 10 11 11 10 9 8 9 11 12 13 14 14 15 14 15 16
17 16 22 21 19 15 11 10 9 10 13 10 10 10 9 7 5 5 12 14 14 16 19 20 17 16 14 10 10 10 10 10 10 8 6 7 9 11 13 14 15 16 16 17
17 24 23 21 14 11 9 11 13 12 10 9 9 8 8 8 9 8 9 11 12 15 22 23 20 18 17 16 14 13 12 11 11 11 10 10 11 14 15 15 16 16 17 19

GFSCGP_700_spd_081.txt.gz
Wind_Speed
14 29 31 23 22 16 20 16 16 12 8 14 19 19 16 19 27 33 36 32 32 32 27 26 24 25 23 22 22 21 22 23 24 24 24 24 24 24 24 25 26 27 26 25
16 22 25 23 14 12 18 19 13 16 17 9 11 19 17 18 12 15 39 34 33 33 31 26 25 24 22 20 19 20 22 23 24 24 25 26 26 26 26 27 28 27 27 27
13 10 25 24 15 16 20 20 15 7 12 14 12 22 25 23 19 17 23 45 35 36 33 27 25 25 24 22 22 23 25 26 27 27 28 27 27 27 29 29 29 29 30 31
3 12 25 24 20 14 13 18 16 9 13 8 13 6 15 26 25 23 21 35 36 37 35 26 22 26 26 25 25 24 24 26 26 27 27 28 29 30 30 30 31 32 32 33
6 16 21 27 22 16 8 10 8 14 16 9 9 7 18 22 28 33 30 30 42 39 36 29 24 26 30 32 32 31 30 30 29 28 29 29 29 30 31 31 32 34 34 35
12 17 19 23 20 17 9 9 7 6 9 6 20 15 12 19 23 23 24 27 32 37 34 35 34 32 33 34 33 31 31 30 29 29 30 31 32 33 34 34 34 35 35 34
14 20 17 22 21 18 13 13 4 1 3 4 5 11 25 5 7 3 13 22 25 28 33 38 41 37 33 30 28 27 28 29 30 32 33 34 34 34 34 34 34 33 33 32
4 7 14 17 23 18 22 17 6 6 4 3 12 7 6 7 7 9 11 12 15 23 29 35 40 40 36 33 33 33 34 34 35 36 36 35 35 34 33 32 31 31 31 31
10 6 20 14 21 22 23 24 16 1 2 1 6 6 10 15 14 6 6 12 17 21 23 24 29 37 40 42 41 39 37 36 36 37 37 36 35 34 33 31 30 31 31 32
7 5 16 17 20 19 13 22 12 13 2 4 3 6 10 6 7 4 7 10 17 23 22 24 24 30 32 37 39 38 38 37 37 36 35 32 32 32 31 31 31 31 32 31
14 8 10 19 19 24 22 17 14 11 10 3 1 4 3 5 7 11 18 10 13 17 27 20 21 26 31 32 33 32 32 33 32 30 29 29 30 30 30 31 31 30 31 31
17 11 10 17 17 21 22 25 21 11 6 10 13 17 14 9 9 20 11 6 9 8 16 17 19 22 23 24 26 28 28 27 27 27 26 27 28 29 30 31 31 32 32 32
19 11 8 5 11 20 25 29 29 30 25 18 6 4 10 8 5 2 9 10 11 7 10 15 16 17 19 20 22 23 23 22 24 25 26 28 29 31 31 31 31 32 32 31
16 19 13 13 5 8 25 29 31 32 26 24 42 30 25 19 17 22 26 22 17 13 9 12 15 15 16 18 19 20 21 22 24 24 26 28 28 29 30 30 30 29 28 27
16 10 24 16 10 10 12 14 15 36 40 30 33 39 38 36 33 31 29 27 27 15 13 13 16 16 18 18 17 19 20 21 23 25 26 27 27 27 28 28 27 26 25 23
22 14 12 14 16 17 21 21 21 24 26 34 37 42 27 27 28 29 24 28 27 22 23 20 18 18 16 15 16 18 20 22 23 24 24 25 26 26 24 25 23 22 20 19
23 23 16 7 13 16 17 29 30 32 32 33 39 31 29 27 23 14 12 16 21 18 19 21 18 16 16 16 18 19 22 23 23 23 22 23 23 23 22 21 19 18 18 17
14 20 20 7 8 5 11 16 14 18 22 26 29 25 21 19 20 24 19 17 17 16 18 20 17 17 18 18 19 21 22 22 23 23 23 23 22 21 21 20 18 18 17 16
20 15 10 6 10 16 20 15 16 17 24 20 21 19 19 19 19 20 24 24 22 19 17 19 18 19 19 18 19 20 20 21 23 23 23 24 24 22 21 20 18 17 16 15
22 23 21 11 5 5 1 4 4 7 15 7 8 11 11 15 20 15 16 24 22 23 23 25 23 18 18 18 19 19 20 21 21 22 22 22 22 22 21 21 20 18 16 16
28 27 27 22 11 10 18 18 19 10 7 7 7 10 12 14 15 15 15 17 22 23 27 24 23 20 19 20 20 20 20 20 19 19 19 19 19 19 21 21 20 18 16 15
19 18 19 24 13 13 20 16 18 12 12 11 9 10 11 11 11 10 14 13 15 16 21 22 21 19 17 18 19 19 18 16 16 16 16 16 17 17 16 17 16 15 14 14
17 18 18 14 9 9 7 7 5 9 8 10 9 7 10 7 3 9 9 11 16 15 16 18 18 17 15 16 13 14 14 12 13 13 13 13 12 12 12 13 14 14 15 15
20 18 17 16 14 13 13 9 10 5 7 5 6 6 5 6 1 4 8 9 12 14 16 17 20 16 15 16 16 11 10 10 10 11 10 10 10 11 11 11 13 14 14 15
13 16 20 23 18 14 12 7 11 13 12 12 11 9 9 7 4 2 4 9 11 14 17 21 18 21 18 15 13 12 10 9 9 10 9 7 6 8 10 12 13 14 14 15
23 19 20 19 14 11 5 9 12 14 12 10 7 8 7 6 6 5 5 6 8 10 11 16 20 19 20 19 16 14 14 11 10 11 10 10 9 9 11 13 14 15 16 17

GFSCGP_700_spd_084.txt.gz
Wind_Speed
17 24 19 22 19 13 14 15 16 14 14 15 22 23 24 25 27 32 34 43 48 38 35 35 34 31 31 31 31 30 26 25 23 22 22 22 22 22 23 24 26 27 27 27
14 19 17 23 20 13 15 14 13 12 14 13 12 21 22 25 26 26 28 34 51 41 37 37 37 34 31 27 29 28 30 24 25 25 25 26 26 26 26 27 28 29 29 29
14 16 21 21 22 15 15 18 14 7 12 16 12 19 21 24 22 26 25 27 46 45 39 37 36 34 31 26 25 24 27 28 29 27 26 25 26 26 27 28 30 31 31 31
6 15 24 20 17 17 15 20 13 11 12 9 13 6 10 19 23 23 22 24 45 47 42 39 36 34 32 28 26 24 23 23 25 25 26 27 28 28 29 30 32 32 33 32
6 16 27 20 18 16 12 19 18 12 10 5 10 9 15 15 21 21 24 25 40 48 47 41 34 33 35 30 29 27 25 25 24 24 25 27 28 29 30 31 32 32 33 33
8 17 23 20 21 18 10 13 11 10 11 12 19 15 13 12 14 17 16 18 22 52 51 38 34 34 35 31 30 29 28 29 30 30 30 30 30 30 30 31 33 34 35 36
10 20 19 24 21 17 15 15 6 6 7 7 7 15 23 11 3 8 13 19 18 32 42 40 39 37 37 32 29 29 32 32 33 32 30 31 30 31 32 33 34 35 36 36
11 11 23 25 23 15 19 19 6 6 5 4 11 9 6 10 17 12 7 10 15 28 30 26 50 37 37 36 33 30 31 32 31 30 29 30 32 34 35 35 35 36 36 35
7 5 23 21 29 22 20 18 11 0 2 3 6 7 12 9 9 5 8 12 15 16 23 29 29 34 41 43 39 33 32 30 31 33 35 36 36 37 37 37 36 36 35 35
7 5 21 16 24 26 15 19 10 10 4 5 4 6 7 9 6 6 1 8 10 20 23 25 28 35 39 40 39 40 40 39 40 39 38 38 39 39 38 37 36 35 35 35
11 8 11 19 21 20 28 17 16 11 10 3 2 3 10 12 14 6 6 6 8 13 18 25 30 32 32 34 39 41 41 41 40 39 39 38 37 37 36 35 34 33 34 34
22 9 8 19 21 21 21 21 21 12 7 12 9 11 5 10 15 11 2 5 6 7 9 14 29 24 25 29 36 37 37 37 37 36 36 35 34 32 31 31 32 32 33 33
20 13 7 6 15 23 27 28 27 22 18 15 9 4 8 21 23 16 13 7 2 7 8 8 17 21 25 26 29 30 30 31 32 32 31 30 29 29 30 31 32 33 33 33
16 20 16 13 5 11 24 26 26 28 24 23 31 23 8 15 20 16 13 18 26 22 14 9 9 14 18 20 22 24 26 27 26 26 26 28 29 30 31 31 32 33 33 32
20 18 24 24 12 11 8 12 22 33 36 28 24 28 29 27 30 36 40 34 28 31 19 12 10 13 17 19 20 22 22 23 23 23 25 26 29 30 31 31 31 31 31 30
19 11 12 12 25 16 18 19 21 22 25 31 32 38 27 24 23 17 15 22 29 27 24 19 19 17 20 20 20 21 21 21 21 22 25 27 28 29 29 29 30 29 29 27
25 20 12 6 10 13 14 24 26 28 31 30 34 32 27 28 27 26 25 19 18 25 26 27 24 24 23 21 20 19 20 21 21 23 25 26 27 26 26 26 26 26 25 24
23 24 17 6 6 6 11 18 20 21 24 26 29 24 18 20 22 23 20 24 22 21 22 23 27 28 26 24 23 21 20 21 22 24 25 26 25 26 26 26 24 24 22 21
18 12 8 8 13 12 12 14 14 14 20 18 21 20 22 21 23 16 18 26 25 23 18 16 22 25 26 24 23 20 20 21 22 23 24 25 26 26 27 25 24 23 22 21
26 21 19 10 6 6 7 6 4 2 12 7 6 9 10 13 16 15 16 18 22 25 23 20 24 27 25 20 19 20 20 21 21 24 24 24 25 26 25 24 24 23 22 20
23 23 23 16 10 9 14 15 16 8 7 10 7 9 11 13 16 17 14 15 17 24 24 25 25 26 22 20 20 20 21 21 24 23 22 23 23 23 23 22 23 23 23 21
13 11 13 16 9 13 15 18 19 11 12 11 11 11 12 13 13 13 11 12 16 21 24 27 26 26 24 22 21 22 23 24 22 21 21 21 21 21 21 20 19 21 20 20
11 15 8 10 9 10 5 4 6 6 10 9 9 8 10 9 8 6 7 9 11 13 17 21 24 23 22 21 20 19 19 18 18 18 18 17 17 17 16 16 16 17 18 18
10 21 23 17 16 14 14 11 9 11 7 5 5 6 7 6 4 3 5 6 10 11 12 15 19 20 21 22 19 19 19 15 14 15 15 14 13 14 14 14 13 15 16 16
20 12 21 26 18 11 8 9 9 13 14 13 10 11 9 9 6 2 4 6 8 10 13 16 20 22 23 24 22 17 17 17 13 13 14 13 11 10 11 12 13 14 15 16
23 28 20 14 19 15 9 6 10 12 13 14 12 9 8 6 6 5 5 5 7 9 13 17 21 26 25 22 20 18 19 18 17 15 14 13 11 9 9 10 12 13 14 15

GFSCGP_700_spd_087.txt.gz
Wind_Speed
23 20 17 17 18 3 19 21 19 22 10 13 22 21 25 23 24 28 27 25 28 31 32 36 36 37 37 35 34 32 28 25 24 23 23 24 23 23 22 21 22 22 23 24
17 11 11 16 17 11 13 17 15 13 14 12 15 23 24 25 26 24 26 25 24 29 31 43 40 39 38 37 37 34 30 27 26 24 24 25 24 24 23 23 24 26 27 28
12 13 11 14 16 15 13 15 17 8 12 13 13 22 24 27 26 27 30 31 34 39 34 36 45 41 40 38 38 36 35 30 31 29 27 26 24 23 24 26 27 29 29 30
18 15 17 15 16 15 15 14 11 11 9 13 17 9 19 21 27 28 29 33 35 37 37 33 47 50 44 40 37 34 35 35 34 30 30 28 23 23 26 26 27 29 31 33
9 9 21 16 13 14 9 18 10 9 12 12 12 9 21 16 19 24 24 27 30 38 45 34 48 52 49 42 35 35 31 28 29 31 33 38 30 29 33 32 31 32 32 33
7 12 15 13 15 17 12 11 12 10 11 8 19 16 15 20 15 16 18 20 21 27 36 31 40 46 45 41 37 36 32 29 27 25 25 25 26 28 30 31 32 32 33 33
13 12 22 22 16 17 11 15 8 7 7 9 5 15 27 7 10 12 10 15 18 24 28 35 37 44 44 42 37 37 33 31 29 27 28 28 29 30 31 31 31 31 32 33
17 7 22 21 18 14 18 19 7 9 9 11 8 10 15 15 19 22 16 12 21 25 34 33 44 46 41 39 33 33 36 37 34 29 29 32 31 30 30 31 32 33 35 35
15 13 21 15 20 17 20 22 19 6 4 4 10 12 17 17 9 10 11 14 12 16 22 28 37 54 49 40 35 35 37 37 38 32 35 38 40 35 33 34 36 36 37 37
7 2 19 23 26 28 11 16 10 8 4 8 8 9 12 8 11 7 4 10 13 16 19 22 30 32 44 46 37 35 37 33 33 35 35 34 34 36 37 38 39 40 40 40
11 9 7 24 24 28 26 14 11 7 16 4 6 5 8 10 12 8 5 3 8 11 14 21 23 27 33 31 41 44 34 37 41 38 37 38 39 40 40 41 41 40 39 39
21 9 9 18 19 22 25 26 20 17 9 13 14 7 7 9 14 16 5 3 3 5 9 11 19 27 30 33 38 43 41 40 41 41 42 41 40 41 42 41 39 37 35 35
25 16 9 7 12 23 26 30 23 23 19 12 11 6 14 18 14 18 18 15 12 8 3 5 10 13 28 29 31 31 33 37 37 37 37 37 39 38 38 37 36 35 35 35
22 27 25 16 4 13 25 27 29 27 22 23 28 21 13 12 14 19 23 12 18 17 15 18 13 11 18 23 27 27 28 31 33 34 34 33 33 32 32 32 32 33 35 36
20 16 31 25 14 12 12 16 27 35 38 26 24 26 26 25 23 20 18 27 29 33 33 30 21 14 12 15 19 21 23 25 27 28 28 28 28 28 30 30 32 33 34 35
23 12 17 19 22 15 15 16 18 25 28 32 31 37 26 22 23 25 24 23 23 27 26 31 26 21 17 15 17 19 21 22 23 24 24 25 26 27 28 30 31 31 32 32
23 22 14 4 9 8 16 33 27 25 25 24 31 28 23 24 24 24 26 29 31 27 25 27 28 24 23 20 20 20 22 22 22 21 22 24 26 28 28 29 29 28 29 29
26 14 17 5 8 5 9 10 14 22 23 25 27 25 19 21 22 26 24 26 25 26 26 24 28 29 23 26 24 23 22 20 20 21 22 24 26 27 28 28 29 29 28 27
20 18 7 6 14 9 11 14 13 12 14 14 14 14 17 22 25 20 22 23 24 23 24 23 23 26 29 31 28 25 23 20 20 21 22 25 26 27 27 28 29 30 28 27
16 15 9 7 5 4 1 7 9 5 13 9 9 10 11 12 14 11 17 16 18 19 25 24 22 22 24 26 28 25 21 21 21 22 25 26 26 27 28 28 28 28 27 26
15 20 25 16 10 6 9 9 9 6 7 8 9 10 10 11 13 17 18 16 16 18 22 26 26 22 21 26 24 21 22 21 23 25 26 27 27 27 27 27 26 27 26 25
6 8 12 17 5 10 12 14 14 8 10 12 14 13 13 14 14 15 15 13 14 15 18 27 26 23 24 24 23 21 20 22 24 26 27 26 25 25 25 25 25 24 24 23
4 10 5 7 5 10 6 6 3 7 10 10 7 6 7 10 9 9 8 7 7 8 12 19 22 22 23 24 24 22 22 22 23 22 22 22 22 21 23 23 23 22 22 20
12 16 20 15 15 16 10 9 9 9 11 9 5 6 7 8 8 6 5 4 5 6 7 12 17 20 22 23 23 23 22 21 22 22 19 19 19 20 20 20 20 19 17 17
13 18 17 21 23 14 10 11 11 11 13 12 11 10 10 9 9 7 5 5 5 6 8 9 12 17 20 23 24 25 25 23 22 22 19 18 19 18 18 16 16 16 16 15
14 15 16 14 17 22 15 11 12 9 11 14 14 12 10 8 7 7 6 6 7 7 10 12 15 18 21 25 27 27 29 28 23 20 19 20 20 19 17 14 13 12 12 12

GFSCGP_700_spd_090.txt.gz
Wind_Speed
15 23 19 18 15 7 10 19 16 20 19 17 24 15 16 17 23 26 29 26 28 25 26 34 26 30 34 35 35 33 34 32 30 30 31 30 30 30 27 27 24 21 20 19
21 14 11 8 15 14 14 19 22 9 14 15 9 18 24 23 27 24 20 30 26 23 27 35 35 30 34 34 35 36 35 33 30 30 28 25 25 25 22 21 21 21 19 20
20 12 16 12 15 12 10 19 16 9 10 9 10 16 22 26 28 27 26 26 27 27 27 34 35 36 34 35 37 37 36 34 33 29 30 27 24 23 22 22 21 20 22 24
4 8 15 12 12 14 10 7 13 12 4 6 8 5 14 22 30 28 31 31 29 31 29 32 34 37 39 37 39 39 38 38 36 35 32 28 26 25 29 31 29 23 22 24
7 4 15 12 10 13 9 15 6 8 9 11 9 8 20 5 16 20 22 28 29 30 30 36 40 39 40 43 40 41 42 41 41 38 35 32 29 31 27 30 32 28 25 29
8 5 15 14 11 15 11 11 9 6 4 4 18 16 9 15 11 16 19 19 20 25 27 30 37 42 41 43 43 45 46 43 40 37 38 38 34 35 34 36 38 33 31 31
17 8 15 20 15 15 12 13 4 1 4 5 3 14 24 3 5 12 13 19 20 22 25 25 42 52 48 47 41 40 46 44 40 32 32 44 28 26 26 26 29 29 30 31
16 8 16 21 23 12 19 19 6 4 4 5 18 9 17 14 21 19 17 22 22 25 25 27 27 37 49 47 39 36 38 38 36 33 32 30 29 28 29 29 28 29 30 29
12 13 15 16 25 17 17 22 17 8 9 4 9 8 13 18 16 16 26 25 17 19 27 27 28 29 32 35 37 36 34 34 34 34 31 32 29 27 28 29 32 33 35 36
10 7 16 20 23 25 15 23 13 9 2 3 4 13 12 4 16 7 6 12 17 17 18 26 27 26 28 31 39 41 35 35 33 34 35 39 40 43 38 37 37 39 37 38
15 12 8 22 28 25 28 24 13 8 10 2 1 1 2 12 18 17 12 7 10 13 14 17 19 20 28 25 30 46 48 39 30 33 31 33 31 32 32 36 37 39 39 40
29 7 12 18 23 25 22 25 21 8 5 13 6 6 3 9 13 12 7 5 6 8 10 10 10 17 22 27 29 33 40 47 29 39 46 35 24 34 39 40 39 40 41 42
18 17 3 6 13 21 29 34 26 24 12 12 7 6 17 17 9 11 15 12 14 11 11 10 9 9 14 23 29 29 28 24 28 30 37 34 32 39 40 40 41 43 41 39
20 14 22 23 7 11 22 29 34 30 22 22 30 16 14 7 9 12 12 14 18 22 18 15 11 12 13 13 19 24 27 31 33 34 33 33 34 35 36 36 35 35 34 34
20 20 24 30 26 22 14 15 31 35 35 25 27 30 32 26 22 24 22 18 19 28 31 25 24 23 21 16 16 19 23 25 27 25 25 27 30 31 30 30 30 30 31 32
10 10 18 24 28 25 23 27 19 26 36 41 38 41 34 30 28 31 30 26 28 26 31 25 29 31 27 22 17 16 17 19 20 21 23 24 25 25 27 27 28 29 30 31
17 7 13 4 16 20 11 26 33 28 28 32 37 26 13 20 22 22 23 25 25 27 29 29 35 31 28 24 20 17 16 17 19 20 21 22 23 23 25 26 28 29 30 30
15 16 14 6 14 4 9 10 7 27 27 27 31 28 22 23 25 27 26 29 28 26 27 28 29 26 22 26 24 22 20 19 20 19 19 19 21 23 24 26 28 28 29 29
8 11 7 6 11 3 6 7 10 13 18 20 24 21 19 22 22 20 23 23 22 22 22 24 23 22 18 26 26 23 25 24 22 20 19 20 22 22 23 26 27 28 29 29
10 10 10 5 2 1 3 4 7 7 9 7 11 16 18 17 15 12 14 16 15 18 19 20 23 19 20 22 27 30 27 25 20 20 21 22 22 24 25 27 28 28 29 30
8 10 16 14 8 5 7 5 2 2 3 2 3 5 7 9 11 12 15 16 16 17 18 20 20 21 22 21 19 22 24 21 19 21 22 23 25 27 27 27 27 27 27 27
4 5 7 10 6 4 7 8 5 4 6 8 9 12 13 12 12 15 15 14 13 14 15 17 18 24 21 17 17 19 19 19 20 20 22 25 26 26 26 25 25 25 25 24
5 9 4 8 8 4 2 6 4 9 8 10 8 6 6 6 8 10 9 8 7 6 7 10 13 19 17 16 18 20 19 19 20 21 23 24 23 23 23 22 23 24 24 23
13 11 14 14 4 9 8 8 15 11 11 9 7 5 7 8 8 8 7 6 5 4 3 4 9 13 16 18 20 20 21 22 22 23 23 24 25 22 21 21 22 23 22 21
17 18 20 20 18 16 15 18 14 12 12 14 12 10 9 10 9 8 6 5 5 4 4 3 4 9 14 17 19 21 23 23 24 25 25 24 21 20 20 20 21 20 20 18
12 11 14 15 14 17 19 18 16 11 11 11 13 13 11 9 8 6 5 5 6 5 5 6 8 10 12 15 18 22 25 27 29 27 28 29 21 21 20 20 20 18 17 14

GFSCGP_700_spd_093.txt.gz
Wind_Speed
15 14 15 15 17 8 10 18 13 12 11 14 19 23 23 21 21 19 26 27 25 27 28 27 23 24 29 31 29 27 26 27 31 31 31 31 32 31 32 31 30 28 26 25
19 17 12 14 17 10 8 14 21 12 17 20 15 19 30 25 22 21 26 27 28 27 28 32 29 26 26 28 31 30 28 28 29 29 30 30 30 30 27 26 24 24 21 19
17 19 16 16 14 10 9 15 16 17 15 10 5 19 17 24 29 28 27 29 29 30 31 35 34 32 28 28 29 31 30 29 30 30 31 30 28 27 27 26 22 21 21 20
11 11 15 14 12 10 9 11 13 11 16 10 17 5 17 21 27 35 35 34 32 27 33 36 35 36 36 32 30 29 30 29 31 32 33 30 27 26 24 27 27 30 31 33
6 9 11 17 16 12 7 7 10 18 15 8 10 7 15 15 17 28 32 35 35 30 33 36 37 35 34 31 31 33 34 33 34 32 35 36 32 28 29 29 29 34 32 30
8 5 11 17 16 15 12 12 8 11 7 3 15 12 8 16 16 14 14 15 18 21 27 35 39 39 36 37 35 33 34 37 36 36 35 38 37 34 35 32 30 28 28 27
17 9 11 18 19 14 15 14 3 1 2 5 6 15 26 7 11 5 16 15 17 16 13 25 38 38 44 39 36 36 37 36 38 38 39 39 41 39 36 35 33 31 28 28
11 8 16 14 23 16 19 19 6 5 4 4 15 11 12 8 18 15 10 14 20 21 23 21 24 29 33 39 37 35 39 41 40 38 40 39 38 37 38 28 26 24 26 28
7 10 11 19 22 22 18 24 11 2 5 1 6 11 12 11 16 21 22 23 21 18 20 25 26 26 26 31 37 38 39 41 40 36 40 40 37 30 26 28 26 25 25 28
12 9 14 18 17 24 17 25 16 8 3 3 5 9 9 3 16 21 20 21 26 26 18 27 28 30 26 21 25 32 32 31 33 38 38 34 31 32 31 29 28 27 27 29
28 20 9 18 26 31 30 19 19 11 8 4 2 4 8 17 16 19 15 11 11 15 19 19 24 29 28 25 25 26 34 36 32 38 40 33 30 33 34 34 32 32 36 36
28 12 16 27 19 27 28 31 27 15 7 14 3 3 2 6 14 15 12 11 11 10 14 16 17 21 25 22 20 24 24 38 37 39 46 46 27 30 34 40 43 31 28 31
9 13 9 7 17 19 24 32 32 23 13 15 10 5 9 10 8 9 11 9 9 6 7 8 10 11 14 17 18 22 25 26 31 33 41 37 35 31 25 29 35 30 26 30
15 10 8 9 2 9 22 33 28 35 13 10 22 16 12 12 10 9 7 9 11 16 19 19 15 12 8 9 12 17 24 27 27 27 24 24 20 21 29 31 30 30 32 35
16 14 11 20 20 18 9 19 30 37 34 24 28 35 31 25 18 18 20 19 17 18 21 25 25 24 22 18 15 15 15 21 25 28 32 32 29 25 25 28 30 32 33 33
10 12 13 16 19 23 24 27 23 21 28 40 38 36 27 25 30 32 32 28 25 22 27 31 32 26 28 27 23 21 17 17 21 23 24 23 21 21 24 26 26 26 28 29
9 10 13 5 9 21 20 33 26 35 27 28 38 26 20 24 27 24 28 31 26 25 29 32 33 31 27 27 29 23 21 19 18 17 17 17 18 20 21 22 23 24 27 29
5 4 7 8 1 1 6 8 13 17 25 33 33 25 19 22 22 19 20 24 27 26 27 27 27 27 27 25 24 22 23 20 18 17 16 17 18 19 19 21 23 25 27 28
5 4 3 3 4 5 3 3 8 9 11 17 27 26 22 21 22 22 24 25 25 25 23 22 24 25 24 23 19 22 23 22 19 17 15 16 17 19 20 22 23 25 26 28
4 7 7 1 2 2 2 5 3 3 7 7 12 14 15 17 22 19 22 21 19 19 20 21 22 23 24 21 16 21 23 23 20 18 16 18 19 20 21 24 26 28 28 29
3 5 10 9 6 5 3 4 2 2 1 1 1 4 7 10 11 12 14 15 16 17 19 20 19 21 19 20 16 15 22 25 22 21 20 19 20 21 23 27 28 28 27 26
3 4 6 7 7 5 4 4 5 6 9 8 8 9 12 12 13 13 14 15 15 15 16 16 17 17 18 19 16 13 15 19 22 21 19 19 20 22 24 25 25 25 24 24
5 7 5 5 4 9 13 11 10 11 13 11 9 7 6 7 8 9 9 9 9 8 8 10 12 15 15 17 14 13 14 16 18 19 19 19 20 22 24 24 23 22 22 23
10 13 13 14 9 12 12 7 11 12 11 12 10 8 7 9 10 10 9 6 5 4 4 3 4 5 9 12 13 15 17 18 19 19 20 21 22 23 24 25 23 21 22 22
11 14 16 21 19 21 24 21 15 15 15 16 15 13 12 10 8 8 8 6 5 4 3 2 2 5 8 11 14 16 18 19 21 22 23 24 24 25 26 22 21 21 21 20
10 12 16 19 20 20 21 22 21 19 18 15 14 13 13 12 9 7 5 5 6 5 2 3 4 5 6 8 12 16 19 21 23 25 27 27 25 26 25 21 20 20 19 19

GFSCGP_700_spd_096.txt.gz
Wind_Speed
18 17 18 16 15 9 7 12 16 13 11 7 18 18 28 24 17 19 22 23 23 24 22 22 21 22 25 27 27 26 25 24 24 26 27 30 30 28 30 30 30 30 31 30
15 16 17 18 16 13 12 16 17 16 7 11 9 17 11 27 30 27 24 25 26 27 26 25 25 24 23 26 27 28 26 25 25 26 26 26 27 28 29 30 29 30 30 26
17 13 15 17 18 13 9 12 13 12 12 13 13 17 22 25 29 26 34 29 28 29 30 31 28 27 25 24 23 23 24 25 27 25 27 28 28 29 29 29 29 27 24 24
10 12 14 18 14 9 8 11 13 15 17 15 12 5 14 18 35 32 35 34 33 32 33 33 35 34 31 29 26 25 24 24 25 26 27 27 27 30 27 27 26 27 28 28
7 12 15 15 13 11 8 7 10 14 17 13 19 8 13 17 28 31 38 37 36 35 33 31 33 36 35 34 32 31 30 29 27 27 28 29 29 29 28 29 29 29 29 29
8 9 11 17 16 15 8 11 10 16 18 5 18 22 8 18 22 19 19 29 32 34 33 31 31 33 35 36 37 35 32 32 32 32 32 31 32 30 32 33 33 31 31 31
13 15 11 18 20 13 14 19 5 3 5 4 23 18 25 9 15 22 17 19 21 23 26 26 27 36 39 38 36 36 35 33 32 32 35 37 34 33 33 33 33 33 32 29
4 7 16 16 25 23 20 22 4 5 3 4 10 12 17 15 16 19 15 19 19 18 21 23 24 27 39 40 39 39 36 34 35 33 32 32 33 35 36 35 36 36 31 34
6 8 11 16 18 25 22 23 16 1 1 1 6 15 20 14 15 19 20 17 18 21 21 22 24 22 18 20 28 34 38 38 37 36 35 33 33 34 35 37 38 37 39 48
11 10 12 16 18 25 21 21 12 10 5 4 5 9 13 19 22 21 19 20 19 19 19 20 21 22 22 23 22 21 25 30 33 34 30 27 29 34 35 35 37 29 27 25
15 21 8 15 22 30 28 23 18 11 9 4 1 7 15 20 14 19 21 17 17 19 26 27 27 20 25 27 25 24 23 25 25 25 24 26 30 34 36 31 27 26 27 28
15 12 19 31 18 25 27 33 30 16 8 12 2 4 6 13 13 15 17 13 11 11 13 17 20 20 20 24 25 25 25 25 24 27 31 28 28 31 32 37 44 40 32 36
8 8 9 7 14 23 31 35 33 32 20 21 10 6 9 9 11 12 11 11 9 8 8 9 13 17 18 20 22 24 23 21 24 26 32 33 34 38 37 46 50 40 27 18
18 14 14 7 9 4 23 25 37 34 22 20 29 20 17 16 11 11 13 13 15 16 14 12 12 12 12 10 9 12 16 20 25 27 29 30 33 30 33 23 33 29 22 23
18 16 15 17 17 16 17 18 25 40 34 21 27 28 24 18 18 15 13 12 14 15 18 20 20 21 21 19 17 11 12 16 20 27 28 28 28 27 30 28 26 25 22 24
7 10 12 21 21 20 17 17 21 21 31 36 36 36 29 23 24 27 27 26 25 21 22 24 26 26 23 25 27 25 22 17 18 20 22 25 27 29 28 26 22 21 24 28
7 6 3 6 11 8 14 20 26 25 24 23 34 34 31 33 31 25 24 29 29 24 27 31 28 28 27 24 24 25 25 25 21 21 21 22 22 22 22 21 22 23 24 25
5 5 5 5 3 3 7 5 5 17 16 22 27 26 21 18 16 21 26 31 30 25 24 26 27 27 26 26 25 23 23 23 22 23 20 18 18 18 19 20 20 20 22 24
7 5 3 2 3 8 3 4 4 6 8 8 17 22 24 21 21 23 21 23 25 26 25 24 25 26 26 24 23 22 21 21 23 23 20 17 17 18 18 18 18 20 23 25
7 3 2 1 3 3 1 8 4 5 4 7 7 7 9 13 18 14 18 20 20 22 22 21 23 25 25 22 22 21 20 22 22 21 20 19 19 19 18 18 20 22 25 28
2 4 9 7 5 3 6 4 4 2 2 2 2 1 5 8 9 10 12 14 16 18 19 19 20 21 21 20 20 19 18 20 21 24 22 21 19 19 19 20 21 24 27 28
3 3 4 4 5 7 8 10 10 6 5 6 5 7 9 12 12 13 15 17 17 18 19 19 19 18 18 17 17 17 15 18 24 25 24 22 20 20 20 20 22 24 26 25
5 9 4 6 4 7 11 14 15 12 11 10 10 8 8 10 11 10 11 12 13 13 14 15 15 15 15 16 17 17 17 19 21 24 26 23 21 20 20 21 22 24 25 24
11 13 14 14 12 17 16 16 17 18 12 13 14 11 9 7 8 10 11 11 10 9 8 8 8 8 10 14 16 17 17 16 17 18 20 20 20 21 22 23 23 26 23 23
11 12 14 18 18 23 25 24 25 21 16 17 17 15 14 13 10 10 9 7 8 6 6 5 3 4 6 10 13 15 15 17 18 19 19 20 22 24 26 25 27 27 25 23
10 12 16 21 22 23 22 18 22 21 20 20 18 18 16 18 13 10 8 7 6 4 2 3 3 3 3 6 9 12 15 17 19 20 22 24 26 27 29 27 28 23 22 22

GFSCGP_700_spd_099.txt.gz
Wind_Speed
12 12 15 13 5 5 2 8 12 22 17 15 20 22 20 29 29 31 33 31 27 22 16 20 28 28 33 34 35 35 32 27 25 26 27 27 26 30 33 30 32 32 30 30
10 10 10 11 7 6 7 7 12 11 10 9 22 17 14 29 34 29 28 36 32 25 21 20 18 23 30 30 27 26 25 24 23 24 23 24 24 24 25 26 26 26 27 28
10 9 12 12 11 8 7 10 11 7 13 12 8 13 18 17 33 32 30 31 36 30 24 22 22 21 20 22 27 27 23 24 23 24 25 24 24 26 26 27 26 25 26 26
11 14 13 13 11 14 7 6 10 11 12 7 12 4 15 20 20 36 36 34 32 35 30 27 26 26 24 22 22 23 28 27 27 27 26 25 25 26 24 25 26 25 25 26
7 13 16 15 14 13 9 4 9 10 16 10 17 8 19 16 23 23 38 40 44 38 35 34 33 32 31 28 26 25 26 25 26 25 26 25 25 24 24 25 26 27 28 28
10 12 13 16 18 14 9 9 8 13 15 6 17 18 10 21 24 23 18 32 32 36 31 33 32 31 30 32 32 31 30 30 29 26 26 26 25 26 26 26 28 29 31 31
13 15 16 14 18 16 14 12 2 2 4 4 15 16 21 16 17 17 18 23 27 29 31 34 31 31 31 32 33 33 34 34 32 32 32 32 30 30 30 29 29 31 30 31
5 7 20 18 22 19 22 20 7 6 3 2 6 11 19 19 21 12 22 21 21 23 29 33 32 32 30 28 31 33 34 31 32 33 33 32 34 33 33 31 32 33 32 32
6 6 7 17 18 24 18 22 21 4 2 1 6 12 12 14 14 15 19 21 22 20 19 23 26 29 28 26 30 35 36 35 33 32 31 32 33 32 30 29 30 33 33 34
5 8 12 10 15 24 21 19 9 7 4 4 5 9 14 6 17 27 19 23 20 20 21 22 20 22 22 22 23 25 29 35 37 34 36 34 33 33 34 32 31 30 32 33
13 16 7 10 17 25 26 21 13 7 6 4 2 6 13 16 14 23 20 16 17 17 18 20 19 18 18 24 26 25 25 26 28 31 32 31 28 26 26 25 25 28 32 35
10 12 9 17 17 21 29 26 25 9 6 11 2 8 6 13 20 13 13 16 14 14 16 20 23 25 24 22 26 30 26 25 24 24 25 24 23 20 20 23 25 26 29 34
5 6 5 8 10 23 16 30 29 29 15 18 7 5 12 4 10 12 12 13 12 11 13 12 14 17 21 19 19 22 22 22 22 23 27 26 25 24 24 23 24 22 27 36
18 20 18 12 15 17 12 24 26 31 18 23 33 22 10 8 7 10 13 14 12 11 8 6 7 10 12 12 11 12 14 18 21 23 25 27 27 29 29 29 32 35 34 31
17 16 18 23 16 17 20 15 13 31 37 21 32 29 29 23 16 15 15 17 15 13 13 13 13 13 13 13 14 13 11 12 14 17 21 26 29 30 30 30 30 28 29 26
13 8 8 18 18 20 23 19 17 18 29 38 29 28 24 19 25 23 20 15 16 23 23 22 19 17 16 19 20 24 25 22 18 15 17 20 24 28 29 29 28 29 25 24
6 4 4 3 2 7 9 10 13 20 25 22 32 38 29 29 33 30 27 25 26 29 28 28 29 28 27 26 25 25 27 31 29 25 20 21 22 25 28 29 27 25 24 24
3 4 5 5 2 2 3 5 9 5 13 20 20 18 20 20 20 25 32 36 28 24 24 24 25 29 29 27 27 25 24 26 28 30 28 25 25 26 26 25 24 23 22 21
6 3 1 3 6 8 4 6 4 7 6 3 9 12 17 15 20 22 21 21 22 26 24 24 29 28 26 26 26 26 26 25 27 28 27 26 26 24 23 22 22 21 20 21
5 5 1 1 3 2 3 3 1 4 3 2 3 8 5 13 20 14 17 20 21 22 23 23 25 24 24 23 25 23 22 23 23 24 23 24 23 22 22 22 20 19 20 21
6 6 7 7 5 7 9 6 2 4 2 2 2 7 6 1 5 8 11 12 13 14 16 17 18 19 20 22 22 21 22 21 20 23 24 24 22 21 21 20 19 20 20 22
3 3 5 4 5 7 6 8 7 5 6 6 3 4 4 5 7 9 12 13 15 16 17 18 19 20 20 19 20 19 18 18 21 24 26 25 23 22 20 21 21 21 22 23
5 8 4 6 5 10 11 13 14 13 15 16 12 8 9 6 6 8 9 11 12 14 14 14 15 15 16 17 18 19 20 22 23 24 24 25 26 24 24 24 22 22 23 25
9 12 13 12 10 15 15 18 21 20 18 22 22 15 10 10 8 8 10 11 12 11 11 11 10 10 11 13 17 19 23 24 22 22 23 26 26 27 27 22 23 24 25 27
11 11 12 17 17 20 23 23 23 25 26 23 20 18 14 13 13 14 12 11 9 10 9 8 8 6 5 6 11 15 19 19 20 18 18 20 24 23 21 24 25 27 29 28
12 12 14 21 23 25 25 26 25 25 25 23 26 19 19 16 16 18 17 12 8 6 4 4 5 6 4 5 8 10 12 12 14 18 20 20 20 23 25 27 28 29 30 29

GFSCGP_700_spd_102.txt.gz
Wind_Speed
9 6 9 7 4 5 5 9 9 15 12 8 12 19 26 28 29 29 28 30 33 32 33 33 30 30 31 36 32 31 29 37 39 45 39 35 32 35 34 33 30 26 25 24
9 9 6 7 2 2 6 9 14 15 9 4 13 14 18 27 31 32 30 29 29 34 36 34 32 31 32 34 32 33 29 25 28 23 23 33 28 28 30 27 26 23 20 19
7 6 6 6 6 2 4 6 5 2 12 8 3 12 17 19 31 32 33 30 32 33 33 30 29 34 32 32 34 32 27 19 29 30 28 23 30 31 28 22 21 20 19 19
5 10 9 11 10 7 5 3 6 4 3 1 10 2 8 13 22 36 37 36 32 31 31 30 27 25 25 23 24 27 28 31 31 25 23 23 21 21 20 23 21 22 22 22
4 6 12 11 11 8 7 2 3 5 8 5 11 5 6 16 17 18 45 37 33 36 31 29 28 26 22 22 21 20 22 29 32 31 30 29 28 29 25 24 24 24 23 23
13 11 8 11 11 11 9 5 2 7 9 4 12 15 6 21 21 18 17 23 34 33 34 35 33 30 30 31 29 26 25 24 25 26 26 27 27 28 29 24 25 24 25 25
13 16 13 11 12 14 15 10 2 2 3 3 10 14 23 8 20 15 19 23 22 41 42 41 34 30 29 30 30 32 32 31 30 29 28 27 26 26 25 25 26 25 26 26
6 5 14 15 16 11 18 19 6 5 3 3 6 10 15 20 20 14 18 18 20 24 28 31 35 32 29 27 26 27 31 34 34 32 32 31 31 30 29 30 29 30 30 29
3 4 6 14 13 17 14 19 17 2 3 2 7 10 12 11 19 19 12 16 17 16 17 20 26 32 31 30 28 27 29 32 33 32 30 30 31 30 30 30 31 29 28 29
5 8 8 12 14 16 17 13 8 10 3 4 4 7 9 6 9 13 12 11 15 17 17 16 14 21 29 31 30 27 26 28 32 33 32 30 29 29 30 30 30 30 29 28
12 10 10 7 9 17 18 18 11 8 6 4 1 4 5 10 14 14 15 18 16 19 16 17 18 17 18 19 24 26 25 23 22 25 28 31 32 31 32 33 33 33 32 28
10 9 12 21 18 15 15 19 18 9 5 5 2 6 2 5 10 17 10 13 13 16 18 19 19 18 17 18 19 24 23 22 21 20 22 26 28 30 29 28 26 25 22 22
5 5 6 8 7 4 8 11 22 17 13 11 5 5 4 9 7 9 13 14 14 14 13 15 18 22 24 25 23 22 25 25 24 24 25 23 23 25 24 22 19 19 19 20
14 16 14 12 17 19 17 15 12 24 9 12 30 15 4 2 1 3 9 14 14 13 9 8 9 11 14 16 19 21 21 23 24 24 24 23 23 25 24 23 23 23 21 23
12 14 15 19 22 20 17 15 16 14 19 15 21 26 26 21 13 7 9 11 14 12 10 8 7 7 8 9 10 12 13 15 16 18 20 22 23 24 25 26 27 27 28 28
14 7 9 15 10 16 18 19 18 18 18 28 31 33 17 15 28 27 19 16 15 15 13 11 11 10 12 13 15 17 18 19 17 15 15 18 19 22 26 28 27 27 26 27
4 1 3 5 6 2 7 5 6 12 18 18 23 25 23 26 27 23 27 25 21 22 23 20 18 18 18 19 20 21 23 23 24 26 26 21 20 21 21 24 28 28 26 26
1 1 2 4 3 1 2 4 3 7 8 7 15 13 17 12 27 31 31 30 30 30 30 27 25 23 24 25 25 26 26 27 26 27 30 31 30 26 24 23 24 26 27 26
2 1 2 3 4 6 1 5 2 3 8 3 2 8 12 14 21 21 21 33 33 32 35 36 33 29 26 25 26 26 27 27 27 26 27 29 32 32 28 26 25 24 24 23
3 4 2 1 2 2 2 5 5 4 4 2 0 4 4 5 12 13 16 14 17 19 22 23 24 24 24 25 26 27 26 27 25 24 25 27 28 28 26 26 25 22 22 22
7 7 7 5 5 4 4 6 3 3 2 3 3 2 4 4 2 3 4 6 11 14 14 16 18 20 22 23 25 25 24 23 21 24 25 24 23 23 24 24 23 22 21 20
3 3 5 4 4 4 2 4 3 6 8 6 7 7 8 5 3 2 5 8 10 12 13 16 18 18 20 21 23 23 22 23 24 25 24 23 23 23 24 23 23 22 22 21
5 6 3 5 5 11 15 18 17 16 14 13 13 13 10 8 6 7 7 8 10 11 12 12 14 15 16 17 19 21 21 22 24 25 24 23 24 26 25 25 24 23 23 23
9 11 12 11 7 12 16 19 20 23 22 20 18 17 20 14 11 9 8 9 9 10 10 10 10 10 11 12 15 17 19 21 23 24 23 24 25 27 27 26 26 27 26 24
11 11 12 15 15 18 19 21 22 23 23 25 23 20 19 21 15 14 12 12 13 11 10 10 8 7 8 8 8 12 16 19 21 23 22 22 23 26 27 29 29 26 23 26
11 12 13 14 19 22 24 25 26 29 29 27 27 22 23 17 16 16 15 14 15 14 9 6 5 5 5 5 6 7 10 14 16 16 17 16 18 20 23 26 23 23 26 28

GFSCGP_700_spd_105.txt.gz
Wind_Speed
4 5 7 5 5 5 8 18 10 10 12 12 16 16 29 33 35 36 35 35 32 30 28 29 29 25 25 36 29 24 53 51 49 40 31 30 29 31 31 31 30 25 26 27
5 6 2 4 7 5 3 5 4 6 6 6 9 8 24 27 32 34 36 35 33 31 29 27 26 29 33 31 28 23 21 33 46 48 34 29 34 30 31 31 33 30 30 27
7 6 4 3 2 5 4 4 4 3 8 2 5 12 24 21 26 30 32 34 35 34 33 32 31 31 34 32 29 31 29 29 34 47 39 38 45 42 38 37 29 27 27 25
6 7 6 4 4 3 3 2 3 1 7 2 3 2 17 20 22 25 28 30 32 34 34 34 33 33 31 27 30 31 32 33 32 17 25 26 28 31 42 35 37 27 22 21
3 3 9 9 8 7 6 4 3 6 8 2 10 2 14 21 31 21 22 25 32 32 33 33 31 30 29 29 28 28 31 34 26 22 25 28 22 17 20 19 16 21 21 20
8 7 7 11 10 11 7 6 4 7 7 2 10 13 9 24 24 24 20 17 40 36 34 32 30 28 27 26 24 23 22 24 27 29 27 27 24 26 28 27 22 21 25 25
9 7 8 7 12 12 13 10 2 3 3 3 7 12 16 9 14 18 16 16 38 38 35 35 32 31 31 30 29 28 27 24 23 25 26 27 28 28 26 25 23 25 26 24
6 3 6 4 12 11 18 18 5 5 4 3 7 8 7 9 18 17 14 24 27 26 29 36 37 37 36 33 33 32 30 29 30 28 28 28 28 27 26 26 26 26 26 27
5 1 8 6 5 13 11 19 17 3 3 2 5 5 9 9 9 14 11 10 18 23 22 27 43 38 39 36 34 30 33 34 35 34 33 32 31 29 29 29 30 30 30 30
3 7 5 8 5 11 15 9 7 8 4 3 4 6 10 3 6 11 8 11 12 15 15 17 20 23 34 39 35 32 31 31 33 32 33 34 33 33 33 33 32 31 31 31
9 8 8 12 4 7 9 12 11 5 6 3 2 4 2 8 6 9 11 13 10 15 14 13 15 13 20 33 33 32 31 30 30 29 31 33 34 33 32 32 31 31 31 31
9 7 13 17 14 14 13 9 6 9 6 8 3 3 2 2 1 8 13 10 13 14 15 13 12 12 12 17 22 26 28 29 28 24 24 25 27 30 32 32 31 31 31 32
7 4 5 6 3 2 3 9 14 7 8 12 8 3 3 2 5 7 10 9 13 13 14 14 15 15 15 16 18 21 23 23 22 22 21 21 22 24 27 28 27 26 25 25
10 11 13 11 14 20 19 14 10 10 5 5 8 10 9 9 12 5 9 11 12 10 10 10 10 13 17 21 23 23 24 27 29 27 25 24 24 25 24 24 25 24 23 20
8 11 14 17 17 18 22 19 12 14 10 5 5 6 12 17 15 3 3 7 10 13 13 12 10 9 10 12 14 17 21 22 23 24 25 27 27 26 24 22 23 23 24 23
11 5 7 7 7 7 11 10 12 16 16 13 15 23 16 9 12 16 13 10 13 15 16 14 13 11 9 9 10 10 11 12 13 13 15 18 20 22 22 22 22 24 25 25
3 2 4 4 7 4 2 3 4 5 7 10 12 12 10 14 23 19 18 19 19 21 20 19 17 15 15 13 13 14 15 16 18 19 20 20 18 18 19 21 22 25 26 27
3 2 3 3 3 3 4 6 4 6 7 8 9 10 12 12 14 22 26 28 26 26 26 25 22 19 18 17 17 22 24 25 23 23 24 25 26 28 27 24 23 23 24 26
1 0 2 3 3 4 1 2 2 5 3 2 2 4 8 12 11 9 31 29 28 28 28 27 27 27 27 28 30 28 29 28 28 28 27 27 28 30 32 32 29 27 25 26
2 2 1 1 1 1 3 3 5 6 6 4 1 3 5 6 6 8 17 19 22 27 32 30 28 27 27 28 28 28 28 28 26 25 27 29 30 29 28 29 29 28 28 27
4 4 5 5 4 4 3 3 6 2 3 6 7 6 5 6 4 1 1 9 12 15 14 16 19 22 23 25 26 26 27 25 23 25 27 28 27 26 27 26 25 25 24 24
3 2 2 2 4 3 2 1 3 8 11 12 11 10 10 9 7 5 4 4 7 8 10 13 15 18 20 21 23 23 23 22 22 24 26 27 25 25 24 23 23 22 22 21
4 5 3 4 4 9 11 12 12 13 13 15 15 16 15 11 9 7 9 9 10 10 10 11 14 16 16 18 20 21 21 20 20 22 24 25 24 23 22 22 22 22 22 22
8 10 9 8 4 11 14 17 19 19 20 21 21 19 19 18 19 12 10 9 8 9 10 10 10 10 12 12 14 16 17 16 16 19 21 22 21 21 22 23 23 24 23 25
10 9 9 11 12 13 15 19 22 23 24 25 24 24 20 20 19 19 16 13 13 12 11 11 11 10 10 9 9 10 12 13 14 17 19 22 21 22 22 24 26 27 29 30
12 11 10 9 11 14 18 21 21 22 25 26 25 23 24 22 20 17 19 15 14 13 13 12 9 9 8 7 7 6 5 8 12 15 18 18 18 19 21 24 24 27 27 27

GFSCGP_700_spd_108.txt.gz
Wind_Speed
2 2 5 1 4 2 4 8 15 16 15 13 13 11 10 25 27 29 31 32 35 29 27 23 25 25 29 46 34 34 31 29 33 35 37 38 37 35 35 34 32 31 29 27
5 5 5 1 4 4 3 5 4 7 7 4 7 13 8 25 23 33 30 30 25 23 21 21 26 30 31 35 47 35 30 28 30 37 38 37 36 34 33 33 33 33 32 27
8 7 4 4 1 2 3 3 3 1 1 4 6 8 12 24 30 32 32 30 29 26 22 22 25 22 28 29 43 38 26 28 35 39 46 39 39 39 32 31 32 32 28 27
8 10 8 6 5 3 1 3 1 3 5 2 1 1 16 18 31 32 32 33 33 32 30 30 27 28 23 17 47 32 28 33 45 46 48 48 42 52 40 33 29 29 27 30
4 5 10 10 9 6 4 3 2 4 3 4 5 5 9 23 28 30 30 32 33 33 34 34 31 30 24 25 25 26 25 27 33 49 60 53 66 40 35 52 42 29 36 35
9 9 8 9 10 10 5 5 4 5 4 5 7 7 5 14 22 28 30 27 26 27 27 27 28 28 26 26 25 26 30 28 20 25 23 20 16 23 28 19 42 32 31 35
5 2 8 8 7 10 10 8 4 4 4 3 4 7 9 4 12 23 25 28 29 26 30 31 30 29 31 29 30 31 31 29 27 29 27 26 24 25 19 19 21 15 20 21
4 1 4 2 8 6 13 11 5 5 4 2 3 5 2 2 12 12 21 29 34 35 40 37 33 31 28 26 26 28 28 27 25 23 23 25 25 24 22 22 24 22 23 24
4 1 8 3 3 9 7 17 11 0 1 3 3 7 11 7 5 5 16 20 30 25 41 40 37 32 31 31 30 29 29 28 25 23 22 22 21 22 21 19 20 22 24 25
4 5 2 4 5 7 10 9 6 11 5 5 4 5 8 4 1 4 14 10 15 25 33 31 35 30 38 35 32 34 32 31 29 27 28 28 27 27 27 26 26 27 28 28
5 4 3 9 2 4 5 5 6 3 2 2 3 3 3 4 4 3 6 7 12 15 19 24 24 26 32 36 34 36 35 33 31 30 29 29 31 32 33 33 32 32 32 32
6 4 6 7 9 6 5 7 8 5 3 3 7 4 4 9 9 2 2 6 10 16 16 14 16 19 22 29 38 41 38 34 32 30 28 28 29 30 31 32 31 31 31 31
6 3 5 2 2 3 5 8 10 10 3 7 4 4 11 15 10 2 3 8 10 13 16 15 14 16 17 16 29 35 34 31 30 29 27 26 26 27 27 28 30 32 32 32
9 6 7 7 9 12 12 9 5 4 3 8 8 3 5 7 12 12 3 6 8 9 9 11 14 15 14 17 20 24 26 27 26 26 24 23 22 22 22 23 24 27 28 28
5 5 7 8 9 13 16 12 9 8 5 4 3 10 5 6 10 4 4 8 9 9 9 9 9 13 17 20 21 22 24 26 27 27 27 27 26 25 26 26 26 27 27 27
5 3 5 5 11 3 2 3 4 8 10 12 11 15 15 15 14 12 9 8 11 14 14 14 13 12 11 13 16 20 22 22 23 27 28 28 27 28 28 27 26 25 25 26
2 3 5 3 8 7 6 3 1 3 3 6 7 8 12 13 21 15 16 18 16 15 15 16 16 15 12 12 12 13 14 15 17 19 20 20 20 18 19 21 23 25 25 26
1 3 4 2 4 1 1 2 2 3 4 2 5 7 10 10 10 16 17 21 24 24 23 22 20 18 16 14 14 14 15 17 19 20 21 23 23 24 24 23 22 23 24 26
3 0 1 2 2 2 1 2 3 3 5 3 1 2 5 6 5 10 17 23 30 27 26 26 28 28 25 23 22 21 23 24 24 27 27 26 28 28 29 29 29 29 26 25
4 3 1 1 1 1 4 3 4 6 6 5 5 5 4 2 4 12 16 21 29 25 23 25 27 29 31 31 32 33 32 35 32 30 30 30 29 30 29 28 28 29 30 31
3 4 5 4 4 4 5 5 3 2 3 7 9 8 7 6 3 3 4 9 20 22 24 20 23 25 29 33 34 32 32 31 31 30 30 30 30 29 29 30 30 30 30 29
4 3 3 3 3 2 4 4 4 9 14 15 16 16 14 11 10 8 7 7 7 7 6 8 18 15 17 20 23 26 27 27 27 27 28 29 29 29 29 27 27 27 27 27
5 7 3 5 4 7 9 11 13 14 18 20 20 19 19 17 16 14 14 14 11 11 11 12 13 16 20 21 20 22 23 24 23 24 25 26 27 26 25 24 23 23 24 24
10 11 9 6 4 7 10 13 16 19 21 21 21 22 21 22 22 19 17 14 11 11 12 12 13 14 16 17 20 18 19 19 19 21 23 24 24 23 22 22 22 24 25 25
13 10 8 11 11 10 11 14 18 19 20 23 24 22 22 24 22 23 20 18 15 14 13 13 13 14 13 12 13 15 15 14 15 16 17 19 20 21 21 21 22 24 27 29
16 16 13 10 8 10 13 16 17 18 18 21 24 22 19 21 22 22 20 19 19 18 15 14 15 13 13 11 11 11 11 9 11 11 12 15 17 18 17 19 23 25 27 27

GFSCGP_700_spd_111.txt.gz
Wind_Speed
8 11 7 6 8 13 11 10 15 9 20 19 13 17 15 16 20 18 34 33 31 26 19 18 15 13 18 28 35 42 39 34 36 40 42 43 44 44 43 41 39 36 33 30
8 12 7 11 10 9 7 8 8 8 15 16 10 12 14 16 16 15 25 31 31 29 25 22 18 19 16 41 36 45 44 36 33 33 36 38 41 43 42 41 39 36 34 32
12 9 12 9 9 8 6 8 6 8 8 9 11 12 16 26 16 19 21 26 28 28 27 22 16 20 25 42 35 48 50 36 30 31 33 36 38 40 41 39 38 35 33 33
10 13 14 10 10 9 13 4 6 7 5 4 5 5 15 20 20 22 22 25 28 30 25 30 17 10 11 25 40 39 33 34 32 27 29 33 34 37 37 39 34 32 28 28
7 10 7 11 10 10 8 7 8 9 9 11 3 5 8 16 24 21 20 26 26 26 22 18 15 11 15 15 14 16 53 31 32 29 30 30 30 33 38 39 35 31 31 29
12 15 13 10 13 12 11 7 7 6 6 5 1 2 10 9 16 19 20 17 26 26 26 24 22 18 20 23 14 12 30 45 31 24 31 41 39 34 33 40 42 38 39 34
7 4 10 10 9 9 10 10 3 3 3 2 5 3 6 3 4 17 19 18 16 26 26 25 27 27 26 25 20 14 21 17 18 17 13 46 34 36 38 44 58 57 47 54
6 2 5 6 5 7 9 11 7 4 2 1 3 1 4 5 5 8 15 17 19 23 21 21 22 24 27 30 23 17 23 25 24 29 29 17 36 50 40 32 19 42 14 10
7 3 10 5 7 7 6 6 8 7 5 3 4 2 10 13 4 7 13 21 23 24 25 25 28 27 27 27 27 27 28 27 27 23 22 22 26 29 26 19 22 20 19 17
6 7 7 5 7 5 6 10 3 4 3 4 6 1 11 12 7 2 2 14 17 19 25 29 33 29 28 25 23 22 24 23 23 22 20 18 18 19 18 19 20 20 21 23
6 4 4 7 4 8 7 4 5 6 4 3 2 8 10 10 6 1 5 9 11 13 17 15 34 35 29 25 27 24 27 26 26 25 22 21 21 21 21 21 20 22 23 23
5 4 8 10 7 4 4 7 8 4 6 3 4 7 13 15 8 5 4 4 8 10 12 19 25 28 31 34 39 27 26 30 30 29 27 24 23 22 23 24 26 27 26 25
5 4 6 3 2 6 5 7 7 6 4 3 4 4 14 17 16 7 3 4 6 8 9 9 13 15 18 21 29 33 36 37 27 28 26 24 21 21 22 22 24 25 26 27
6 3 3 6 8 9 10 7 7 5 3 8 4 2 10 16 17 13 6 6 7 8 10 10 9 9 12 15 15 27 34 30 32 32 30 26 25 23 23 23 24 26 29 30
3 3 5 4 5 6 9 8 6 7 2 3 7 10 10 11 11 9 5 5 9 10 10 10 10 10 10 10 12 10 18 28 29 28 26 25 24 22 21 21 22 23 23 25
3 3 5 8 6 2 2 2 3 5 8 11 10 8 7 12 12 5 3 4 6 8 9 9 8 9 9 12 12 12 16 20 22 22 24 25 25 25 25 25 24 24 24 24
3 4 3 3 5 5 6 2 1 3 4 7 8 8 13 12 14 15 11 13 12 12 10 9 10 10 9 8 9 10 12 16 18 20 22 25 26 27 27 27 26 25 25 25
1 3 3 2 3 1 3 1 1 3 4 4 5 6 7 7 9 14 17 16 17 18 16 14 13 12 12 11 11 11 11 12 13 15 16 17 19 20 21 20 19 20 21 22
2 1 2 2 3 2 5 6 2 3 9 7 3 5 6 6 5 7 11 17 16 23 22 22 22 21 19 18 17 17 16 16 17 17 19 21 23 24 25 26 26 26 24 23
4 3 0 2 2 2 2 4 6 8 9 5 8 6 6 6 3 13 11 13 16 18 23 27 26 26 27 27 28 28 27 28 26 27 28 29 29 30 31 31 30 30 29 30
4 4 4 4 4 5 8 4 4 2 5 8 11 11 10 9 10 10 9 7 10 14 20 24 24 28 29 29 31 33 34 35 35 36 37 37 37 34 34 33 32 32 32 32
4 3 3 4 4 4 5 6 4 9 15 17 18 17 17 16 14 13 12 12 11 10 10 10 12 23 22 24 24 26 29 31 32 33 33 33 32 31 30 30 32 32 32 32
5 9 4 7 6 9 10 9 12 14 17 19 20 22 21 20 20 18 17 17 16 14 12 11 12 13 12 19 19 20 21 23 24 26 27 28 29 28 28 29 27 27 28 28
14 15 13 9 7 9 10 11 13 15 18 21 21 21 20 22 22 23 22 20 17 16 14 12 12 14 15 17 19 21 21 20 21 22 25 25 26 27 27 26 24 25 25 25
17 15 13 14 15 13 12 11 13 16 18 18 21 25 24 22 24 24 22 23 20 19 17 14 15 16 16 18 17 17 18 18 17 18 20 22 22 24 23 23 23 23 23 24
15 20 20 14 12 12 10 12 13 16 16 16 18 21 20 16 17 21 22 22 21 19 20 17 16 17 19 17 15 15 16 16 14 14 15 16 15 17 19 20 20 21 23 25

GFSCGP_700_spd_114.txt.gz
Wind_Speed
9 13 14 13 8 16 20 19 20 18 18 20 24 25 20 11 16 19 23 19 23 22 22 21 18 14 7 20 40 50 34 41 42 40 40 44 44 43 42 43 42 41 38 34
9 16 13 10 13 16 17 21 18 8 12 16 19 23 15 13 21 15 23 29 23 22 21 17 16 12 9 23 19 31 39 37 40 43 37 41 41 43 44 46 45 42 39 34
14 15 17 13 11 15 16 15 13 10 12 16 16 16 13 10 14 13 21 33 28 23 20 21 14 15 12 24 24 27 32 38 48 35 37 38 38 40 44 44 43 41 37 34
9 8 13 13 10 14 14 13 13 11 13 7 7 7 10 5 14 14 18 22 30 26 22 17 16 14 11 15 24 39 33 36 37 32 34 35 37 39 39 40 40 39 38 36
5 15 16 12 9 11 14 14 12 12 11 13 6 6 10 5 11 14 16 14 21 22 21 16 16 14 12 14 33 21 29 37 33 38 33 34 33 33 35 37 38 39 37 36
11 14 14 13 15 14 14 14 13 11 7 2 4 4 17 5 8 10 10 13 15 18 21 17 8 7 14 9 3 17 27 22 37 36 34 38 34 34 30 29 33 35 38 38
13 7 8 12 13 5 5 11 4 1 1 3 2 5 9 12 10 9 6 14 10 16 18 19 14 7 10 7 5 6 8 19 38 40 30 31 39 35 38 28 23 23 22 31
8 4 12 14 10 11 12 8 5 2 3 2 3 7 16 10 8 8 9 9 8 14 17 20 20 18 16 11 12 13 6 6 12 48 30 25 41 26 28 34 39 31 29 36
9 3 12 12 16 11 10 8 10 6 4 4 12 18 9 13 14 11 10 5 12 8 12 14 16 18 20 20 16 17 16 14 8 13 12 19 18 41 45 39 39 35 30 26
7 7 8 14 10 15 11 11 7 4 5 3 13 13 15 18 12 8 4 3 6 15 7 13 15 13 13 13 18 24 24 19 15 18 22 17 18 18 28 39 59 31 34 30
8 4 11 9 9 11 12 14 6 4 4 3 2 3 17 15 14 8 6 3 2 3 8 12 17 17 16 13 13 14 16 17 20 20 19 16 17 15 13 15 11 32 22 15
10 5 8 7 8 10 11 14 13 5 5 5 3 6 16 20 14 9 11 8 4 3 1 6 8 12 18 16 16 15 13 14 17 17 16 15 14 13 14 15 16 17 16 17
10 7 7 3 3 9 9 10 10 6 5 9 4 2 16 15 14 13 9 8 6 4 4 3 2 7 16 22 20 20 24 20 23 19 20 19 17 18 17 16 18 19 19 21
5 6 3 1 7 10 9 5 6 8 5 8 9 10 13 11 12 11 10 5 3 2 2 2 5 4 8 11 14 18 22 23 23 19 24 23 20 17 16 15 16 19 21 22
6 6 8 3 5 5 5 1 2 4 2 3 6 12 7 7 6 7 5 3 2 2 0 1 2 3 2 4 7 8 10 22 26 28 30 28 26 23 17 17 17 16 18 20
5 4 7 12 10 7 4 4 2 4 6 6 2 2 4 6 9 4 3 3 1 2 3 1 0 1 2 4 4 4 5 6 13 20 23 22 13 9 17 19 18 17 18 19
4 5 2 2 6 4 5 1 0 2 4 5 3 6 10 12 14 15 13 10 9 6 4 3 2 2 2 2 2 3 3 5 9 13 13 12 15 20 21 20 21 22 23 25
2 4 4 3 6 3 5 4 4 6 7 6 4 4 6 7 8 8 7 12 15 13 11 9 8 6 5 5 5 4 5 4 5 7 10 13 16 19 21 23 24 24 22 23
2 3 2 3 4 4 7 5 5 8 10 7 6 6 5 6 9 6 5 5 12 16 17 18 17 16 15 13 11 10 10 10 11 12 14 15 16 18 19 20 21 22 22 21
4 3 2 1 1 1 6 7 7 9 7 5 5 5 6 6 5 8 11 10 10 11 16 18 25 25 23 24 22 21 20 19 20 20 21 21 21 22 22 23 24 25 25 26
5 5 5 1 5 5 10 7 6 1 5 10 12 13 13 12 12 12 13 11 7 6 8 12 18 22 25 29 31 30 31 33 33 34 33 32 30 31 30 31 30 29 30 30
5 3 3 4 5 6 3 6 5 8 14 15 17 17 16 16 16 17 16 14 12 9 8 7 8 12 18 24 25 29 31 33 35 36 39 40 40 39 38 35 32 31 31 31
5 7 4 7 6 8 10 12 10 12 16 18 18 20 18 16 19 20 19 19 17 15 13 11 10 10 10 11 14 26 22 24 22 23 25 28 31 31 30 30 30 30 30 30
12 15 15 13 8 8 11 12 11 12 15 18 19 21 22 21 19 21 21 21 20 19 15 14 12 10 11 12 14 15 16 19 24 22 21 22 24 27 28 28 28 29 28 28
23 23 18 19 15 15 15 13 11 11 14 17 17 19 22 23 20 19 21 21 21 21 20 18 15 14 14 15 15 16 16 16 17 17 19 22 23 24 25 25 27 28 27 28
10 12 14 19 16 14 9 11 12 13 13 14 13 16 20 19 14 13 16 18 21 20 21 20 19 17 18 19 19 18 14 14 16 16 17 17 19 20 20 20 24 26 25 28

GFSCGP_700_spd_117.txt.gz
Wind_Speed
9 13 11 16 11 12 15 24 24 27 13 12 22 30 30 20 20 8 16 18 7 21 18 28 20 25 23 19 27 33 34 43 42 52 47 52 50 51 45 42 41 40 40 38
12 15 10 14 15 13 17 20 22 11 15 16 20 30 19 17 15 6 10 14 11 16 21 24 25 22 20 25 31 41 40 36 38 47 44 46 50 47 43 44 44 43 43 41
12 14 17 15 16 14 17 16 16 18 16 14 19 12 23 15 4 5 12 14 19 17 21 20 12 14 16 18 22 27 40 34 36 50 43 39 42 47 46 47 45 46 44 41
6 6 10 14 11 11 17 9 15 17 14 12 19 6 21 12 6 6 8 8 15 18 17 21 16 15 18 24 29 22 36 42 32 48 36 37 41 42 47 46 45 47 45 41
7 15 19 17 13 14 19 18 18 15 10 15 7 2 26 15 7 3 3 5 14 20 23 12 19 17 16 16 28 31 30 46 40 43 46 35 37 34 36 40 44 44 41 39
12 11 9 13 16 8 12 12 10 10 8 2 7 3 22 31 20 5 5 5 12 18 20 23 19 6 5 12 19 27 24 35 29 35 42 41 34 35 34 36 38 39 39 37
12 4 13 15 20 1 12 10 5 3 2 4 7 18 22 27 17 23 3 9 6 18 20 22 14 6 3 4 8 3 18 22 34 21 45 40 35 35 35 34 34 34 33 32
10 6 18 19 18 14 12 8 6 4 1 3 11 8 21 21 23 22 6 14 9 10 17 17 14 7 10 5 11 6 12 9 28 22 36 46 42 38 38 35 33 32 29 25
11 3 11 16 15 19 10 11 3 5 4 5 7 12 6 20 17 23 18 9 14 9 11 8 13 14 12 1 8 9 8 10 12 27 36 44 40 44 40 41 37 32 30 27
7 5 10 11 9 13 14 9 5 5 4 4 4 10 18 26 23 18 14 18 16 1 3 5 6 4 9 9 10 8 8 11 4 4 30 19 30 36 45 40 45 43 36 29
9 2 7 13 14 17 18 21 7 6 6 4 1 6 21 22 21 21 18 13 10 6 4 5 4 4 5 3 2 10 15 11 11 16 19 27 15 17 22 29 53 42 43 57
11 6 7 10 7 8 13 18 14 4 4 5 4 9 17 19 18 16 17 15 12 12 9 7 3 7 8 6 7 6 6 5 7 10 16 20 15 17 16 13 18 18 26 46
9 7 3 2 3 9 10 14 14 9 5 12 2 4 12 11 13 14 14 14 13 10 9 8 2 2 7 11 12 10 10 8 7 8 13 16 17 19 17 16 15 15 15 19
6 12 8 5 2 8 4 6 10 9 7 9 9 4 2 5 6 4 7 8 10 10 9 9 8 5 4 8 10 10 12 12 13 19 13 14 14 11 10 13 15 15 17 20
8 10 11 8 6 5 5 4 6 8 6 3 2 2 3 3 2 5 7 6 5 6 6 7 7 6 5 3 3 5 7 12 16 17 19 16 20 18 18 15 13 15 15 18
9 5 9 12 11 8 6 4 4 4 4 2 3 5 4 8 10 8 7 7 5 4 5 7 6 5 4 2 1 1 2 3 10 19 21 21 19 22 27 24 21 8 11 14
6 6 3 4 5 1 2 2 2 3 4 5 2 3 7 11 13 10 12 12 8 6 3 2 2 3 4 2 1 1 2 2 3 7 12 16 13 7 5 8 13 16 16 17
4 6 3 1 3 3 4 2 3 4 2 3 4 3 4 7 6 3 3 7 11 10 10 9 6 3 2 1 1 1 1 2 3 5 8 10 10 12 12 14 17 18 19 21
3 4 2 2 1 3 2 2 3 4 3 2 5 3 4 7 12 6 3 4 6 13 14 14 15 15 14 12 11 8 7 7 7 8 8 9 10 11 13 14 17 18 19 20
4 5 3 2 1 4 1 3 5 6 2 2 2 1 5 8 11 8 6 7 7 11 12 16 17 19 22 22 20 20 19 19 18 17 16 15 15 15 16 17 17 18 19 20
8 6 6 5 4 5 5 5 3 1 2 6 7 8 10 14 14 16 14 14 11 8 9 11 15 18 20 23 26 28 28 29 29 29 29 28 28 27 27 26 25 25 25 26
4 4 3 3 6 5 4 4 6 7 8 7 9 10 12 16 16 18 18 17 17 13 11 11 12 13 13 15 18 25 28 30 32 36 38 38 36 36 36 36 35 34 33 32
5 4 7 7 6 11 13 10 11 12 12 12 12 11 13 15 16 19 19 19 20 19 16 15 14 13 13 12 12 13 15 21 25 26 30 31 30 32 31 32 32 33 34 33
13 15 18 18 5 8 12 13 11 12 12 13 15 17 16 16 19 18 18 21 21 22 20 20 17 15 14 13 13 14 15 16 17 18 21 27 26 25 24 26 28 30 31 31
23 21 18 20 18 19 16 14 13 10 11 12 13 15 17 19 18 16 14 17 22 22 22 22 21 17 16 15 16 16 18 19 20 20 20 21 23 25 26 26 26 28 29 30
14 14 19 22 15 15 13 13 11 10 11 11 11 13 14 16 17 14 11 11 15 19 21 22 22 21 20 19 17 18 19 20 21 21 19 20 21 22 23 23 24 26 27 28